Wetterdaten: Montag, 17.10.2016
Datum Zeit Temp. A. Feuchte A. Luftdruck Regen Wind Richtung Richtung Sonnenschein ET UV Solar Taupunkt Windchill Windben Empfang
17.10.2016 00:00 11,1 C 90 % 1022,4 hPa 0,0 l/m 11,2 km/h (2 Bft) NO 51 0 min 0,000 mm 0,0 UV-I 0 W/m 9,5 C 8,2 C 16,1 km/h (3 Bft) 97,87 %
17.10.2016 00:02 11,1 C 90 % 1022,4 hPa 0,0 l/m 10,4 km/h (2 Bft) O-NO 73 0 min 0,000 mm 0,0 UV-I 0 W/m 9,5 C 8,6 C 14,5 km/h (3 Bft) 97,67 %
17.10.2016 00:04 11,1 C 90 % 1022,4 hPa 0,0 l/m 10,9 km/h (2 Bft) NO 49 0 min 0,000 mm 0,0 UV-I 0 W/m 9,5 C 8,3 C 17,7 km/h (3 Bft) 97,87 %
17.10.2016 00:06 11,1 C 90 % 1022,4 hPa 0,0 l/m 9,5 km/h (2 Bft) NO 50 0 min 0,000 mm 0,0 UV-I 0 W/m 9,5 C 9,1 C 14,5 km/h (3 Bft) 95,74 %
17.10.2016 00:08 11,1 C 90 % 1022,4 hPa 0,0 l/m 9,7 km/h (2 Bft) O-NO 69 0 min 0,000 mm 0,0 UV-I 0 W/m 9,5 C 9,0 C 14,5 km/h (3 Bft) 97,62 %
17.10.2016 00:10 11,1 C 90 % 1022,4 hPa 0,0 l/m 13,0 km/h (3 Bft) O-NO 68 0 min 0,000 mm 0,0 UV-I 0 W/m 9,5 C 7,3 C 20,9 km/h (4 Bft) 97,87 %
17.10.2016 00:12 11,1 C 90 % 1022,4 hPa 0,0 l/m 12,7 km/h (3 Bft) O-NO 60 0 min 0,000 mm 0,0 UV-I 0 W/m 9,5 C 7,5 C 19,3 km/h (3 Bft) 97,87 %
17.10.2016 00:14 11,1 C 90 % 1022,4 hPa 0,0 l/m 11,5 km/h (2 Bft) NO 55 0 min 0,000 mm 0,0 UV-I 0 W/m 9,5 C 8,0 C 16,1 km/h (3 Bft) 93,75 %
17.10.2016 00:16 11,1 C 90 % 1022,3 hPa 0,0 l/m 11,4 km/h (2 Bft) O-NO 68 0 min 0,000 mm 0,0 UV-I 0 W/m 9,5 C 8,1 C 19,3 km/h (3 Bft) 97,87 %
17.10.2016 00:18 11,1 C 90 % 1022,3 hPa 0,0 l/m 11,8 km/h (2 Bft) O-NO 65 0 min 0,000 mm 0,0 UV-I 0 W/m 9,5 C 7,9 C 16,1 km/h (3 Bft) 100,00 %
17.10.2016 00:20 11,1 C 90 % 1022,2 hPa 0,0 l/m 10,7 km/h (2 Bft) NO 40 0 min 0,000 mm 0,0 UV-I 0 W/m 9,5 C 8,4 C 16,1 km/h (3 Bft) 100,00 %
17.10.2016 00:22 11,1 C 90 % 1022,2 hPa 0,0 l/m 11,4 km/h (2 Bft) O-NO 62 0 min 0,000 mm 0,0 UV-I 0 W/m 9,5 C 8,1 C 16,1 km/h (3 Bft) 100,00 %
17.10.2016 00:24 11,1 C 90 % 1022,2 hPa 0,0 l/m 11,4 km/h (2 Bft) NO 50 0 min 0,000 mm 0,0 UV-I 0 W/m 9,5 C 8,1 C 17,7 km/h (3 Bft) 97,87 %
17.10.2016 00:26 11,0 C 90 % 1022,2 hPa 0,0 l/m 10,9 km/h (2 Bft) NO 55 0 min 0,000 mm 0,0 UV-I 0 W/m 9,4 C 8,2 C 16,1 km/h (3 Bft) 97,14 %
17.10.2016 00:28 10,9 C 90 % 1022,2 hPa 0,0 l/m 10,9 km/h (2 Bft) NO 46 0 min 0,000 mm 0,0 UV-I 0 W/m 9,3 C 8,1 C 16,1 km/h (3 Bft) 97,87 %
17.10.2016 00:30 10,9 C 90 % 1022,2 hPa 0,0 l/m 9,8 km/h (2 Bft) NO 44 0 min 0,000 mm 0,0 UV-I 0 W/m 9,3 C 8,7 C 14,5 km/h (3 Bft) 97,87 %
17.10.2016 00:32 10,8 C 90 % 1022,2 hPa 0,0 l/m 9,9 km/h (2 Bft) NO 53 0 min 0,000 mm 0,0 UV-I 0 W/m 9,2 C 8,5 C 16,1 km/h (3 Bft) 100,00 %
17.10.2016 00:34 10,8 C 91 % 1022,2 hPa 0,0 l/m 12,1 km/h (2 Bft) O-NO 72 0 min 0,000 mm 0,0 UV-I 0 W/m 9,4 C 7,4 C 17,7 km/h (3 Bft) 100,00 %
17.10.2016 00:36 10,8 C 91 % 1022,2 hPa 0,0 l/m 13,1 km/h (3 Bft) NO 45 0 min 0,000 mm 0,0 UV-I 0 W/m 9,4 C 6,9 C 22,5 km/h (4 Bft) 100,00 %
17.10.2016 00:38 10,8 C 91 % 1022,1 hPa 0,0 l/m 13,3 km/h (3 Bft) NO 55 0 min 0,000 mm 0,0 UV-I 0 W/m 9,4 C 6,8 C 20,9 km/h (4 Bft) 97,87 %
17.10.2016 00:40 10,8 C 91 % 1022,2 hPa 0,0 l/m 10,6 km/h (2 Bft) O 80 0 min 0,000 mm 0,0 UV-I 0 W/m 9,4 C 8,2 C 14,5 km/h (3 Bft) 97,87 %
17.10.2016 00:42 10,8 C 91 % 1022,2 hPa 0,0 l/m 12,5 km/h (3 Bft) O 85 0 min 0,000 mm 0,0 UV-I 0 W/m 9,4 C 7,2 C 16,1 km/h (3 Bft) 100,00 %
17.10.2016 00:44 10,8 C 91 % 1022,2 hPa 0,0 l/m 11,5 km/h (2 Bft) NO 49 0 min 0,000 mm 0,0 UV-I 0 W/m 9,4 C 7,7 C 16,1 km/h (3 Bft) 97,87 %
17.10.2016 00:46 10,8 C 91 % 1022,2 hPa 0,0 l/m 12,7 km/h (3 Bft) O-NO 62 0 min 0,000 mm 0,0 UV-I 0 W/m 9,4 C 7,1 C 17,7 km/h (3 Bft) 97,92 %
17.10.2016 00:48 10,8 C 91 % 1022,2 hPa 0,0 l/m 9,7 km/h (2 Bft) O-NO 76 0 min 0,000 mm 0,0 UV-I 0 W/m 9,4 C 8,6 C 14,5 km/h (3 Bft) 100,00 %
17.10.2016 00:50 10,7 C 91 % 1022,2 hPa 0,0 l/m 9,1 km/h (2 Bft) O-NO 73 0 min 0,000 mm 0,0 UV-I 0 W/m 9,3 C 8,9 C 14,5 km/h (3 Bft) 100,00 %
17.10.2016 00:52 10,7 C 91 % 1022,2 hPa 0,0 l/m 8,5 km/h (2 Bft) O-NO 61 0 min 0,000 mm 0,0 UV-I 0 W/m 9,3 C 9,3 C 12,9 km/h (3 Bft) 100,00 %
17.10.2016 00:54 10,7 C 91 % 1022,2 hPa 0,0 l/m 10,7 km/h (2 Bft) O-NO 67 0 min 0,000 mm 0,0 UV-I 0 W/m 9,3 C 8,0 C 19,3 km/h (3 Bft) 100,00 %
17.10.2016 00:56 10,7 C 91 % 1022,2 hPa 0,0 l/m 12,3 km/h (3 Bft) O-NO 72 0 min 0,000 mm 0,0 UV-I 0 W/m 9,3 C 7,2 C 20,9 km/h (4 Bft) 97,87 %
17.10.2016 00:58 10,7 C 91 % 1022,2 hPa 0,0 l/m 12,3 km/h (3 Bft) O-NO 75 0 min 0,000 mm 0,0 UV-I 0 W/m 9,3 C 7,2 C 22,5 km/h (4 Bft) 97,87 %
17.10.2016 01:00 10,7 C 91 % 1022,2 hPa 0,0 l/m 11,2 km/h (2 Bft) NO 51 0 min 0,025 mm 0,0 UV-I 0 W/m 9,3 C 7,7 C 16,1 km/h (3 Bft) 100,00 %
17.10.2016 01:01 10,7 C 91 % 1022,1 hPa 0,0 l/m 10,6 km/h (2 Bft) O-NO 61 0 min 0,000 mm 0,0 UV-I 0 W/m 9,3 C 8,0 C 16,1 km/h (3 Bft) 97,87 %
17.10.2016 01:04 10,6 C 91 % 1022,1 hPa 0,0 l/m 11,2 km/h (2 Bft) NO 55 0 min 0,000 mm 0,0 UV-I 0 W/m 9,2 C 7,6 C 17,7 km/h (3 Bft) 100,00 %
17.10.2016 01:06 10,6 C 91 % 1022,1 hPa 0,0 l/m 9,2 km/h (2 Bft) O-NO 72 0 min 0,000 mm 0,0 UV-I 0 W/m 9,2 C 8,7 C 14,5 km/h (3 Bft) 100,00 %
17.10.2016 01:08 10,6 C 92 % 1022,1 hPa 0,0 l/m 11,7 km/h (2 Bft) O-NO 74 0 min 0,000 mm 0,0 UV-I 0 W/m 9,4 C 7,4 C 17,7 km/h (3 Bft) 97,87 %
17.10.2016 01:10 10,5 C 92 % 1022,1 hPa 0,0 l/m 11,2 km/h (2 Bft) O-NO 68 0 min 0,000 mm 0,0 UV-I 0 W/m 9,3 C 7,5 C 16,1 km/h (3 Bft) 97,37 %
17.10.2016 01:12 10,5 C 92 % 1022,1 hPa 0,0 l/m 9,0 km/h (2 Bft) O-NO 71 0 min 0,000 mm 0,0 UV-I 0 W/m 9,3 C 8,7 C 12,9 km/h (3 Bft) 100,00 %
17.10.2016 01:14 10,5 C 92 % 1022,1 hPa 0,0 l/m 10,6 km/h (2 Bft) O-NO 59 0 min 0,000 mm 0,0 UV-I 0 W/m 9,3 C 7,8 C 16,1 km/h (3 Bft) 100,00 %
17.10.2016 01:16 10,5 C 92 % 1022,1 hPa 0,0 l/m 10,6 km/h (2 Bft) O-NO 63 0 min 0,000 mm 0,0 UV-I 0 W/m 9,3 C 7,8 C 16,1 km/h (3 Bft) 100,00 %
17.10.2016 01:18 10,4 C 92 % 1022,1 hPa 0,0 l/m 10,2 km/h (2 Bft) O-NO 63 0 min 0,000 mm 0,0 UV-I 0 W/m 9,2 C 7,9 C 14,5 km/h (3 Bft) 100,00 %
17.10.2016 01:20 10,4 C 92 % 1022,2 hPa 0,0 l/m 9,8 km/h (2 Bft) O-NO 57 0 min 0,000 mm 0,0 UV-I 0 W/m 9,2 C 8,2 C 14,5 km/h (3 Bft) 97,87 %
17.10.2016 01:22 10,4 C 92 % 1022,2 hPa 0,0 l/m 11,1 km/h (2 Bft) O-NO 58 0 min 0,000 mm 0,0 UV-I 0 W/m 9,2 C 7,4 C 17,7 km/h (3 Bft) 100,00 %
17.10.2016 01:24 10,4 C 92 % 1022,1 hPa 0,0 l/m 9,2 km/h (2 Bft) NO 56 0 min 0,000 mm 0,0 UV-I 0 W/m 9,2 C 8,5 C 14,5 km/h (3 Bft) 100,00 %
17.10.2016 01:26 10,4 C 92 % 1022,1 hPa 0,0 l/m 9,5 km/h (2 Bft) NO 55 0 min 0,000 mm 0,0 UV-I 0 W/m 9,2 C 8,3 C 16,1 km/h (3 Bft) 100,00 %
17.10.2016 01:28 10,4 C 92 % 1022,1 hPa 0,0 l/m 9,4 km/h (2 Bft) NO 54 0 min 0,000 mm 0,0 UV-I 0 W/m 9,2 C 8,4 C 14,5 km/h (3 Bft) 100,00 %
17.10.2016 01:30 10,4 C 92 % 1022,1 hPa 0,0 l/m 9,8 km/h (2 Bft) NO 44 0 min 0,000 mm 0,0 UV-I 0 W/m 9,2 C 8,2 C 14,5 km/h (3 Bft) 100,00 %
17.10.2016 01:32 10,3 C 92 % 1022,1 hPa 0,0 l/m 9,0 km/h (2 Bft) NO 48 0 min 0,000 mm 0,0 UV-I 0 W/m 9,1 C 8,5 C 14,5 km/h (3 Bft) 97,87 %
17.10.2016 01:34 10,3 C 92 % 1022,1 hPa 0,0 l/m 10,9 km/h (2 Bft) NO 47 0 min 0,000 mm 0,0 UV-I 0 W/m 9,1 C 7,4 C 14,5 km/h (3 Bft) 100,00 %
17.10.2016 01:36 10,3 C 92 % 1022,1 hPa 0,0 l/m 7,1 km/h (2 Bft) NO 50 0 min 0,000 mm 0,0 UV-I 0 W/m 9,1 C 9,8 C 9,7 km/h (2 Bft) 100,00 %
17.10.2016 01:38 10,2 C 92 % 1022,1 hPa 0,0 l/m 8,0 km/h (2 Bft) O-NO 67 0 min 0,000 mm 0,0 UV-I 0 W/m 9,0 C 9,1 C 12,9 km/h (3 Bft) 100,00 %
17.10.2016 01:40 10,2 C 92 % 1022,1 hPa 0,0 l/m 8,0 km/h (2 Bft) NO 55 0 min 0,000 mm 0,0 UV-I 0 W/m 9,0 C 9,1 C 11,3 km/h (2 Bft) 100,00 %
17.10.2016 01:42 10,1 C 92 % 1022,1 hPa 0,0 l/m 6,9 km/h (2 Bft) O-NO 61 0 min 0,000 mm 0,0 UV-I 0 W/m 8,9 C 9,7 C 9,7 km/h (2 Bft) 97,87 %
17.10.2016 01:44 10,1 C 92 % 1022,0 hPa 0,0 l/m 8,2 km/h (2 Bft) O-NO 59 0 min 0,000 mm 0,0 UV-I 0 W/m 8,9 C 8,8 C 12,9 km/h (3 Bft) 100,00 %
17.10.2016 01:46 10,0 C 92 % 1022,1 hPa 0,0 l/m 7,3 km/h (2 Bft) O-NO 68 0 min 0,000 mm 0,0 UV-I 0 W/m 8,8 C 9,3 C 11,3 km/h (2 Bft) 93,62 %
17.10.2016 01:48 9,9 C 93 % 1022,1 hPa 0,0 l/m 9,1 km/h (2 Bft) NO 46 0 min 0,000 mm 0,0 UV-I 0 W/m 8,8 C 8,0 C 16,1 km/h (3 Bft) 97,87 %
17.10.2016 01:50 9,9 C 93 % 1022,1 hPa 0,0 l/m 8,6 km/h (2 Bft) NO 43 0 min 0,000 mm 0,0 UV-I 0 W/m 8,8 C 8,3 C 14,5 km/h (3 Bft) 97,87 %
17.10.2016 01:52 9,9 C 93 % 1022,1 hPa 0,0 l/m 7,8 km/h (2 Bft) O-NO 65 0 min 0,000 mm 0,0 UV-I 0 W/m 8,8 C 8,9 C 12,9 km/h (3 Bft) 96,00 %
17.10.2016 01:54 9,9 C 93 % 1022,2 hPa 0,0 l/m 8,4 km/h (2 Bft) NO 48 0 min 0,000 mm 0,0 UV-I 0 W/m 8,8 C 8,5 C 12,9 km/h (3 Bft) 95,74 %
17.10.2016 01:56 9,8 C 93 % 1022,2 hPa 0,0 l/m 7,9 km/h (2 Bft) O-NO 63 0 min 0,000 mm 0,0 UV-I 0 W/m 8,7 C 8,7 C 12,9 km/h (3 Bft) 96,00 %
17.10.2016 01:58 9,8 C 93 % 1022,2 hPa 0,0 l/m 6,6 km/h (2 Bft) O-NO 57 0 min 0,000 mm 0,0 UV-I 0 W/m 8,7 C 9,7 C 9,7 km/h (2 Bft) 95,74 %
17.10.2016 02:00 9,8 C 93 % 1022,2 hPa 0,0 l/m 7,8 km/h (2 Bft) O-NO 59 0 min 0,000 mm 0,0 UV-I 0 W/m 8,7 C 8,8 C 12,9 km/h (3 Bft) 97,92 %
17.10.2016 02:02 9,8 C 93 % 1022,3 hPa 0,0 l/m 6,1 km/h (2 Bft) N-NO 33 0 min 0,000 mm 0,0 UV-I 0 W/m 8,7 C 9,8 C 9,7 km/h (2 Bft) 97,83 %
17.10.2016 02:04 9,8 C 93 % 1022,2 hPa 0,0 l/m 6,0 km/h (2 Bft) NO 49 0 min 0,000 mm 0,0 UV-I 0 W/m 8,7 C 9,8 C 8,0 km/h (2 Bft) 91,49 %
17.10.2016 02:06 9,8 C 93 % 1022,2 hPa 0,0 l/m 5,6 km/h (1 Bft) NO 56 0 min 0,000 mm 0,0 UV-I 0 W/m 8,7 C 9,8 C 8,0 km/h (2 Bft) 95,74 %
17.10.2016 02:08 9,8 C 93 % 1022,2 hPa 0,0 l/m 6,3 km/h (2 Bft) O-NO 69 0 min 0,000 mm 0,0 UV-I 0 W/m 8,7 C 9,8 C 9,7 km/h (2 Bft) 97,87 %
17.10.2016 02:10 9,7 C 93 % 1022,2 hPa 0,0 l/m 4,9 km/h (1 Bft) NO 55 0 min 0,000 mm 0,0 UV-I 0 W/m 8,6 C 9,7 C 6,4 km/h (2 Bft) 97,92 %
17.10.2016 02:12 9,7 C 93 % 1022,2 hPa 0,0 l/m 5,4 km/h (1 Bft) NO 56 0 min 0,000 mm 0,0 UV-I 0 W/m 8,6 C 9,7 C 8,0 km/h (2 Bft) 94,74 %
17.10.2016 02:14 9,6 C 93 % 1022,2 hPa 0,0 l/m 4,8 km/h (1 Bft) NO 44 0 min 0,000 mm 0,0 UV-I 0 W/m 8,5 C 9,6 C 6,4 km/h (2 Bft) 96,15 %
17.10.2016 02:16 9,6 C 93 % 1022,2 hPa 0,0 l/m 4,3 km/h (1 Bft) NO 53 0 min 0,000 mm 0,0 UV-I 0 W/m 8,5 C 9,6 C 8,0 km/h (2 Bft) 97,87 %
17.10.2016 02:18 9,6 C 94 % 1022,2 hPa 0,0 l/m 5,7 km/h (1 Bft) O-NO 70 0 min 0,000 mm 0,0 UV-I 0 W/m 8,7 C 9,6 C 9,7 km/h (2 Bft) 95,74 %
17.10.2016 02:20 9,6 C 94 % 1022,2 hPa 0,0 l/m 6,1 km/h (2 Bft) NO 56 0 min 0,000 mm 0,0 UV-I 0 W/m 8,7 C 9,6 C 9,7 km/h (2 Bft) 100,00 %
17.10.2016 02:22 9,6 C 94 % 1022,3 hPa 0,0 l/m 6,1 km/h (2 Bft) O-NO 62 0 min 0,000 mm 0,0 UV-I 0 W/m 8,7 C 9,6 C 8,0 km/h (2 Bft) 100,00 %
17.10.2016 02:24 9,6 C 94 % 1022,3 hPa 0,0 l/m 4,9 km/h (1 Bft) N-NO 28 0 min 0,000 mm 0,0 UV-I 0 W/m 8,7 C 9,6 C 8,0 km/h (2 Bft) 100,00 %
17.10.2016 02:26 9,5 C 94 % 1022,3 hPa 0,0 l/m 4,3 km/h (1 Bft) NO 47 0 min 0,000 mm 0,0 UV-I 0 W/m 8,6 C 9,5 C 8,0 km/h (2 Bft) 97,87 %
17.10.2016 02:28 9,5 C 94 % 1022,3 hPa 0,0 l/m 5,9 km/h (2 Bft) NO 53 0 min 0,000 mm 0,0 UV-I 0 W/m 8,6 C 9,5 C 8,0 km/h (2 Bft) 97,87 %
17.10.2016 02:30 9,5 C 94 % 1022,2 hPa 0,0 l/m 5,9 km/h (2 Bft) O-NO 59 0 min 0,000 mm 0,0 UV-I 0 W/m 8,6 C 9,5 C 9,7 km/h (2 Bft) 100,00 %
17.10.2016 02:32 9,4 C 94 % 1022,2 hPa 0,0 l/m 6,9 km/h (2 Bft) O-NO 63 0 min 0,000 mm 0,0 UV-I 0 W/m 8,5 C 9,0 C 9,7 km/h (2 Bft) 100,00 %
17.10.2016 02:34 9,4 C 94 % 1022,2 hPa 0,0 l/m 7,0 km/h (2 Bft) NO 43 0 min 0,000 mm 0,0 UV-I 0 W/m 8,5 C 9,0 C 11,3 km/h (2 Bft) 100,00 %
17.10.2016 02:36 9,4 C 94 % 1022,2 hPa 0,0 l/m 7,2 km/h (2 Bft) NO 55 0 min 0,000 mm 0,0 UV-I 0 W/m 8,5 C 8,8 C 9,7 km/h (2 Bft) 100,00 %
17.10.2016 02:38 9,4 C 94 % 1022,2 hPa 0,0 l/m 6,5 km/h (2 Bft) O 79 0 min 0,000 mm 0,0 UV-I 0 W/m 8,5 C 9,4 C 11,3 km/h (2 Bft) 100,00 %
17.10.2016 02:40 9,4 C 94 % 1022,3 hPa 0,0 l/m 7,3 km/h (2 Bft) O-NO 74 0 min 0,000 mm 0,0 UV-I 0 W/m 8,5 C 8,7 C 11,3 km/h (2 Bft) 100,00 %
17.10.2016 02:42 9,3 C 94 % 1022,2 hPa 0,0 l/m 7,2 km/h (2 Bft) NO 51 0 min 0,000 mm 0,0 UV-I 0 W/m 8,4 C 8,7 C 11,3 km/h (2 Bft) 97,92 %
17.10.2016 02:44 9,3 C 94 % 1022,2 hPa 0,0 l/m 7,9 km/h (2 Bft) O-NO 67 0 min 0,000 mm 0,0 UV-I 0 W/m 8,4 C 8,2 C 12,9 km/h (3 Bft) 100,00 %
17.10.2016 02:46 9,3 C 94 % 1022,2 hPa 0,0 l/m 7,2 km/h (2 Bft) O-NO 64 0 min 0,000 mm 0,0 UV-I 0 W/m 8,4 C 8,7 C 12,9 km/h (3 Bft) 100,00 %
17.10.2016 02:48 9,3 C 94 % 1022,2 hPa 0,0 l/m 7,8 km/h (2 Bft) O-NO 59 0 min 0,000 mm 0,0 UV-I 0 W/m 8,4 C 8,3 C 12,9 km/h (3 Bft) 100,00 %
17.10.2016 02:50 9,4 C 94 % 1022,2 hPa 0,0 l/m 8,0 km/h (2 Bft) NO 50 0 min 0,000 mm 0,0 UV-I 0 W/m 8,5 C 8,2 C 14,5 km/h (3 Bft) 96,08 %
17.10.2016 02:52 9,4 C 95 % 1022,2 hPa 0,0 l/m 9,3 km/h (2 Bft) NO 47 0 min 0,000 mm 0,0 UV-I 0 W/m 8,6 C 7,4 C 12,9 km/h (3 Bft) 100,00 %
17.10.2016 02:54 9,4 C 94 % 1022,2 hPa 0,0 l/m 8,0 km/h (2 Bft) NO 56 0 min 0,000 mm 0,0 UV-I 0 W/m 8,5 C 8,2 C 12,9 km/h (3 Bft) 100,00 %
17.10.2016 02:56 9,4 C 94 % 1022,2 hPa 0,0 l/m 6,5 km/h (2 Bft) NO 52 0 min 0,000 mm 0,0 UV-I 0 W/m 8,5 C 9,4 C 9,7 km/h (2 Bft) 100,00 %
17.10.2016 02:58 9,4 C 94 % 1022,2 hPa 0,0 l/m 6,3 km/h (2 Bft) O-NO 62 0 min 0,000 mm 0,0 UV-I 0 W/m 8,5 C 9,4 C 9,7 km/h (2 Bft) 100,00 %
17.10.2016 03:00 9,4 C 94 % 1022,2 hPa 0,0 l/m 4,5 km/h (1 Bft) O-NO 63 0 min 0,000 mm 0,0 UV-I 0 W/m 8,5 C 9,4 C 8,0 km/h (2 Bft) 100,00 %
17.10.2016 03:02 9,4 C 94 % 1022,2 hPa 0,0 l/m 6,2 km/h (2 Bft) NO 40 0 min 0,000 mm 0,0 UV-I 0 W/m 8,5 C 9,4 C 8,0 km/h (2 Bft) 97,87 %
17.10.2016 03:04 9,3 C 94 % 1022,2 hPa 0,0 l/m 5,6 km/h (1 Bft) NO 40 0 min 0,000 mm 0,0 UV-I 0 W/m 8,4 C 9,3 C 8,0 km/h (2 Bft) 100,00 %
17.10.2016 03:06 9,3 C 94 % 1022,2 hPa 0,0 l/m 6,0 km/h (2 Bft) O-NO 60 0 min 0,000 mm 0,0 UV-I 0 W/m 8,4 C 9,3 C 9,7 km/h (2 Bft) 100,00 %
17.10.2016 03:08 9,3 C 94 % 1022,2 hPa 0,0 l/m 5,9 km/h (2 Bft) NO 43 0 min 0,000 mm 0,0 UV-I 0 W/m 8,4 C 9,3 C 9,7 km/h (2 Bft) 100,00 %
17.10.2016 03:10 9,4 C 95 % 1022,2 hPa 0,0 l/m 7,5 km/h (2 Bft) O-NO 61 0 min 0,000 mm 0,0 UV-I 0 W/m 8,6 C 8,6 C 11,3 km/h (2 Bft) 100,00 %
17.10.2016 03:12 9,3 C 94 % 1022,2 hPa 0,0 l/m 8,0 km/h (2 Bft) O-NO 61 0 min 0,000 mm 0,0 UV-I 0 W/m 8,4 C 8,1 C 14,5 km/h (3 Bft) 100,00 %
17.10.2016 03:14 9,4 C 95 % 1022,2 hPa 0,0 l/m 8,4 km/h (2 Bft) NO 56 0 min 0,000 mm 0,0 UV-I 0 W/m 8,6 C 7,9 C 11,3 km/h (2 Bft) 98,00 %
17.10.2016 03:16 9,4 C 95 % 1022,2 hPa 0,0 l/m 9,6 km/h (2 Bft) O-NO 65 0 min 0,000 mm 0,0 UV-I 0 W/m 8,6 C 7,2 C 14,5 km/h (3 Bft) 100,00 %
17.10.2016 03:18 9,4 C 94 % 1022,2 hPa 0,0 l/m 8,4 km/h (2 Bft) O-NO 61 0 min 0,000 mm 0,0 UV-I 0 W/m 8,5 C 7,9 C 11,3 km/h (2 Bft) 100,00 %
17.10.2016 03:20 9,4 C 94 % 1022,1 hPa 0,0 l/m 9,1 km/h (2 Bft) NO 40 0 min 0,000 mm 0,0 UV-I 0 W/m 8,5 C 7,5 C 14,5 km/h (3 Bft) 98,00 %
17.10.2016 03:22 9,4 C 95 % 1022,2 hPa 0,0 l/m 8,6 km/h (2 Bft) O-NO 59 0 min 0,000 mm 0,0 UV-I 0 W/m 8,6 C 7,8 C 12,9 km/h (3 Bft) 100,00 %
17.10.2016 03:24 9,4 C 95 % 1022,2 hPa 0,0 l/m 7,9 km/h (2 Bft) NO 40 0 min 0,000 mm 0,0 UV-I 0 W/m 8,6 C 8,3 C 12,9 km/h (3 Bft) 100,00 %
17.10.2016 03:26 9,5 C 95 % 1022,1 hPa 0,0 l/m 7,4 km/h (2 Bft) NO 55 0 min 0,000 mm 0,0 UV-I 0 W/m 8,7 C 8,8 C 12,9 km/h (3 Bft) 97,87 %
17.10.2016 03:28 9,5 C 94 % 1022,1 hPa 0,0 l/m 9,9 km/h (2 Bft) NO 53 0 min 0,000 mm 0,0 UV-I 0 W/m 8,6 C 7,1 C 14,5 km/h (3 Bft) 100,00 %
17.10.2016 03:30 9,5 C 94 % 1022,1 hPa 0,0 l/m 8,4 km/h (2 Bft) NO 42 0 min 0,000 mm 0,0 UV-I 0 W/m 8,6 C 8,1 C 14,5 km/h (3 Bft) 95,74 %
17.10.2016 03:32 9,5 C 94 % 1022,0 hPa 0,0 l/m 7,2 km/h (2 Bft) O-NO 63 0 min 0,000 mm 0,0 UV-I 0 W/m 8,6 C 8,9 C 9,7 km/h (2 Bft) 97,87 %
17.10.2016 03:34 9,4 C 94 % 1022,0 hPa 0,0 l/m 6,6 km/h (2 Bft) NO 50 0 min 0,000 mm 0,0 UV-I 0 W/m 8,5 C 9,3 C 9,7 km/h (2 Bft) 100,00 %
17.10.2016 03:36 9,4 C 94 % 1022,1 hPa 0,0 l/m 6,4 km/h (2 Bft) NO 46 0 min 0,000 mm 0,0 UV-I 0 W/m 8,5 C 9,4 C 14,5 km/h (3 Bft) 100,00 %
17.10.2016 03:38 9,4 C 94 % 1022,1 hPa 0,0 l/m 6,7 km/h (2 Bft) O-NO 63 0 min 0,000 mm 0,0 UV-I 0 W/m 8,5 C 9,2 C 12,9 km/h (3 Bft) 100,00 %
17.10.2016 03:40 9,3 C 94 % 1022,1 hPa 0,0 l/m 6,4 km/h (2 Bft) NO 56 0 min 0,000 mm 0,0 UV-I 0 W/m 8,4 C 9,3 C 9,7 km/h (2 Bft) 100,00 %
17.10.2016 03:42 9,3 C 95 % 1022,1 hPa 0,0 l/m 5,1 km/h (1 Bft) O-NO 60 0 min 0,000 mm 0,0 UV-I 0 W/m 8,5 C 9,3 C 8,0 km/h (2 Bft) 100,00 %
17.10.2016 03:44 9,3 C 95 % 1022,1 hPa 0,0 l/m 7,4 km/h (2 Bft) O-NO 64 0 min 0,000 mm 0,0 UV-I 0 W/m 8,5 C 8,6 C 11,3 km/h (2 Bft) 100,00 %
17.10.2016 03:46 9,3 C 95 % 1022,1 hPa 0,0 l/m 11,2 km/h (2 Bft) NO 53 0 min 0,000 mm 0,0 UV-I 0 W/m 8,5 C 6,1 C 17,7 km/h (3 Bft) 97,87 %
17.10.2016 03:48 9,3 C 95 % 1022,1 hPa 0,0 l/m 8,7 km/h (2 Bft) NO 53 0 min 0,000 mm 0,0 UV-I 0 W/m 8,5 C 7,6 C 14,5 km/h (3 Bft) 97,87 %
17.10.2016 03:50 9,4 C 95 % 1022,1 hPa 0,0 l/m 9,5 km/h (2 Bft) NO 49 0 min 0,000 mm 0,0 UV-I 0 W/m 8,6 C 7,2 C 16,1 km/h (3 Bft) 97,87 %
17.10.2016 03:52 9,4 C 95 % 1022,1 hPa 0,0 l/m 11,0 km/h (2 Bft) O-NO 62 0 min 0,000 mm 0,0 UV-I 0 W/m 8,6 C 6,4 C 17,7 km/h (3 Bft) 97,87 %
17.10.2016 03:54 9,4 C 95 % 1022,1 hPa 0,0 l/m 11,6 km/h (2 Bft) O-NO 61 0 min 0,000 mm 0,0 UV-I 0 W/m 8,6 C 6,0 C 17,7 km/h (3 Bft) 97,92 %
17.10.2016 03:56 9,4 C 95 % 1022,0 hPa 0,0 l/m 10,1 km/h (2 Bft) NO 43 0 min 0,000 mm 0,0 UV-I 0 W/m 8,6 C 6,9 C 14,5 km/h (3 Bft) 95,74 %
17.10.2016 03:58 9,4 C 95 % 1022,1 hPa 0,0 l/m 8,7 km/h (2 Bft) O-NO 61 0 min 0,000 mm 0,0 UV-I 0 W/m 8,6 C 7,7 C 14,5 km/h (3 Bft) 98,00 %
17.10.2016 04:00 9,4 C 95 % 1022,1 hPa 0,0 l/m 9,2 km/h (2 Bft) NO 49 0 min 0,000 mm 0,0 UV-I 0 W/m 8,6 C 7,4 C 14,5 km/h (3 Bft) 97,22 %
17.10.2016 04:02 9,4 C 95 % 1022,1 hPa 0,0 l/m 9,6 km/h (2 Bft) O-NO 78 0 min 0,000 mm 0,0 UV-I 0 W/m 8,6 C 7,2 C 11,3 km/h (2 Bft) 96,30 %
17.10.2016 04:04 9,4 C 95 % 1022,1 hPa 0,0 l/m 11,4 km/h (2 Bft) NO 53 0 min 0,000 mm 0,0 UV-I 0 W/m 8,6 C 6,1 C 17,7 km/h (3 Bft) 95,74 %
17.10.2016 04:06 9,4 C 95 % 1022,1 hPa 0,0 l/m 10,1 km/h (2 Bft) O-NO 58 0 min 0,000 mm 0,0 UV-I 0 W/m 8,6 C 6,9 C 16,1 km/h (3 Bft) 97,87 %
17.10.2016 04:08 9,4 C 95 % 1022,1 hPa 0,0 l/m 11,6 km/h (2 Bft) O-NO 63 0 min 0,000 mm 0,0 UV-I 0 W/m 8,6 C 6,0 C 17,7 km/h (3 Bft) 97,87 %
17.10.2016 04:10 9,4 C 95 % 1022,1 hPa 0,0 l/m 17,7 km/h (3 Bft) O-NO 67 0 min 0,000 mm 0,0 UV-I 0 W/m 8,6 C 3,3 C 29,0 km/h (5 Bft) 97,87 %
17.10.2016 04:12 9,5 C 95 % 1022,1 hPa 0,0 l/m 17,4 km/h (3 Bft) O-NO 76 0 min 0,000 mm 0,0 UV-I 0 W/m 8,7 C 3,6 C 24,1 km/h (4 Bft) 98,00 %
17.10.2016 04:14 9,6 C 95 % 1022,1 hPa 0,0 l/m 15,3 km/h (3 Bft) O 79 0 min 0,000 mm 0,0 UV-I 0 W/m 8,8 C 4,5 C 22,5 km/h (4 Bft) 97,87 %
17.10.2016 04:16 9,6 C 95 % 1022,0 hPa 0,0 l/m 15,7 km/h (3 Bft) NO 48 0 min 0,000 mm 0,0 UV-I 0 W/m 8,8 C 4,4 C 22,5 km/h (4 Bft) 95,74 %
17.10.2016 04:18 9,6 C 95 % 1022,0 hPa 0,0 l/m 22,8 km/h (4 Bft) NO 55 0 min 0,000 mm 0,0 UV-I 0 W/m 8,8 C 1,9 C 33,8 km/h (5 Bft) 97,87 %
17.10.2016 04:20 9,7 C 95 % 1022,1 hPa 0,0 l/m 20,3 km/h (4 Bft) O-NO 76 0 min 0,000 mm 0,0 UV-I 0 W/m 8,9 C 2,8 C 25,7 km/h (4 Bft) 100,00 %
17.10.2016 04:22 9,7 C 95 % 1022,1 hPa 0,0 l/m 19,4 km/h (3 Bft) NO 53 0 min 0,000 mm 0,0 UV-I 0 W/m 8,9 C 3,1 C 25,7 km/h (4 Bft) 95,74 %
17.10.2016 04:24 9,7 C 95 % 1022,1 hPa 0,0 l/m 18,1 km/h (3 Bft) O-NO 67 0 min 0,000 mm 0,0 UV-I 0 W/m 8,9 C 3,6 C 25,7 km/h (4 Bft) 97,87 %
17.10.2016 04:26 9,7 C 95 % 1022,1 hPa 0,0 l/m 15,7 km/h (3 Bft) O 90 0 min 0,000 mm 0,0 UV-I 0 W/m 8,9 C 4,5 C 24,1 km/h (4 Bft) 100,00 %
17.10.2016 04:28 9,8 C 95 % 1022,1 hPa 0,0 l/m 14,9 km/h (3 Bft) NO 45 0 min 0,000 mm 0,0 UV-I 0 W/m 9,0 C 4,9 C 20,9 km/h (4 Bft) 100,00 %
17.10.2016 04:30 9,7 C 95 % 1022,1 hPa 0,0 l/m 17,6 km/h (3 Bft) NO 55 0 min 0,000 mm 0,0 UV-I 0 W/m 8,9 C 3,7 C 24,1 km/h (4 Bft) 97,87 %
17.10.2016 04:32 9,8 C 95 % 1022,1 hPa 0,0 l/m 17,4 km/h (3 Bft) O-NO 60 0 min 0,000 mm 0,0 UV-I 0 W/m 9,0 C 3,9 C 25,7 km/h (4 Bft) 97,87 %
17.10.2016 04:34 9,8 C 95 % 1022,1 hPa 0,0 l/m 16,9 km/h (3 Bft) O 84 0 min 0,000 mm 0,0 UV-I 0 W/m 9,0 C 4,1 C 22,5 km/h (4 Bft) 97,87 %
17.10.2016 04:36 9,8 C 95 % 1022,1 hPa 0,0 l/m 13,9 km/h (3 Bft) NO 40 0 min 0,000 mm 0,0 UV-I 0 W/m 9,0 C 5,4 C 22,5 km/h (4 Bft) 100,00 %
17.10.2016 04:38 9,8 C 95 % 1022,1 hPa 0,0 l/m 12,4 km/h (3 Bft) O 90 0 min 0,000 mm 0,0 UV-I 0 W/m 9,0 C 6,1 C 19,3 km/h (3 Bft) 100,00 %
17.10.2016 04:40 9,8 C 95 % 1022,1 hPa 0,0 l/m 12,5 km/h (3 Bft) O-NO 62 0 min 0,000 mm 0,0 UV-I 0 W/m 9,0 C 6,0 C 19,3 km/h (3 Bft) 97,87 %
17.10.2016 04:42 9,8 C 95 % 1022,1 hPa 0,0 l/m 14,8 km/h (3 Bft) O-NO 63 0 min 0,000 mm 0,0 UV-I 0 W/m 9,0 C 5,0 C 20,9 km/h (4 Bft) 100,00 %
17.10.2016 04:44 9,8 C 95 % 1022,1 hPa 0,0 l/m 14,7 km/h (3 Bft) NO 51 0 min 0,000 mm 0,0 UV-I 0 W/m 9,0 C 5,0 C 19,3 km/h (3 Bft) 97,87 %
17.10.2016 04:46 9,8 C 95 % 1022,2 hPa 0,0 l/m 11,0 km/h (2 Bft) O-NO 62 0 min 0,000 mm 0,0 UV-I 0 W/m 9,0 C 6,8 C 16,1 km/h (3 Bft) 100,00 %
17.10.2016 04:48 9,8 C 95 % 1022,2 hPa 0,0 l/m 12,3 km/h (3 Bft) NO 49 0 min 0,000 mm 0,0 UV-I 0 W/m 9,0 C 6,1 C 19,3 km/h (3 Bft) 100,00 %
17.10.2016 04:50 9,8 C 95 % 1022,2 hPa 0,0 l/m 14,9 km/h (3 Bft) O-NO 78 0 min 0,000 mm 0,0 UV-I 0 W/m 9,0 C 4,9 C 19,3 km/h (3 Bft) 100,00 %
17.10.2016 04:52 9,8 C 95 % 1022,3 hPa 0,0 l/m 10,3 km/h (2 Bft) O-NO 70 0 min 0,000 mm 0,0 UV-I 0 W/m 9,0 C 7,2 C 17,7 km/h (3 Bft) 100,00 %
17.10.2016 04:54 9,8 C 95 % 1022,2 hPa 0,0 l/m 10,1 km/h (2 Bft) O-NO 70 0 min 0,000 mm 0,0 UV-I 0 W/m 9,0 C 7,3 C 17,7 km/h (3 Bft) 97,14 %
17.10.2016 04:56 9,8 C 95 % 1022,2 hPa 0,0 l/m 10,6 km/h (2 Bft) NO 54 0 min 0,000 mm 0,0 UV-I 0 W/m 9,0 C 7,0 C 22,5 km/h (4 Bft) 100,00 %
17.10.2016 04:58 9,8 C 95 % 1022,1 hPa 0,0 l/m 14,7 km/h (3 Bft) O-NO 76 0 min 0,000 mm 0,0 UV-I 0 W/m 9,0 C 5,0 C 22,5 km/h (4 Bft) 97,87 %
17.10.2016 05:00 9,8 C 96 % 1022,1 hPa 0,0 l/m 14,5 km/h (3 Bft) O-NO 57 0 min 0,000 mm 0,0 UV-I 0 W/m 9,2 C 5,1 C 19,3 km/h (3 Bft) 100,00 %
17.10.2016 05:02 9,8 C 96 % 1022,1 hPa 0,0 l/m 14,8 km/h (3 Bft) O-NO 65 0 min 0,000 mm 0,0 UV-I 0 W/m 9,2 C 5,0 C 22,5 km/h (4 Bft) 100,00 %
17.10.2016 05:04 9,8 C 96 % 1022,2 hPa 0,0 l/m 14,5 km/h (3 Bft) O-NO 76 0 min 0,000 mm 0,0 UV-I 0 W/m 9,2 C 5,1 C 19,3 km/h (3 Bft) 100,00 %
17.10.2016 05:06 9,8 C 96 % 1022,2 hPa 0,0 l/m 13,5 km/h (3 Bft) O-NO 61 0 min 0,000 mm 0,0 UV-I 0 W/m 9,2 C 5,6 C 17,7 km/h (3 Bft) 100,00 %
17.10.2016 05:08 9,8 C 96 % 1022,2 hPa 0,0 l/m 14,8 km/h (3 Bft) O 79 0 min 0,000 mm 0,0 UV-I 0 W/m 9,2 C 5,0 C 22,5 km/h (4 Bft) 100,00 %
17.10.2016 05:10 9,8 C 96 % 1022,2 hPa 0,0 l/m 20,4 km/h (4 Bft) O-NO 59 0 min 0,000 mm 0,0 UV-I 0 W/m 9,2 C 2,9 C 30,6 km/h (5 Bft) 96,00 %
17.10.2016 05:12 9,8 C 95 % 1022,2 hPa 0,0 l/m 18,4 km/h (3 Bft) O-NO 71 0 min 0,000 mm 0,0 UV-I 0 W/m 9,0 C 3,6 C 25,7 km/h (4 Bft) 100,00 %
17.10.2016 05:14 9,8 C 96 % 1022,2 hPa 0,0 l/m 19,3 km/h (3 Bft) O-NO 69 0 min 0,000 mm 0,0 UV-I 0 W/m 9,2 C 3,3 C 27,4 km/h (4 Bft) 100,00 %
17.10.2016 05:16 9,8 C 96 % 1022,2 hPa 0,0 l/m 17,1 km/h (3 Bft) O-NO 60 0 min 0,000 mm 0,0 UV-I 0 W/m 9,2 C 4,1 C 24,1 km/h (4 Bft) 100,00 %
17.10.2016 05:18 9,8 C 96 % 1022,2 hPa 0,0 l/m 16,8 km/h (3 Bft) O-NO 67 0 min 0,000 mm 0,0 UV-I 0 W/m 9,2 C 4,2 C 20,9 km/h (4 Bft) 100,00 %
17.10.2016 05:20 9,8 C 96 % 1022,2 hPa 0,0 l/m 14,2 km/h (3 Bft) O 88 0 min 0,000 mm 0,0 UV-I 0 W/m 9,2 C 5,2 C 20,9 km/h (4 Bft) 100,00 %
17.10.2016 05:22 9,8 C 96 % 1022,2 hPa 0,0 l/m 16,3 km/h (3 Bft) O-NO 57 0 min 0,000 mm 0,0 UV-I 0 W/m 9,2 C 4,4 C 24,1 km/h (4 Bft) 100,00 %
17.10.2016 05:24 9,7 C 96 % 1022,2 hPa 0,0 l/m 18,4 km/h (3 Bft) O-NO 69 0 min 0,000 mm 0,0 UV-I 0 W/m 9,1 C 3,4 C 27,4 km/h (4 Bft) 100,00 %
17.10.2016 05:26 9,7 C 95 % 1022,2 hPa 0,0 l/m 21,3 km/h (4 Bft) NO 46 0 min 0,000 mm 0,0 UV-I 0 W/m 8,9 C 2,5 C 27,4 km/h (4 Bft) 100,00 %
17.10.2016 05:28 9,7 C 95 % 1022,3 hPa 0,0 l/m 17,6 km/h (3 Bft) O-NO 57 0 min 0,000 mm 0,0 UV-I 0 W/m 8,9 C 3,7 C 25,7 km/h (4 Bft) 97,87 %
17.10.2016 05:30 9,6 C 95 % 1022,3 hPa 0,0 l/m 21,3 km/h (4 Bft) NO 53 0 min 0,000 mm 0,0 UV-I 0 W/m 8,8 C 2,4 C 27,4 km/h (4 Bft) 100,00 %
17.10.2016 05:32 9,6 C 96 % 1022,3 hPa 0,0 l/m 21,3 km/h (4 Bft) O-NO 67 0 min 0,000 mm 0,0 UV-I 0 W/m 9,0 C 2,4 C 29,0 km/h (5 Bft) 100,00 %
17.10.2016 05:34 9,6 C 96 % 1022,3 hPa 0,0 l/m 18,6 km/h (3 Bft) O-NO 67 0 min 0,000 mm 0,0 UV-I 0 W/m 9,0 C 3,2 C 29,0 km/h (5 Bft) 98,00 %
17.10.2016 05:36 9,5 C 96 % 1022,4 hPa 0,0 l/m 17,0 km/h (3 Bft) O-NO 58 0 min 0,000 mm 0,0 UV-I 0 W/m 8,9 C 3,7 C 22,5 km/h (4 Bft) 100,00 %
17.10.2016 05:38 9,5 C 96 % 1022,4 hPa 0,0 l/m 12,2 km/h (2 Bft) O-NO 73 0 min 0,000 mm 0,0 UV-I 0 W/m 8,9 C 5,8 C 17,7 km/h (3 Bft) 100,00 %
17.10.2016 05:40 9,4 C 96 % 1022,4 hPa 0,0 l/m 17,9 km/h (3 Bft) NO 44 0 min 0,000 mm 0,0 UV-I 0 W/m 8,8 C 3,2 C 24,1 km/h (4 Bft) 97,87 %
17.10.2016 05:42 9,4 C 96 % 1022,3 hPa 0,0 l/m 22,1 km/h (4 Bft) O-NO 76 0 min 0,000 mm 0,0 UV-I 0 W/m 8,8 C 1,8 C 30,6 km/h (5 Bft) 100,00 %
17.10.2016 05:44 9,4 C 96 % 1022,4 hPa 0,0 l/m 19,4 km/h (3 Bft) O-NO 60 0 min 0,000 mm 0,0 UV-I 0 W/m 8,8 C 2,7 C 25,7 km/h (4 Bft) 97,87 %
17.10.2016 05:46 9,4 C 96 % 1022,4 hPa 0,0 l/m 17,4 km/h (3 Bft) O-NO 59 0 min 0,000 mm 0,0 UV-I 0 W/m 8,8 C 3,4 C 25,7 km/h (4 Bft) 95,74 %
17.10.2016 05:48 9,4 C 96 % 1022,4 hPa 0,0 l/m 19,1 km/h (3 Bft) NO 53 0 min 0,000 mm 0,0 UV-I 0 W/m 8,8 C 2,8 C 29,0 km/h (5 Bft) 97,87 %
17.10.2016 05:50 9,4 C 96 % 1022,4 hPa 0,0 l/m 15,4 km/h (3 Bft) O-NO 69 0 min 0,000 mm 0,0 UV-I 0 W/m 8,8 C 4,2 C 22,5 km/h (4 Bft) 97,87 %
17.10.2016 05:52 9,4 C 96 % 1022,4 hPa 0,0 l/m 19,1 km/h (3 Bft) O-SO 105 0 min 0,000 mm 0,0 UV-I 0 W/m 8,8 C 2,8 C 30,6 km/h (5 Bft) 95,74 %
17.10.2016 05:54 9,3 C 96 % 1022,4 hPa 0,0 l/m 18,9 km/h (3 Bft) NO 52 0 min 0,000 mm 0,0 UV-I 0 W/m 8,7 C 2,8 C 24,1 km/h (4 Bft) 95,74 %
17.10.2016 05:56 9,3 C 96 % 1022,4 hPa 0,0 l/m 19,0 km/h (3 Bft) O-NO 63 0 min 0,000 mm 0,0 UV-I 0 W/m 8,7 C 2,7 C 22,5 km/h (4 Bft) 95,83 %
17.10.2016 05:58 9,3 C 96 % 1022,5 hPa 0,0 l/m 19,9 km/h (4 Bft) NO 56 0 min 0,000 mm 0,0 UV-I 0 W/m 8,7 C 2,4 C 27,4 km/h (4 Bft) 95,74 %
17.10.2016 06:00 9,3 C 96 % 1022,5 hPa 0,0 l/m 17,7 km/h (3 Bft) O 80 0 min 0,000 mm 0,0 UV-I 0 W/m 8,7 C 3,2 C 27,4 km/h (4 Bft) 95,74 %
17.10.2016 06:02 9,3 C 96 % 1022,6 hPa 0,0 l/m 16,5 km/h (3 Bft) O-NO 65 0 min 0,000 mm 0,0 UV-I 0 W/m 8,7 C 3,7 C 20,9 km/h (4 Bft) 97,87 %
17.10.2016 06:04 9,3 C 96 % 1022,6 hPa 0,0 l/m 15,6 km/h (3 Bft) O-NO 69 0 min 0,000 mm 0,0 UV-I 0 W/m 8,7 C 4,0 C 22,5 km/h (4 Bft) 94,44 %
17.10.2016 06:06 9,3 C 96 % 1022,6 hPa 0,0 l/m 12,7 km/h (3 Bft) NO 52 0 min 0,000 mm 0,0 UV-I 0 W/m 8,7 C 5,4 C 19,3 km/h (3 Bft) 97,92 %
17.10.2016 06:08 9,3 C 96 % 1022,7 hPa 0,0 l/m 13,9 km/h (3 Bft) O-NO 62 0 min 0,000 mm 0,0 UV-I 0 W/m 8,7 C 4,8 C 20,9 km/h (4 Bft) 96,61 %
17.10.2016 06:10 9,3 C 96 % 1022,7 hPa 0,0 l/m 16,4 km/h (3 Bft) O-NO 65 0 min 0,000 mm 0,0 UV-I 0 W/m 8,7 C 3,7 C 24,1 km/h (4 Bft) 97,14 %
17.10.2016 06:12 9,3 C 96 % 1022,7 hPa 0,0 l/m 16,6 km/h (3 Bft) O-NO 61 0 min 0,000 mm 0,0 UV-I 0 W/m 8,7 C 3,6 C 24,1 km/h (4 Bft) 97,87 %
17.10.2016 06:14 9,3 C 96 % 1022,8 hPa 0,0 l/m 15,6 km/h (3 Bft) NO 53 0 min 0,000 mm 0,0 UV-I 0 W/m 8,7 C 4,0 C 22,5 km/h (4 Bft) 97,87 %
17.10.2016 06:16 9,3 C 96 % 1022,8 hPa 0,0 l/m 13,4 km/h (3 Bft) NO 54 0 min 0,000 mm 0,0 UV-I 0 W/m 8,7 C 5,0 C 17,7 km/h (3 Bft) 96,00 %
17.10.2016 06:18 9,2 C 96 % 1022,8 hPa 0,0 l/m 10,5 km/h (2 Bft) O-NO 59 0 min 0,000 mm 0,0 UV-I 0 W/m 8,6 C 6,4 C 16,1 km/h (3 Bft) 100,00 %
17.10.2016 06:20 9,3 C 96 % 1022,8 hPa 0,0 l/m 10,7 km/h (2 Bft) NO 49 0 min 0,000 mm 0,0 UV-I 0 W/m 8,7 C 6,4 C 16,1 km/h (3 Bft) 100,00 %
17.10.2016 06:22 9,2 C 96 % 1022,8 hPa 0,0 l/m 8,2 km/h (2 Bft) NO 40 0 min 0,000 mm 0,0 UV-I 0 W/m 8,6 C 7,9 C 14,5 km/h (3 Bft) 100,00 %
17.10.2016 06:24 9,2 C 96 % 1022,8 hPa 0,0 l/m 14,3 km/h (3 Bft) O-NO 69 0 min 0,000 mm 0,0 UV-I 0 W/m 8,6 C 4,5 C 20,9 km/h (4 Bft) 98,00 %
17.10.2016 06:26 9,2 C 96 % 1022,8 hPa 0,0 l/m 14,7 km/h (3 Bft) O-NO 67 0 min 0,000 mm 0,0 UV-I 0 W/m 8,6 C 4,3 C 20,9 km/h (4 Bft) 97,87 %
17.10.2016 06:28 9,2 C 96 % 1022,8 hPa 0,0 l/m 15,7 km/h (3 Bft) O-NO 61 0 min 0,000 mm 0,0 UV-I 0 W/m 8,6 C 3,9 C 19,3 km/h (3 Bft) 100,00 %
17.10.2016 06:30 9,2 C 96 % 1022,8 hPa 0,0 l/m 14,0 km/h (3 Bft) NO 46 0 min 0,000 mm 0,0 UV-I 0 W/m 8,6 C 4,6 C 20,9 km/h (4 Bft) 97,37 %
17.10.2016 06:32 9,2 C 96 % 1022,7 hPa 0,0 l/m 12,0 km/h (2 Bft) O 96 0 min 0,000 mm 0,0 UV-I 0 W/m 8,6 C 5,6 C 16,1 km/h (3 Bft) 100,00 %
17.10.2016 06:34 9,2 C 96 % 1022,7 hPa 0,0 l/m 12,3 km/h (3 Bft) O 80 0 min 0,000 mm 0,0 UV-I 0 W/m 8,6 C 5,4 C 19,3 km/h (3 Bft) 98,00 %
17.10.2016 06:36 9,2 C 96 % 1022,7 hPa 0,0 l/m 10,8 km/h (2 Bft) O-NO 64 0 min 0,000 mm 0,0 UV-I 0 W/m 8,6 C 6,2 C 17,7 km/h (3 Bft) 100,00 %
17.10.2016 06:38 9,2 C 96 % 1022,7 hPa 0,0 l/m 9,4 km/h (2 Bft) O-NO 63 0 min 0,000 mm 0,0 UV-I 0 W/m 8,6 C 7,1 C 16,1 km/h (3 Bft) 97,87 %
17.10.2016 06:40 9,2 C 96 % 1022,8 hPa 0,0 l/m 14,6 km/h (3 Bft) O-NO 65 0 min 0,000 mm 0,0 UV-I 0 W/m 8,6 C 4,3 C 20,9 km/h (4 Bft) 100,00 %
17.10.2016 06:42 9,2 C 96 % 1022,8 hPa 0,0 l/m 14,3 km/h (3 Bft) O-NO 59 0 min 0,000 mm 0,0 UV-I 0 W/m 8,6 C 4,5 C 22,5 km/h (4 Bft) 100,00 %
17.10.2016 06:44 9,2 C 96 % 1022,8 hPa 0,0 l/m 9,2 km/h (2 Bft) O-NO 76 0 min 0,000 mm 0,0 UV-I 0 W/m 8,6 C 7,2 C 14,5 km/h (3 Bft) 97,87 %
17.10.2016 06:46 9,2 C 96 % 1022,8 hPa 0,0 l/m 14,5 km/h (3 Bft) O 82 0 min 0,000 mm 0,0 UV-I 0 W/m 8,6 C 4,4 C 19,3 km/h (3 Bft) 100,00 %
17.10.2016 06:48 9,1 C 96 % 1022,8 hPa 0,0 l/m 17,8 km/h (3 Bft) NO 48 0 min 0,000 mm 0,0 UV-I 0 W/m 8,5 C 2,9 C 27,4 km/h (4 Bft) 100,00 %
17.10.2016 06:50 9,2 C 96 % 1022,9 hPa 0,0 l/m 16,3 km/h (3 Bft) O 84 0 min 0,000 mm 0,0 UV-I 0 W/m 8,6 C 3,6 C 22,5 km/h (4 Bft) 100,00 %
17.10.2016 06:52 9,1 C 96 % 1022,8 hPa 0,0 l/m 13,8 km/h (3 Bft) O 82 0 min 0,000 mm 0,0 UV-I 0 W/m 8,5 C 4,6 C 19,3 km/h (3 Bft) 97,87 %
17.10.2016 06:54 9,1 C 96 % 1022,8 hPa 0,0 l/m 16,0 km/h (3 Bft) O 80 0 min 0,000 mm 0,0 UV-I 0 W/m 8,5 C 3,6 C 24,1 km/h (4 Bft) 97,87 %
17.10.2016 06:56 9,1 C 96 % 1022,9 hPa 0,0 l/m 15,5 km/h (3 Bft) O-NO 65 0 min 0,000 mm 0,0 UV-I 0 W/m 8,5 C 3,8 C 24,1 km/h (4 Bft) 97,87 %
17.10.2016 06:58 9,1 C 96 % 1023,0 hPa 0,0 l/m 14,0 km/h (3 Bft) O-NO 62 0 min 0,000 mm 0,0 UV-I 0 W/m 8,5 C 4,5 C 24,1 km/h (4 Bft) 100,00 %
17.10.2016 07:00 9,1 C 96 % 1022,9 hPa 0,0 l/m 12,0 km/h (2 Bft) O 94 0 min 0,000 mm 0,0 UV-I 0 W/m 8,5 C 5,5 C 16,1 km/h (3 Bft) 96,00 %
17.10.2016 07:02 9,1 C 97 % 1023,0 hPa 0,0 l/m 13,3 km/h (3 Bft) O-NO 60 0 min 0,000 mm 0,0 UV-I 0 W/m 8,6 C 4,8 C 20,9 km/h (4 Bft) 100,00 %
17.10.2016 07:04 9,1 C 97 % 1023,0 hPa 0,0 l/m 15,7 km/h (3 Bft) O 81 0 min 0,000 mm 0,0 UV-I 0 W/m 8,6 C 3,7 C 22,5 km/h (4 Bft) 95,74 %
17.10.2016 07:06 9,1 C 96 % 1023,0 hPa 0,0 l/m 15,3 km/h (3 Bft) O 85 0 min 0,000 mm 0,0 UV-I 0 W/m 8,5 C 3,9 C 24,1 km/h (4 Bft) 94,74 %
17.10.2016 07:08 9,1 C 97 % 1023,0 hPa 0,0 l/m 12,4 km/h (3 Bft) NO 50 0 min 0,000 mm 0,0 UV-I 0 W/m 8,6 C 5,3 C 16,1 km/h (3 Bft) 97,87 %
17.10.2016 07:10 9,1 C 97 % 1023,1 hPa 0,0 l/m 12,8 km/h (3 Bft) O-NO 63 0 min 0,000 mm 0,0 UV-I 0 W/m 8,6 C 5,1 C 19,3 km/h (3 Bft) 97,87 %
17.10.2016 07:12 9,1 C 97 % 1023,0 hPa 0,0 l/m 14,5 km/h (3 Bft) O-NO 74 0 min 0,000 mm 0,0 UV-I 0 W/m 8,6 C 4,3 C 22,5 km/h (4 Bft) 100,00 %
17.10.2016 07:14 9,1 C 97 % 1023,0 hPa 0,0 l/m 14,0 km/h (3 Bft) O-NO 73 0 min 0,000 mm 0,0 UV-I 0 W/m 8,6 C 4,5 C 22,5 km/h (4 Bft) 100,00 %
17.10.2016 07:16 9,1 C 97 % 1023,0 hPa 0,0 l/m 16,5 km/h (3 Bft) O-NO 63 0 min 0,000 mm 0,0 UV-I 0 W/m 8,6 C 3,4 C 22,5 km/h (4 Bft) 97,87 %
17.10.2016 07:18 9,1 C 97 % 1023,0 hPa 0,0 l/m 16,5 km/h (3 Bft) O-NO 70 0 min 0,000 mm 0,0 UV-I 0 W/m 8,6 C 3,4 C 24,1 km/h (4 Bft) 97,87 %
17.10.2016 07:20 9,1 C 97 % 1023,1 hPa 0,0 l/m 14,3 km/h (3 Bft) NO 55 0 min 0,000 mm 0,0 UV-I 0 W/m 8,6 C 4,4 C 22,5 km/h (4 Bft) 97,87 %
17.10.2016 07:22 9,1 C 97 % 1023,0 hPa 0,0 l/m 11,9 km/h (2 Bft) O-NO 63 0 min 0,000 mm 0,0 UV-I 0 W/m 8,6 C 5,5 C 22,5 km/h (4 Bft) 97,92 %
17.10.2016 07:24 9,1 C 97 % 1023,1 hPa 0,0 l/m 8,6 km/h (2 Bft) O-NO 59 0 min 0,000 mm 0,0 UV-I 0 W/m 8,6 C 7,5 C 12,9 km/h (3 Bft) 100,00 %
17.10.2016 07:26 9,1 C 97 % 1023,0 hPa 0,0 l/m 12,5 km/h (3 Bft) O-NO 69 0 min 0,000 mm 0,0 UV-I 0 W/m 8,6 C 5,2 C 17,7 km/h (3 Bft) 100,00 %
17.10.2016 07:28 9,1 C 97 % 1023,1 hPa 0,0 l/m 9,8 km/h (2 Bft) NO 51 0 min 0,000 mm 0,0 UV-I 0 W/m 8,6 C 6,7 C 16,1 km/h (3 Bft) 97,87 %
17.10.2016 07:30 9,1 C 97 % 1023,1 hPa 0,0 l/m 11,5 km/h (2 Bft) NO 53 0 min 0,000 mm 0,0 UV-I 0 W/m 8,6 C 5,7 C 17,7 km/h (3 Bft) 100,00 %
17.10.2016 07:32 9,1 C 97 % 1023,1 hPa 0,0 l/m 13,9 km/h (3 Bft) O 80 0 min 0,000 mm 0,0 UV-I 0 W/m 8,6 C 4,5 C 19,3 km/h (3 Bft) 100,00 %
17.10.2016 07:34 9,1 C 97 % 1023,2 hPa 0,0 l/m 13,2 km/h (3 Bft) O-NO 69 0 min 0,000 mm 0,0 UV-I 0 W/m 8,6 C 4,9 C 20,9 km/h (4 Bft) 97,87 %
17.10.2016 07:36 9,1 C 97 % 1023,2 hPa 0,0 l/m 13,7 km/h (3 Bft) O-NO 76 0 min 0,000 mm 0,0 UV-I 0 W/m 8,6 C 4,6 C 17,7 km/h (3 Bft) 100,00 %
17.10.2016 07:38 9,1 C 97 % 1023,2 hPa 0,0 l/m 12,5 km/h (3 Bft) NO 49 0 min 0,000 mm 0,0 UV-I 0 W/m 8,6 C 5,2 C 16,1 km/h (3 Bft) 100,00 %
17.10.2016 07:40 9,1 C 97 % 1023,2 hPa 0,0 l/m 15,6 km/h (3 Bft) O-NO 61 0 min 0,000 mm 0,0 UV-I 0 W/m 8,6 C 3,8 C 22,5 km/h (4 Bft) 97,87 %
17.10.2016 07:42 9,1 C 97 % 1023,3 hPa 0,0 l/m 16,0 km/h (3 Bft) O-NO 61 0 min 0,000 mm 0,0 UV-I 0 W/m 8,6 C 3,6 C 20,9 km/h (4 Bft) 100,00 %
17.10.2016 07:44 9,1 C 97 % 1023,3 hPa 0,0 l/m 15,4 km/h (3 Bft) NO 52 0 min 0,000 mm 0,0 UV-I 3 W/m 8,6 C 3,9 C 20,9 km/h (4 Bft) 100,00 %
17.10.2016 07:46 9,1 C 97 % 1023,3 hPa 0,0 l/m 15,3 km/h (3 Bft) O-NO 70 0 min 0,000 mm 0,0 UV-I 5 W/m 8,6 C 3,9 C 24,1 km/h (4 Bft) 97,87 %
17.10.2016 07:48 9,1 C 97 % 1023,3 hPa 0,0 l/m 15,3 km/h (3 Bft) O-NO 57 0 min 0,000 mm 0,0 UV-I 5 W/m 8,6 C 3,9 C 22,5 km/h (4 Bft) 97,87 %
17.10.2016 07:50 9,1 C 97 % 1023,4 hPa 0,0 l/m 16,4 km/h (3 Bft) O-NO 77 0 min 0,000 mm 0,0 UV-I 5 W/m 8,6 C 3,5 C 22,5 km/h (4 Bft) 97,87 %
17.10.2016 07:52 9,1 C 97 % 1023,3 hPa 0,0 l/m 14,5 km/h (3 Bft) NO 52 0 min 0,000 mm 0,0 UV-I 7 W/m 8,6 C 4,3 C 19,3 km/h (3 Bft) 97,92 %
17.10.2016 07:54 9,1 C 97 % 1023,4 hPa 0,0 l/m 18,7 km/h (3 Bft) O-NO 59 0 min 0,000 mm 0,0 UV-I 5 W/m 8,6 C 2,6 C 27,4 km/h (4 Bft) 97,87 %
17.10.2016 07:56 9,0 C 97 % 1023,3 hPa 0,0 l/m 16,8 km/h (3 Bft) NO 47 0 min 0,000 mm 0,0 UV-I 6 W/m 8,5 C 3,2 C 22,5 km/h (4 Bft) 98,00 %
17.10.2016 07:58 9,1 C 97 % 1023,3 hPa 0,0 l/m 11,7 km/h (2 Bft) O-NO 63 0 min 0,000 mm 0,0 UV-I 7 W/m 8,6 C 5,6 C 17,7 km/h (3 Bft) 95,74 %
17.10.2016 08:00 9,1 C 97 % 1023,4 hPa 0,0 l/m 12,5 km/h (3 Bft) NO 49 0 min 0,000 mm 0,0 UV-I 7 W/m 8,6 C 5,2 C 22,5 km/h (4 Bft) 97,87 %
17.10.2016 08:02 9,1 C 97 % 1023,5 hPa 0,0 l/m 12,1 km/h (2 Bft) NO 35 0 min 0,000 mm 0,0 UV-I 7 W/m 8,6 C 5,4 C 20,9 km/h (4 Bft) 97,14 %
17.10.2016 08:04 9,1 C 97 % 1023,5 hPa 0,0 l/m 9,6 km/h (2 Bft) O-NO 59 0 min 0,000 mm 0,0 UV-I 9 W/m 8,6 C 6,8 C 14,5 km/h (3 Bft) 97,87 %
17.10.2016 08:06 9,1 C 97 % 1023,6 hPa 0,0 l/m 10,7 km/h (2 Bft) NO 56 0 min 0,000 mm 0,0 UV-I 7 W/m 8,6 C 6,2 C 16,1 km/h (3 Bft) 95,74 %
17.10.2016 08:08 9,1 C 97 % 1023,6 hPa 0,0 l/m 11,3 km/h (2 Bft) O 80 0 min 0,000 mm 0,0 UV-I 9 W/m 8,6 C 5,9 C 16,1 km/h (3 Bft) 97,87 %
17.10.2016 08:10 9,1 C 97 % 1023,6 hPa 0,0 l/m 12,0 km/h (2 Bft) O-NO 76 0 min 0,000 mm 0,0 UV-I 9 W/m 8,6 C 5,5 C 16,1 km/h (3 Bft) 93,62 %
17.10.2016 08:12 9,1 C 97 % 1023,6 hPa 0,0 l/m 9,1 km/h (2 Bft) O-NO 59 0 min 0,000 mm 0,0 UV-I 9 W/m 8,6 C 7,2 C 12,9 km/h (3 Bft) 98,00 %
17.10.2016 08:14 9,1 C 97 % 1023,6 hPa 0,0 l/m 14,9 km/h (3 Bft) O 84 0 min 0,000 mm 0,0 UV-I 10 W/m 8,6 C 4,1 C 20,9 km/h (4 Bft) 97,87 %
17.10.2016 08:16 9,1 C 97 % 1023,7 hPa 0,0 l/m 12,8 km/h (3 Bft) O-NO 76 0 min 0,000 mm 0,0 UV-I 7 W/m 8,6 C 5,1 C 20,9 km/h (4 Bft) 97,87 %
17.10.2016 08:18 9,1 C 97 % 1023,7 hPa 0,0 l/m 12,4 km/h (3 Bft) O-NO 65 0 min 0,000 mm 0,0 UV-I 5 W/m 8,6 C 5,3 C 16,1 km/h (3 Bft) 95,74 %
17.10.2016 08:20 9,1 C 97 % 1023,7 hPa 0,0 l/m 9,2 km/h (2 Bft) O 89 0 min 0,000 mm 0,0 UV-I 6 W/m 8,6 C 7,1 C 12,9 km/h (3 Bft) 100,00 %
17.10.2016 08:22 9,1 C 97 % 1023,8 hPa 0,0 l/m 11,2 km/h (2 Bft) NO 44 0 min 0,000 mm 0,0 UV-I 9 W/m 8,6 C 5,9 C 17,7 km/h (3 Bft) 100,00 %
17.10.2016 08:24 9,1 C 97 % 1023,8 hPa 0,0 l/m 9,4 km/h (2 Bft) O-NO 78 0 min 0,000 mm 0,0 UV-I 9 W/m 8,6 C 7,0 C 14,5 km/h (3 Bft) 100,00 %
17.10.2016 08:26 9,1 C 97 % 1023,8 hPa 0,0 l/m 10,7 km/h (2 Bft) O-NO 72 0 min 0,000 mm 0,0 UV-I 11 W/m 8,6 C 6,2 C 16,1 km/h (3 Bft) 100,00 %
17.10.2016 08:28 9,1 C 97 % 1023,8 hPa 0,0 l/m 12,1 km/h (2 Bft) O 100 0 min 0,000 mm 0,0 UV-I 11 W/m 8,6 C 5,4 C 19,3 km/h (3 Bft) 97,87 %
17.10.2016 08:30 9,1 C 97 % 1023,9 hPa 0,0 l/m 9,4 km/h (2 Bft) O-NO 72 0 min 0,000 mm 0,0 UV-I 13 W/m 8,6 C 7,0 C 12,9 km/h (3 Bft) 100,00 %
17.10.2016 08:32 9,1 C 97 % 1023,9 hPa 0,0 l/m 6,9 km/h (2 Bft) O-NO 61 0 min 0,000 mm 0,0 UV-I 18 W/m 8,6 C 8,7 C 11,3 km/h (2 Bft) 97,92 %
17.10.2016 08:34 9,2 C 97 % 1023,9 hPa 0,0 l/m 5,1 km/h (1 Bft) O-NO 77 0 min 0,000 mm 0,0 UV-I 21 W/m 8,7 C 9,2 C 8,0 km/h (2 Bft) 100,00 %
17.10.2016 08:36 9,2 C 96 % 1024,0 hPa 0,0 l/m 9,0 km/h (2 Bft) NO 54 0 min 0,000 mm 0,0 UV-I 20 W/m 8,6 C 7,3 C 14,5 km/h (3 Bft) 100,00 %
17.10.2016 08:38 9,1 C 96 % 1023,9 hPa 0,0 l/m 13,5 km/h (3 Bft) NO 56 0 min 0,000 mm 0,0 UV-I 22 W/m 8,5 C 4,7 C 19,3 km/h (3 Bft) 100,00 %
17.10.2016 08:40 9,1 C 96 % 1023,9 hPa 0,0 l/m 11,5 km/h (2 Bft) O 91 0 min 0,000 mm 0,0 UV-I 21 W/m 8,5 C 5,7 C 20,9 km/h (4 Bft) 100,00 %
17.10.2016 08:42 9,1 C 96 % 1023,9 hPa 0,0 l/m 9,8 km/h (2 Bft) O 82 0 min 0,000 mm 0,0 UV-I 20 W/m 8,5 C 6,7 C 14,5 km/h (3 Bft) 100,00 %
17.10.2016 08:44 9,2 C 96 % 1023,9 hPa 0,0 l/m 9,4 km/h (2 Bft) O-NO 71 0 min 0,000 mm 0,0 UV-I 20 W/m 8,6 C 7,1 C 16,1 km/h (3 Bft) 97,87 %
17.10.2016 08:46 9,2 C 96 % 1023,9 hPa 0,0 l/m 10,7 km/h (2 Bft) O-NO 57 0 min 0,000 mm 0,0 UV-I 24 W/m 8,6 C 6,3 C 16,1 km/h (3 Bft) 100,00 %
17.10.2016 08:48 9,2 C 96 % 1023,9 hPa 0,0 l/m 8,2 km/h (2 Bft) O-NO 69 0 min 0,000 mm 0,0 UV-I 29 W/m 8,6 C 7,9 C 14,5 km/h (3 Bft) 97,87 %
17.10.2016 08:50 9,2 C 96 % 1023,9 hPa 0,0 l/m 8,8 km/h (2 Bft) O-NO 76 0 min 0,000 mm 0,0 UV-I 31 W/m 8,6 C 7,5 C 16,1 km/h (3 Bft) 100,00 %
17.10.2016 08:52 9,2 C 96 % 1024,0 hPa 0,0 l/m 8,6 km/h (2 Bft) O 82 0 min 0,000 mm 0,0 UV-I 33 W/m 8,6 C 7,6 C 14,5 km/h (3 Bft) 100,00 %
17.10.2016 08:54 9,2 C 96 % 1024,0 hPa 0,0 l/m 9,7 km/h (2 Bft) O-NO 69 0 min 0,000 mm 0,0 UV-I 35 W/m 8,6 C 6,9 C 14,5 km/h (3 Bft) 100,00 %
17.10.2016 08:56 9,2 C 96 % 1024,0 hPa 0,0 l/m 7,5 km/h (2 Bft) O 89 0 min 0,000 mm 0,0 UV-I 38 W/m 8,6 C 8,4 C 12,9 km/h (3 Bft) 98,00 %
17.10.2016 08:58 9,3 C 96 % 1024,0 hPa 0,0 l/m 10,2 km/h (2 Bft) O-NO 78 0 min 0,000 mm 0,0 UV-I 43 W/m 8,7 C 6,7 C 14,5 km/h (3 Bft) 100,00 %
17.10.2016 09:00 9,3 C 95 % 1024,0 hPa 0,0 l/m 7,6 km/h (2 Bft) NO 51 0 min 0,000 mm 0,0 UV-I 42 W/m 8,5 C 8,4 C 12,9 km/h (3 Bft) 100,00 %
17.10.2016 09:02 9,3 C 95 % 1024,0 hPa 0,0 l/m 8,6 km/h (2 Bft) O-NO 75 0 min 0,000 mm 0,0 UV-I 40 W/m 8,5 C 7,7 C 12,9 km/h (3 Bft) 100,00 %
17.10.2016 09:04 9,3 C 95 % 1024,0 hPa 0,0 l/m 7,7 km/h (2 Bft) O-NO 67 0 min 0,000 mm 0,0 UV-I 39 W/m 8,5 C 8,3 C 12,9 km/h (3 Bft) 100,00 %
17.10.2016 09:06 9,3 C 95 % 1024,1 hPa 0,0 l/m 10,4 km/h (2 Bft) O-NO 65 0 min 0,000 mm 0,0 UV-I 35 W/m 8,5 C 6,6 C 14,5 km/h (3 Bft) 100,00 %
17.10.2016 09:08 9,3 C 95 % 1024,1 hPa 0,0 l/m 9,6 km/h (2 Bft) O 89 0 min 0,000 mm 0,0 UV-I 36 W/m 8,5 C 7,1 C 14,5 km/h (3 Bft) 100,00 %
17.10.2016 09:10 9,3 C 95 % 1024,1 hPa 0,0 l/m 7,9 km/h (2 Bft) O-NO 70 0 min 0,000 mm 0,0 UV-I 40 W/m 8,5 C 8,2 C 12,9 km/h (3 Bft) 97,87 %
17.10.2016 09:12 9,3 C 95 % 1024,2 hPa 0,0 l/m 6,1 km/h (2 Bft) O-NO 69 0 min 0,000 mm 0,0 UV-I 44 W/m 8,5 C 9,3 C 8,0 km/h (2 Bft) 100,00 %
17.10.2016 09:14 9,3 C 95 % 1024,1 hPa 0,0 l/m 6,4 km/h (2 Bft) O 88 0 min 0,000 mm 0,0 UV-I 47 W/m 8,5 C 9,3 C 9,7 km/h (2 Bft) 98,00 %
17.10.2016 09:16 9,3 C 95 % 1024,2 hPa 0,0 l/m 8,2 km/h (2 Bft) O-SO 106 0 min 0,000 mm 0,0 UV-I 47 W/m 8,5 C 8,0 C 14,5 km/h (3 Bft) 100,00 %
17.10.2016 09:18 9,4 C 95 % 1024,2 hPa 0,0 l/m 8,0 km/h (2 Bft) NO 55 0 min 0,000 mm 0,0 UV-I 47 W/m 8,6 C 8,2 C 12,9 km/h (3 Bft) 100,00 %
17.10.2016 09:20 9,4 C 95 % 1024,2 hPa 0,0 l/m 6,6 km/h (2 Bft) O-NO 71 0 min 0,000 mm 0,0 UV-I 49 W/m 8,6 C 9,3 C 11,3 km/h (2 Bft) 100,00 %
17.10.2016 09:22 9,4 C 95 % 1024,3 hPa 0,0 l/m 7,0 km/h (2 Bft) O-NO 61 0 min 0,000 mm 0,0 UV-I 48 W/m 8,6 C 9,0 C 8,0 km/h (2 Bft) 98,04 %
17.10.2016 09:24 9,4 C 95 % 1024,3 hPa 0,0 l/m 7,3 km/h (2 Bft) NO 50 0 min 0,000 mm 0,0 UV-I 46 W/m 8,6 C 8,7 C 11,3 km/h (2 Bft) 100,00 %
17.10.2016 09:26 9,4 C 95 % 1024,3 hPa 0,0 l/m 7,6 km/h (2 Bft) O-NO 69 0 min 0,000 mm 0,0 UV-I 43 W/m 8,6 C 8,5 C 9,7 km/h (2 Bft) 100,00 %
17.10.2016 09:28 9,4 C 95 % 1024,3 hPa 0,0 l/m 7,3 km/h (2 Bft) O 93 0 min 0,000 mm 0,0 UV-I 40 W/m 8,6 C 8,7 C 12,9 km/h (3 Bft) 97,14 %
17.10.2016 09:30 9,4 C 95 % 1024,3 hPa 0,0 l/m 6,5 km/h (2 Bft) O-NO 78 0 min 0,000 mm 0,0 UV-I 44 W/m 8,6 C 9,4 C 12,9 km/h (3 Bft) 100,00 %
17.10.2016 09:32 9,4 C 95 % 1024,3 hPa 0,0 l/m 10,0 km/h (2 Bft) O 97 0 min 0,000 mm 0,0 UV-I 46 W/m 8,6 C 6,9 C 12,9 km/h (3 Bft) 97,92 %
17.10.2016 09:34 9,4 C 95 % 1024,2 hPa 0,0 l/m 6,1 km/h (2 Bft) O-NO 65 0 min 0,000 mm 0,0 UV-I 51 W/m 8,6 C 9,4 C 9,7 km/h (2 Bft) 97,87 %
17.10.2016 09:36 9,4 C 95 % 1024,2 hPa 0,0 l/m 7,3 km/h (2 Bft) NO 44 0 min 0,000 mm 0,0 UV-I 54 W/m 8,6 C 8,7 C 14,5 km/h (3 Bft) 97,87 %
17.10.2016 09:38 9,4 C 95 % 1024,2 hPa 0,0 l/m 9,5 km/h (2 Bft) NO 44 0 min 0,000 mm 0,0 UV-I 70 W/m 8,6 C 7,2 C 14,5 km/h (3 Bft) 100,00 %
17.10.2016 09:40 9,4 C 95 % 1024,2 hPa 0,0 l/m 9,3 km/h (2 Bft) O-NO 58 0 min 0,000 mm 0,0 UV-I 96 W/m 8,6 C 7,4 C 14,5 km/h (3 Bft) 100,00 %
17.10.2016 09:42 9,5 C 95 % 1024,2 hPa 0,0 l/m 5,1 km/h (1 Bft) O-NO 63 0 min 0,000 mm 0,0 UV-I 92 W/m 8,7 C 9,5 C 6,4 km/h (2 Bft) 97,87 %
17.10.2016 09:44 9,6 C 95 % 1024,3 hPa 0,0 l/m 6,1 km/h (2 Bft) O-NO 71 0 min 0,000 mm 0,0 UV-I 82 W/m 8,8 C 9,6 C 8,0 km/h (2 Bft) 97,92 %
17.10.2016 09:46 9,6 C 95 % 1024,3 hPa 0,0 l/m 4,7 km/h (1 Bft) O-NO 71 0 min 0,000 mm 0,0 UV-I 81 W/m 8,8 C 9,6 C 8,0 km/h (2 Bft) 100,00 %
17.10.2016 09:48 9,6 C 95 % 1024,3 hPa 0,0 l/m 4,9 km/h (1 Bft) NO 53 0 min 0,000 mm 0,0 UV-I 80 W/m 8,8 C 9,6 C 8,0 km/h (2 Bft) 97,87 %
17.10.2016 09:50 9,6 C 95 % 1024,3 hPa 0,0 l/m 5,8 km/h (2 Bft) O-NO 76 0 min 0,000 mm 0,0 UV-I 80 W/m 8,8 C 9,6 C 8,0 km/h (2 Bft) 98,00 %
17.10.2016 09:52 9,6 C 95 % 1024,3 hPa 0,0 l/m 5,1 km/h (1 Bft) O-NO 76 0 min 0,000 mm 0,0 UV-I 76 W/m 8,8 C 9,6 C 6,4 km/h (2 Bft) 97,87 %
17.10.2016 09:54 9,6 C 95 % 1024,3 hPa 0,0 l/m 3,8 km/h (1 Bft) O-NO 76 0 min 0,000 mm 0,0 UV-I 70 W/m 8,8 C 9,6 C 4,8 km/h (1 Bft) 97,87 %
17.10.2016 09:56 9,7 C 95 % 1024,3 hPa 0,0 l/m 3,4 km/h (1 Bft) O-NO 67 0 min 0,000 mm 0,0 UV-I 66 W/m 8,9 C 9,7 C 6,4 km/h (2 Bft) 97,87 %
17.10.2016 09:58 9,7 C 95 % 1024,3 hPa 0,0 l/m 3,8 km/h (1 Bft) O-NO 71 0 min 0,000 mm 0,0 UV-I 64 W/m 8,9 C 9,7 C 6,4 km/h (2 Bft) 97,87 %
17.10.2016 10:00 9,8 C 95 % 1024,3 hPa 0,0 l/m 4,7 km/h (1 Bft) O 81 0 min 0,026 mm 0,0 UV-I 68 W/m 9,0 C 9,8 C 6,4 km/h (2 Bft) 95,83 %
17.10.2016 10:02 9,8 C 94 % 1024,3 hPa 0,0 l/m 5,9 km/h (2 Bft) O-NO 64 0 min 0,000 mm 0,0 UV-I 73 W/m 8,9 C 9,8 C 11,3 km/h (2 Bft) 97,87 %
17.10.2016 10:04 9,8 C 94 % 1024,3 hPa 0,0 l/m 5,1 km/h (1 Bft) O-NO 73 0 min 0,000 mm 0,0 UV-I 68 W/m 8,9 C 9,8 C 8,0 km/h (2 Bft) 97,87 %
17.10.2016 10:06 9,8 C 94 % 1024,3 hPa 0,0 l/m 5,2 km/h (1 Bft) O-NO 69 0 min 0,000 mm 0,0 UV-I 76 W/m 8,9 C 9,8 C 8,0 km/h (2 Bft) 97,87 %
17.10.2016 10:08 9,8 C 94 % 1024,3 hPa 0,0 l/m 6,0 km/h (2 Bft) SO 128 0 min 0,000 mm 0,0 UV-I 78 W/m 8,9 C 9,8 C 9,7 km/h (2 Bft) 97,14 %
17.10.2016 10:10 9,8 C 94 % 1024,3 hPa 0,0 l/m 2,7 km/h (1 Bft) O-SO 119 0 min 0,000 mm 0,0 UV-I 77 W/m 8,9 C 9,8 C 4,8 km/h (1 Bft) 98,00 %
17.10.2016 10:12 9,8 C 95 % 1024,3 hPa 0,0 l/m 3,1 km/h (1 Bft) O-SO 123 0 min 0,000 mm 0,0 UV-I 77 W/m 9,0 C 9,8 C 4,8 km/h (1 Bft) 95,74 %
17.10.2016 10:14 9,9 C 95 % 1024,4 hPa 0,0 l/m 3,6 km/h (1 Bft) O-SO 123 0 min 0,000 mm 0,0 UV-I 73 W/m 9,1 C 9,9 C 4,8 km/h (1 Bft) 95,74 %
17.10.2016 10:16 9,8 C 94 % 1024,3 hPa 0,0 l/m 3,6 km/h (1 Bft) SO 124 0 min 0,000 mm 0,0 UV-I 72 W/m 8,9 C 9,8 C 6,4 km/h (2 Bft) 97,87 %
17.10.2016 10:18 9,8 C 94 % 1024,4 hPa 0,0 l/m 5,2 km/h (1 Bft) O 101 0 min 0,000 mm 0,0 UV-I 69 W/m 8,9 C 9,8 C 9,7 km/h (2 Bft) 95,74 %
17.10.2016 10:20 9,8 C 95 % 1024,4 hPa 0,0 l/m 8,6 km/h (2 Bft) O-SO 109 0 min 0,000 mm 0,0 UV-I 72 W/m 9,0 C 8,2 C 11,3 km/h (2 Bft) 100,00 %
17.10.2016 10:22 9,8 C 94 % 1024,4 hPa 0,0 l/m 5,8 km/h (2 Bft) O-SO 108 0 min 0,000 mm 0,0 UV-I 77 W/m 8,9 C 9,8 C 9,7 km/h (2 Bft) 100,00 %
17.10.2016 10:24 9,8 C 95 % 1024,4 hPa 0,0 l/m 6,1 km/h (2 Bft) O-SO 107 0 min 0,000 mm 0,0 UV-I 80 W/m 9,0 C 9,8 C 11,3 km/h (2 Bft) 100,00 %
17.10.2016 10:26 9,8 C 95 % 1024,4 hPa 0,0 l/m 7,6 km/h (2 Bft) O-SO 104 0 min 0,000 mm 0,0 UV-I 86 W/m 9,0 C 8,9 C 11,3 km/h (2 Bft) 100,00 %
17.10.2016 10:28 9,8 C 95 % 1024,4 hPa 0,0 l/m 6,5 km/h (2 Bft) O-SO 123 0 min 0,000 mm 0,0 UV-I 84 W/m 9,0 C 9,8 C 9,7 km/h (2 Bft) 100,00 %
17.10.2016 10:30 9,8 C 95 % 1024,4 hPa 0,0 l/m 4,5 km/h (1 Bft) O-SO 107 0 min 0,000 mm 0,0 UV-I 88 W/m 9,0 C 9,8 C 9,7 km/h (2 Bft) 97,87 %
17.10.2016 10:32 9,8 C 95 % 1024,3 hPa 0,0 l/m 1,7 km/h (1 Bft) O-NO 77 0 min 0,000 mm 0,0 UV-I 93 W/m 9,0 C 9,8 C 4,8 km/h (1 Bft) 97,87 %
17.10.2016 10:34 9,9 C 95 % 1024,4 hPa 0,0 l/m 3,4 km/h (1 Bft) O 86 0 min 0,000 mm 0,0 UV-I 90 W/m 9,1 C 9,9 C 4,8 km/h (1 Bft) 97,87 %
17.10.2016 10:36 9,9 C 95 % 1024,3 hPa 0,0 l/m 4,8 km/h (1 Bft) O-NO 78 0 min 0,000 mm 0,0 UV-I 85 W/m 9,1 C 9,9 C 8,0 km/h (2 Bft) 98,00 %
17.10.2016 10:38 9,8 C 95 % 1024,3 hPa 0,0 l/m 5,3 km/h (1 Bft) O-NO 75 0 min 0,000 mm 0,0 UV-I 81 W/m 9,0 C 9,8 C 8,0 km/h (2 Bft) 97,87 %
17.10.2016 10:40 9,8 C 95 % 1024,4 hPa 0,0 l/m 5,4 km/h (1 Bft) O-NO 78 0 min 0,000 mm 0,0 UV-I 81 W/m 9,0 C 9,8 C 6,4 km/h (2 Bft) 100,00 %
17.10.2016 10:42 9,9 C 95 % 1024,4 hPa 0,0 l/m 4,1 km/h (1 Bft) O-SO 110 0 min 0,000 mm 0,0 UV-I 82 W/m 9,1 C 9,9 C 6,4 km/h (2 Bft) 94,74 %
17.10.2016 10:44 9,9 C 95 % 1024,4 hPa 0,0 l/m 3,7 km/h (1 Bft) O-SO 114 0 min 0,000 mm 0,0 UV-I 88 W/m 9,1 C 9,9 C 4,8 km/h (1 Bft) 100,00 %
17.10.2016 10:46 9,9 C 95 % 1024,4 hPa 0,0 l/m 5,0 km/h (1 Bft) SO 124 0 min 0,000 mm 0,0 UV-I 84 W/m 9,1 C 9,9 C 6,4 km/h (2 Bft) 100,00 %
17.10.2016 10:48 9,9 C 95 % 1024,4 hPa 0,0 l/m 2,6 km/h (1 Bft) O-SO 121 0 min 0,000 mm 0,0 UV-I 74 W/m 9,1 C 9,9 C 6,4 km/h (2 Bft) 100,00 %
17.10.2016 10:50 9,9 C 95 % 1024,4 hPa 0,0 l/m 2,5 km/h (1 Bft) O-SO 120 0 min 0,000 mm 0,0 UV-I 75 W/m 9,1 C 9,9 C 4,8 km/h (1 Bft) 97,87 %
17.10.2016 10:52 9,9 C 95 % 1024,4 hPa 0,0 l/m 3,6 km/h (1 Bft) O 101 0 min 0,000 mm 0,0 UV-I 80 W/m 9,1 C 9,9 C 4,8 km/h (1 Bft) 100,00 %
17.10.2016 10:54 9,9 C 95 % 1024,4 hPa 0,0 l/m 5,0 km/h (1 Bft) O-NO 63 0 min 0,000 mm 0,0 UV-I 98 W/m 9,1 C 9,9 C 6,4 km/h (2 Bft) 100,00 %
17.10.2016 10:56 9,9 C 95 % 1024,4 hPa 0,0 l/m 5,9 km/h (2 Bft) O 86 0 min 0,000 mm 0,0 UV-I 94 W/m 9,1 C 9,9 C 8,0 km/h (2 Bft) 100,00 %
17.10.2016 10:58 10,0 C 95 % 1024,3 hPa 0,0 l/m 6,3 km/h (2 Bft) O 84 0 min 0,000 mm 0,0 UV-I 85 W/m 9,2 C 10,0 C 11,3 km/h (2 Bft) 100,00 %
17.10.2016 11:00 10,0 C 95 % 1024,3 hPa 0,0 l/m 4,6 km/h (1 Bft) O 88 0 min 0,051 mm 0,0 UV-I 91 W/m 9,2 C 10,0 C 6,4 km/h (2 Bft) 100,00 %
17.10.2016 11:02 10,0 C 94 % 1024,3 hPa 0,0 l/m 5,1 km/h (1 Bft) O-NO 66 0 min 0,000 mm 0,0 UV-I 97 W/m 9,1 C 10,0 C 6,4 km/h (2 Bft) 100,00 %
17.10.2016 11:04 10,0 C 94 % 1024,3 hPa 0,0 l/m 5,3 km/h (1 Bft) NO 53 0 min 0,000 mm 0,0 UV-I 95 W/m 9,1 C 10,0 C 6,4 km/h (2 Bft) 100,00 %
17.10.2016 11:06 10,1 C 95 % 1024,3 hPa 0,0 l/m 3,4 km/h (1 Bft) O-NO 65 0 min 0,000 mm 0,0 UV-I 86 W/m 9,3 C 10,1 C 4,8 km/h (1 Bft) 100,00 %
17.10.2016 11:08 10,1 C 94 % 1024,3 hPa 0,0 l/m 5,4 km/h (1 Bft) O-NO 67 0 min 0,000 mm 0,0 UV-I 75 W/m 9,2 C 10,1 C 8,0 km/h (2 Bft) 100,00 %
17.10.2016 11:10 10,1 C 94 % 1024,3 hPa 0,0 l/m 5,5 km/h (1 Bft) O-NO 63 0 min 0,000 mm 0,0 UV-I 75 W/m 9,2 C 10,1 C 8,0 km/h (2 Bft) 100,00 %
17.10.2016 11:12 10,1 C 94 % 1024,3 hPa 0,0 l/m 5,2 km/h (1 Bft) O-NO 73 0 min 0,000 mm 0,0 UV-I 75 W/m 9,2 C 10,1 C 8,0 km/h (2 Bft) 100,00 %
17.10.2016 11:14 10,1 C 94 % 1024,3 hPa 0,0 l/m 7,2 km/h (2 Bft) O-NO 59 0 min 0,000 mm 0,0 UV-I 78 W/m 9,2 C 9,5 C 9,7 km/h (2 Bft) 100,00 %
17.10.2016 11:16 10,0 C 94 % 1024,3 hPa 0,0 l/m 5,9 km/h (2 Bft) O-NO 63 0 min 0,000 mm 0,0 UV-I 83 W/m 9,1 C 10,0 C 8,0 km/h (2 Bft) 100,00 %
17.10.2016 11:18 10,1 C 94 % 1024,3 hPa 0,0 l/m 4,5 km/h (1 Bft) O-NO 69 0 min 0,000 mm 0,0 UV-I 84 W/m 9,2 C 10,1 C 6,4 km/h (2 Bft) 95,74 %
17.10.2016 11:20 10,1 C 95 % 1024,3 hPa 0,0 l/m 2,9 km/h (1 Bft) O 92 0 min 0,000 mm 0,0 UV-I 88 W/m 9,3 C 10,1 C 4,8 km/h (1 Bft) 97,56 %
17.10.2016 11:22 10,1 C 94 % 1024,3 hPa 0,0 l/m 5,1 km/h (1 Bft) O-SO 107 0 min 0,000 mm 0,0 UV-I 91 W/m 9,2 C 10,1 C 6,4 km/h (2 Bft) 100,00 %
17.10.2016 11:24 10,1 C 94 % 1024,3 hPa 0,0 l/m 5,0 km/h (1 Bft) O-NO 67 0 min 0,000 mm 0,0 UV-I 87 W/m 9,2 C 10,1 C 9,7 km/h (2 Bft) 97,87 %
17.10.2016 11:25 10,1 C 94 % 1024,3 hPa 0,0 l/m 4,8 km/h (1 Bft) O-SO 112 0 min 0,000 mm 0,0 UV-I 89 W/m 9,2 C 10,1 C 9,7 km/h (2 Bft) 98,25 %
17.10.2016 11:28 10,1 C 94 % 1024,3 hPa 0,0 l/m 5,2 km/h (1 Bft) O-NO 57 0 min 0,000 mm 0,0 UV-I 92 W/m 9,2 C 10,1 C 6,4 km/h (2 Bft) 100,00 %
17.10.2016 11:30 10,1 C 94 % 1024,3 hPa 0,0 l/m 7,5 km/h (2 Bft) O-NO 72 0 min 0,000 mm 0,0 UV-I 91 W/m 9,2 C 9,3 C 8,0 km/h (2 Bft) 100,00 %
17.10.2016 11:32 10,1 C 94 % 1024,3 hPa 0,0 l/m 7,1 km/h (2 Bft) O 92 0 min 0,000 mm 0,0 UV-I 93 W/m 9,2 C 9,6 C 11,3 km/h (2 Bft) 97,87 %
17.10.2016 11:34 10,2 C 95 % 1024,3 hPa 0,0 l/m 6,1 km/h (2 Bft) O-NO 57 0 min 0,000 mm 0,0 UV-I 93 W/m 9,4 C 10,2 C 9,7 km/h (2 Bft) 100,00 %
17.10.2016 11:36 10,2 C 94 % 1024,3 hPa 0,0 l/m 5,7 km/h (1 Bft) O-NO 58 0 min 0,000 mm 0,0 UV-I 93 W/m 9,3 C 10,2 C 8,0 km/h (2 Bft) 100,00 %
17.10.2016 11:38 10,2 C 94 % 1024,2 hPa 0,0 l/m 6,0 km/h (2 Bft) O-NO 59 0 min 0,000 mm 0,2 UV-I 96 W/m 9,3 C 10,2 C 8,0 km/h (2 Bft) 96,00 %
17.10.2016 11:40 10,2 C 94 % 1024,2 hPa 0,0 l/m 7,9 km/h (2 Bft) O-NO 76 0 min 0,000 mm 0,5 UV-I 100 W/m 9,3 C 9,1 C 12,9 km/h (3 Bft) 100,00 %
17.10.2016 11:42 10,2 C 94 % 1024,3 hPa 0,0 l/m 7,6 km/h (2 Bft) O 82 0 min 0,000 mm 0,5 UV-I 97 W/m 9,3 C 9,3 C 12,9 km/h (3 Bft) 100,00 %
17.10.2016 11:44 10,2 C 94 % 1024,3 hPa 0,0 l/m 7,3 km/h (2 Bft) O-NO 67 0 min 0,000 mm 0,0 UV-I 93 W/m 9,3 C 9,6 C 11,3 km/h (2 Bft) 100,00 %
17.10.2016 11:46 10,2 C 94 % 1024,2 hPa 0,0 l/m 8,9 km/h (2 Bft) O 80 0 min 0,000 mm 0,5 UV-I 102 W/m 9,3 C 8,5 C 12,9 km/h (3 Bft) 98,00 %
17.10.2016 11:48 10,2 C 94 % 1024,2 hPa 0,0 l/m 5,8 km/h (2 Bft) O-NO 62 0 min 0,000 mm 0,5 UV-I 111 W/m 9,3 C 10,2 C 9,7 km/h (2 Bft) 95,74 %
17.10.2016 11:50 10,2 C 94 % 1024,2 hPa 0,0 l/m 7,0 km/h (2 Bft) O-NO 67 0 min 0,000 mm 0,6 UV-I 117 W/m 9,3 C 9,8 C 11,3 km/h (2 Bft) 97,87 %
17.10.2016 11:52 10,2 C 94 % 1024,1 hPa 0,0 l/m 7,4 km/h (2 Bft) O 82 0 min 0,000 mm 0,5 UV-I 108 W/m 9,3 C 9,5 C 11,3 km/h (2 Bft) 95,74 %
17.10.2016 11:54 10,2 C 94 % 1024,2 hPa 0,0 l/m 6,7 km/h (2 Bft) O-NO 63 0 min 0,000 mm 0,3 UV-I 90 W/m 9,3 C 10,0 C 11,3 km/h (2 Bft) 97,87 %
17.10.2016 11:56 10,3 C 94 % 1024,2 hPa 0,0 l/m 6,7 km/h (2 Bft) NO 55 0 min 0,000 mm 0,5 UV-I 91 W/m 9,4 C 10,1 C 9,7 km/h (2 Bft) 97,87 %
17.10.2016 11:58 10,3 C 95 % 1024,2 hPa 0,0 l/m 6,6 km/h (2 Bft) O-NO 60 0 min 0,000 mm 0,5 UV-I 97 W/m 9,5 C 10,2 C 11,3 km/h (2 Bft) 97,87 %
17.10.2016 12:00 10,3 C 95 % 1024,1 hPa 0,0 l/m 7,1 km/h (2 Bft) O-NO 65 0 min 0,050 mm 0,5 UV-I 103 W/m 9,5 C 9,8 C 9,7 km/h (2 Bft) 98,00 %
17.10.2016 12:02 10,3 C 94 % 1024,1 hPa 0,0 l/m 7,8 km/h (2 Bft) O-NO 72 0 min 0,000 mm 0,5 UV-I 103 W/m 9,4 C 9,3 C 12,9 km/h (3 Bft) 97,87 %
17.10.2016 12:04 10,3 C 94 % 1024,2 hPa 0,0 l/m 8,5 km/h (2 Bft) O-NO 71 0 min 0,000 mm 0,6 UV-I 108 W/m 9,4 C 8,8 C 12,9 km/h (3 Bft) 91,49 %
17.10.2016 12:06 10,3 C 94 % 1024,1 hPa 0,0 l/m 5,5 km/h (1 Bft) O-NO 59 0 min 0,000 mm 0,6 UV-I 109 W/m 9,4 C 10,3 C 8,0 km/h (2 Bft) 97,87 %
17.10.2016 12:08 10,3 C 94 % 1024,1 hPa 0,0 l/m 6,0 km/h (2 Bft) O-NO 59 0 min 0,000 mm 0,6 UV-I 110 W/m 9,4 C 10,3 C 8,0 km/h (2 Bft) 98,00 %
17.10.2016 12:10 10,4 C 94 % 1024,1 hPa 0,0 l/m 6,5 km/h (2 Bft) O-NO 71 0 min 0,000 mm 0,7 UV-I 114 W/m 9,5 C 10,4 C 9,7 km/h (2 Bft) 97,87 %
17.10.2016 12:12 10,4 C 94 % 1024,1 hPa 0,0 l/m 7,6 km/h (2 Bft) O-NO 63 0 min 0,000 mm 0,6 UV-I 103 W/m 9,5 C 9,5 C 11,3 km/h (2 Bft) 97,37 %
17.10.2016 12:14 10,4 C 94 % 1024,0 hPa 0,0 l/m 10,3 km/h (2 Bft) O-NO 70 0 min 0,000 mm 0,5 UV-I 97 W/m 9,5 C 7,9 C 14,5 km/h (3 Bft) 97,87 %
17.10.2016 12:16 10,4 C 94 % 1024,1 hPa 0,0 l/m 9,8 km/h (2 Bft) O-NO 59 0 min 0,000 mm 0,6 UV-I 105 W/m 9,5 C 8,2 C 14,5 km/h (3 Bft) 97,87 %
17.10.2016 12:18 10,4 C 94 % 1024,0 hPa 0,0 l/m 9,6 km/h (2 Bft) O-NO 75 0 min 0,000 mm 0,6 UV-I 122 W/m 9,5 C 8,3 C 14,5 km/h (3 Bft) 97,87 %
17.10.2016 12:20 10,4 C 94 % 1024,0 hPa 0,0 l/m 6,6 km/h (2 Bft) NO 48 0 min 0,000 mm 0,6 UV-I 125 W/m 9,5 C 10,3 C 14,5 km/h (3 Bft) 93,75 %
17.10.2016 12:22 10,4 C 94 % 1024,0 hPa 0,0 l/m 9,1 km/h (2 Bft) NO 52 0 min 0,000 mm 0,7 UV-I 133 W/m 9,5 C 8,6 C 14,5 km/h (3 Bft) 100,00 %
17.10.2016 12:24 10,4 C 94 % 1024,0 hPa 0,0 l/m 10,4 km/h (2 Bft) O-NO 68 0 min 0,000 mm 0,7 UV-I 124 W/m 9,5 C 7,8 C 16,1 km/h (3 Bft) 100,00 %
17.10.2016 12:26 10,4 C 94 % 1023,9 hPa 0,0 l/m 7,4 km/h (2 Bft) O-NO 59 0 min 0,000 mm 0,6 UV-I 114 W/m 9,5 C 9,7 C 11,3 km/h (2 Bft) 97,87 %
17.10.2016 12:28 10,4 C 94 % 1023,9 hPa 0,0 l/m 10,8 km/h (2 Bft) O-NO 59 0 min 0,000 mm 0,6 UV-I 113 W/m 9,5 C 7,6 C 16,1 km/h (3 Bft) 97,87 %
17.10.2016 12:30 10,4 C 94 % 1023,9 hPa 0,0 l/m 8,2 km/h (2 Bft) O-NO 78 0 min 0,000 mm 0,6 UV-I 114 W/m 9,5 C 9,1 C 12,9 km/h (3 Bft) 100,00 %
17.10.2016 12:32 10,4 C 94 % 1023,9 hPa 0,0 l/m 7,5 km/h (2 Bft) O-NO 72 0 min 0,000 mm 0,6 UV-I 115 W/m 9,5 C 9,6 C 11,3 km/h (2 Bft) 100,00 %
17.10.2016 12:34 10,4 C 94 % 1023,9 hPa 0,0 l/m 7,6 km/h (2 Bft) O-NO 57 0 min 0,000 mm 0,6 UV-I 116 W/m 9,5 C 9,5 C 11,3 km/h (2 Bft) 100,00 %
17.10.2016 12:36 10,4 C 94 % 1023,9 hPa 0,0 l/m 7,4 km/h (2 Bft) N-NO 25 0 min 0,000 mm 0,6 UV-I 117 W/m 9,5 C 9,7 C 11,3 km/h (2 Bft) 100,00 %
17.10.2016 12:38 10,4 C 94 % 1023,9 hPa 0,0 l/m 8,1 km/h (2 Bft) O-NO 61 0 min 0,000 mm 0,5 UV-I 111 W/m 9,5 C 9,2 C 11,3 km/h (2 Bft) 100,00 %
17.10.2016 12:40 10,4 C 94 % 1023,8 hPa 0,0 l/m 6,8 km/h (2 Bft) O-NO 65 0 min 0,000 mm 0,5 UV-I 101 W/m 9,5 C 10,1 C 9,7 km/h (2 Bft) 100,00 %
17.10.2016 12:42 10,4 C 94 % 1023,9 hPa 0,0 l/m 8,1 km/h (2 Bft) O-NO 62 0 min 0,000 mm 0,5 UV-I 104 W/m 9,5 C 9,2 C 12,9 km/h (3 Bft) 100,00 %
17.10.2016 12:44 10,4 C 94 % 1023,8 hPa 0,0 l/m 8,4 km/h (2 Bft) O-NO 61 0 min 0,000 mm 0,5 UV-I 112 W/m 9,5 C 9,0 C 14,5 km/h (3 Bft) 100,00 %
17.10.2016 12:46 10,4 C 94 % 1023,8 hPa 0,0 l/m 7,7 km/h (2 Bft) O-NO 65 0 min 0,000 mm 0,5 UV-I 104 W/m 9,5 C 9,5 C 12,9 km/h (3 Bft) 94,00 %
17.10.2016 12:48 10,4 C 94 % 1023,9 hPa 0,0 l/m 8,2 km/h (2 Bft) O-NO 71 0 min 0,000 mm 0,5 UV-I 93 W/m 9,5 C 9,1 C 12,9 km/h (3 Bft) 95,74 %
17.10.2016 12:50 10,4 C 94 % 1023,8 hPa 0,0 l/m 9,5 km/h (2 Bft) NO 45 0 min 0,000 mm 0,5 UV-I 83 W/m 9,5 C 8,3 C 14,5 km/h (3 Bft) 100,00 %
17.10.2016 12:52 10,4 C 94 % 1023,8 hPa 0,0 l/m 10,8 km/h (2 Bft) NO 51 0 min 0,000 mm 0,5 UV-I 84 W/m 9,5 C 7,6 C 14,5 km/h (3 Bft) 97,87 %
17.10.2016 12:54 10,4 C 94 % 1023,8 hPa 0,0 l/m 8,8 km/h (2 Bft) NO 46 0 min 0,000 mm 0,6 UV-I 92 W/m 9,5 C 8,8 C 12,9 km/h (3 Bft) 97,87 %
17.10.2016 12:56 10,4 C 94 % 1023,7 hPa 0,0 l/m 8,0 km/h (2 Bft) O-NO 74 0 min 0,000 mm 0,7 UV-I 103 W/m 9,5 C 9,3 C 11,3 km/h (2 Bft) 100,00 %
17.10.2016 12:58 10,5 C 94 % 1023,7 hPa 0,0 l/m 9,8 km/h (2 Bft) O-NO 57 0 min 0,000 mm 0,6 UV-I 101 W/m 9,6 C 8,3 C 14,5 km/h (3 Bft) 100,00 %
17.10.2016 13:00 10,5 C 94 % 1023,6 hPa 0,0 l/m 9,2 km/h (2 Bft) O-NO 66 0 min 0,051 mm 0,6 UV-I 100 W/m 9,6 C 8,6 C 12,9 km/h (3 Bft) 100,00 %
17.10.2016 13:02 10,5 C 94 % 1023,7 hPa 0,0 l/m 6,9 km/h (2 Bft) O-NO 76 0 min 0,000 mm 0,6 UV-I 94 W/m 9,6 C 10,2 C 11,3 km/h (2 Bft) 100,00 %
17.10.2016 13:04 10,6 C 94 % 1023,7 hPa 0,0 l/m 9,0 km/h (2 Bft) O-NO 74 0 min 0,000 mm 0,5 UV-I 83 W/m 9,7 C 8,8 C 12,9 km/h (3 Bft) 95,92 %
17.10.2016 13:06 10,6 C 93 % 1023,6 hPa 0,0 l/m 8,9 km/h (2 Bft) NO 54 0 min 0,000 mm 0,5 UV-I 90 W/m 9,5 C 8,9 C 14,5 km/h (3 Bft) 97,87 %
17.10.2016 13:08 10,6 C 93 % 1023,6 hPa 0,0 l/m 7,0 km/h (2 Bft) NO 34 0 min 0,000 mm 0,6 UV-I 98 W/m 9,5 C 10,2 C 9,7 km/h (2 Bft) 100,00 %
17.10.2016 13:10 10,6 C 93 % 1023,6 hPa 0,0 l/m 6,6 km/h (2 Bft) NO 51 0 min 0,000 mm 0,6 UV-I 106 W/m 9,5 C 10,5 C 9,7 km/h (2 Bft) 100,00 %
17.10.2016 13:12 10,7 C 94 % 1023,5 hPa 0,0 l/m 8,0 km/h (2 Bft) NO 39 0 min 0,000 mm 0,6 UV-I 108 W/m 9,8 C 9,6 C 14,5 km/h (3 Bft) 97,87 %
17.10.2016 13:14 10,7 C 93 % 1023,5 hPa 0,0 l/m 8,2 km/h (2 Bft) O-NO 63 0 min 0,000 mm 0,6 UV-I 121 W/m 9,6 C 9,5 C 14,5 km/h (3 Bft) 100,00 %
17.10.2016 13:16 10,7 C 93 % 1023,5 hPa 0,0 l/m 7,8 km/h (2 Bft) O 80 0 min 0,000 mm 0,7 UV-I 142 W/m 9,6 C 9,7 C 12,9 km/h (3 Bft) 100,00 %
17.10.2016 13:18 10,7 C 93 % 1023,5 hPa 0,0 l/m 9,0 km/h (2 Bft) O-NO 76 0 min 0,000 mm 0,8 UV-I 150 W/m 9,6 C 9,0 C 14,5 km/h (3 Bft) 97,87 %
17.10.2016 13:20 10,7 C 93 % 1023,4 hPa 0,0 l/m 9,0 km/h (2 Bft) NO 46 0 min 0,000 mm 0,7 UV-I 144 W/m 9,6 C 9,0 C 12,9 km/h (3 Bft) 100,00 %
17.10.2016 13:22 10,8 C 93 % 1023,4 hPa 0,0 l/m 7,8 km/h (2 Bft) O-NO 61 0 min 0,000 mm 0,7 UV-I 126 W/m 9,7 C 9,8 C 9,7 km/h (2 Bft) 100,00 %
17.10.2016 13:24 10,8 C 92 % 1023,4 hPa 0,0 l/m 5,5 km/h (1 Bft) O-NO 65 0 min 0,000 mm 0,7 UV-I 128 W/m 9,6 C 10,8 C 8,0 km/h (2 Bft) 100,00 %
17.10.2016 13:26 10,8 C 92 % 1023,4 hPa 0,0 l/m 6,6 km/h (2 Bft) NO 56 0 min 0,000 mm 0,8 UV-I 147 W/m 9,6 C 10,7 C 12,9 km/h (3 Bft) 97,30 %
17.10.2016 13:28 10,8 C 92 % 1023,3 hPa 0,0 l/m 9,9 km/h (2 Bft) O-NO 73 0 min 0,000 mm 0,8 UV-I 163 W/m 9,6 C 8,5 C 14,5 km/h (3 Bft) 98,00 %
17.10.2016 13:30 10,9 C 93 % 1023,3 hPa 0,0 l/m 7,6 km/h (2 Bft) NO 42 0 min 0,000 mm 0,8 UV-I 170 W/m 9,8 C 10,1 C 12,9 km/h (3 Bft) 97,87 %
17.10.2016 13:32 10,9 C 92 % 1023,3 hPa 0,0 l/m 8,6 km/h (2 Bft) NO 54 0 min 0,000 mm 0,8 UV-I 174 W/m 9,7 C 9,4 C 12,9 km/h (3 Bft) 100,00 %
17.10.2016 13:34 10,9 C 92 % 1023,3 hPa 0,0 l/m 10,8 km/h (2 Bft) NO 56 0 min 0,000 mm 0,8 UV-I 165 W/m 9,7 C 8,2 C 14,5 km/h (3 Bft) 97,87 %
17.10.2016 13:36 10,9 C 92 % 1023,3 hPa 0,0 l/m 11,6 km/h (2 Bft) NO 37 0 min 0,000 mm 0,7 UV-I 156 W/m 9,7 C 7,7 C 16,1 km/h (3 Bft) 100,00 %
17.10.2016 13:38 11,0 C 92 % 1023,2 hPa 0,0 l/m 9,3 km/h (2 Bft) NO 36 0 min 0,000 mm 0,8 UV-I 172 W/m 9,8 C 9,1 C 16,1 km/h (3 Bft) 97,87 %
17.10.2016 13:40 11,1 C 92 % 1023,2 hPa 0,0 l/m 11,5 km/h (2 Bft) O-NO 57 0 min 0,000 mm 0,9 UV-I 203 W/m 9,8 C 8,0 C 16,1 km/h (3 Bft) 100,00 %
17.10.2016 13:42 11,1 C 92 % 1023,1 hPa 0,0 l/m 10,6 km/h (2 Bft) O-NO 75 0 min 0,000 mm 1,0 UV-I 227 W/m 9,8 C 8,5 C 17,7 km/h (3 Bft) 100,00 %
17.10.2016 13:44 11,1 C 92 % 1023,1 hPa 0,0 l/m 9,8 km/h (2 Bft) NO 53 0 min 0,000 mm 0,9 UV-I 206 W/m 9,8 C 8,9 C 14,5 km/h (3 Bft) 100,00 %
17.10.2016 13:46 11,1 C 91 % 1023,0 hPa 0,0 l/m 11,9 km/h (2 Bft) NO 56 0 min 0,000 mm 0,9 UV-I 201 W/m 9,7 C 7,8 C 16,1 km/h (3 Bft) 95,74 %
17.10.2016 13:48 11,1 C 91 % 1023,0 hPa 0,0 l/m 11,9 km/h (2 Bft) O-NO 76 0 min 0,000 mm 0,9 UV-I 206 W/m 9,7 C 7,8 C 17,7 km/h (3 Bft) 95,74 %
17.10.2016 13:50 11,1 C 92 % 1023,0 hPa 0,0 l/m 11,6 km/h (2 Bft) NO 48 0 min 0,000 mm 1,0 UV-I 217 W/m 9,8 C 8,0 C 17,7 km/h (3 Bft) 97,87 %
17.10.2016 13:52 11,2 C 92 % 1023,0 hPa 0,0 l/m 11,7 km/h (2 Bft) NO 49 0 min 0,000 mm 1,0 UV-I 217 W/m 9,9 C 8,0 C 16,1 km/h (3 Bft) 95,74 %
17.10.2016 13:54 11,2 C 92 % 1023,0 hPa 0,0 l/m 10,0 km/h (2 Bft) NO 53 0 min 0,000 mm 1,0 UV-I 222 W/m 9,9 C 8,9 C 14,5 km/h (3 Bft) 98,00 %
17.10.2016 13:56 11,2 C 91 % 1023,0 hPa 0,0 l/m 11,0 km/h (2 Bft) NO 38 0 min 0,000 mm 1,0 UV-I 213 W/m 9,8 C 8,4 C 19,3 km/h (3 Bft) 97,87 %
17.10.2016 13:59 11,3 C 91 % 1022,9 hPa 0,0 l/m 15,3 km/h (3 Bft) NO 36 0 min 0,000 mm 0,8 UV-I 182 W/m 9,9 C 6,6 C 20,9 km/h (4 Bft) 97,14 %
17.10.2016 14:00 11,3 C 91 % 1022,9 hPa 0,0 l/m 16,6 km/h (3 Bft) N-NO 31 0 min 0,000 mm 0,8 UV-I 167 W/m 9,9 C 6,1 C 20,9 km/h (4 Bft) 95,83 %
17.10.2016 14:02 11,3 C 91 % 1022,8 hPa 0,0 l/m 14,4 km/h (3 Bft) N-NO 26 0 min 0,076 mm 0,8 UV-I 176 W/m 9,9 C 7,0 C 17,7 km/h (3 Bft) 95,74 %
17.10.2016 14:04 11,3 C 91 % 1022,8 hPa 0,0 l/m 6,9 km/h (2 Bft) NO 51 0 min 0,000 mm 0,7 UV-I 172 W/m 9,9 C 11,0 C 11,3 km/h (2 Bft) 93,62 %
17.10.2016 14:06 11,3 C 91 % 1022,8 hPa 0,0 l/m 11,5 km/h (2 Bft) NO 45 0 min 0,000 mm 0,7 UV-I 148 W/m 9,9 C 8,3 C 17,7 km/h (3 Bft) 97,87 %
17.10.2016 14:08 11,2 C 90 % 1022,8 hPa 0,0 l/m 11,0 km/h (2 Bft) O-NO 57 0 min 0,000 mm 0,6 UV-I 127 W/m 9,6 C 8,4 C 16,1 km/h (3 Bft) 97,87 %
17.10.2016 14:10 11,1 C 90 % 1022,8 hPa 0,0 l/m 9,6 km/h (2 Bft) O-NO 63 0 min 0,000 mm 0,6 UV-I 124 W/m 9,5 C 9,0 C 14,5 km/h (3 Bft) 97,14 %
17.10.2016 14:12 11,1 C 90 % 1022,8 hPa 0,0 l/m 9,7 km/h (2 Bft) NO 47 0 min 0,000 mm 0,6 UV-I 125 W/m 9,5 C 9,0 C 14,5 km/h (3 Bft) 97,87 %
17.10.2016 14:14 11,1 C 91 % 1022,7 hPa 0,0 l/m 7,8 km/h (2 Bft) NO 47 0 min 0,000 mm 0,6 UV-I 136 W/m 9,7 C 10,1 C 12,9 km/h (3 Bft) 98,00 %
17.10.2016 14:16 11,2 C 91 % 1022,8 hPa 0,0 l/m 8,4 km/h (2 Bft) O-NO 61 0 min 0,000 mm 0,6 UV-I 140 W/m 9,8 C 9,9 C 12,9 km/h (3 Bft) 97,87 %
17.10.2016 14:18 11,2 C 91 % 1022,8 hPa 0,0 l/m 6,8 km/h (2 Bft) NO 49 0 min 0,000 mm 0,6 UV-I 141 W/m 9,8 C 10,9 C 11,3 km/h (2 Bft) 98,00 %
17.10.2016 14:20 11,2 C 91 % 1022,7 hPa 0,0 l/m 10,1 km/h (2 Bft) NO 34 0 min 0,000 mm 0,6 UV-I 150 W/m 9,8 C 8,9 C 14,5 km/h (3 Bft) 100,00 %
17.10.2016 14:22 11,2 C 90 % 1022,7 hPa 0,0 l/m 9,4 km/h (2 Bft) NO 52 0 min 0,000 mm 0,7 UV-I 163 W/m 9,6 C 9,3 C 14,5 km/h (3 Bft) 100,00 %
17.10.2016 14:24 11,2 C 90 % 1022,6 hPa 0,0 l/m 12,3 km/h (3 Bft) NO 42 0 min 0,000 mm 0,8 UV-I 175 W/m 9,6 C 7,8 C 16,1 km/h (3 Bft) 100,00 %
17.10.2016 14:26 11,3 C 91 % 1022,6 hPa 0,0 l/m 14,6 km/h (3 Bft) N-NO 16 0 min 0,000 mm 0,8 UV-I 176 W/m 9,9 C 6,9 C 17,7 km/h (3 Bft) 100,00 %
17.10.2016 14:28 11,3 C 91 % 1022,6 hPa 0,0 l/m 7,5 km/h (2 Bft) O-NO 59 0 min 0,000 mm 0,7 UV-I 169 W/m 9,9 C 10,5 C 12,9 km/h (3 Bft) 100,00 %
17.10.2016 14:30 11,2 C 90 % 1022,6 hPa 0,0 l/m 9,0 km/h (2 Bft) NO 38 0 min 0,000 mm 0,7 UV-I 160 W/m 9,6 C 9,5 C 14,5 km/h (3 Bft) 100,00 %
17.10.2016 14:32 11,3 C 90 % 1022,7 hPa 0,0 l/m 7,4 km/h (2 Bft) O-NO 69 0 min 0,000 mm 0,6 UV-I 153 W/m 9,7 C 10,6 C 12,9 km/h (3 Bft) 100,00 %
17.10.2016 14:34 11,3 C 91 % 1022,6 hPa 0,0 l/m 7,1 km/h (2 Bft) NO 45 0 min 0,000 mm 0,7 UV-I 165 W/m 9,9 C 10,8 C 11,3 km/h (2 Bft) 100,00 %
17.10.2016 14:36 11,3 C 90 % 1022,6 hPa 0,0 l/m 8,8 km/h (2 Bft) NO 49 0 min 0,000 mm 0,8 UV-I 184 W/m 9,7 C 9,7 C 14,5 km/h (3 Bft) 97,87 %
17.10.2016 14:38 11,4 C 90 % 1022,6 hPa 0,0 l/m 10,3 km/h (2 Bft) NO 36 0 min 0,000 mm 0,8 UV-I 192 W/m 9,8 C 9,0 C 16,1 km/h (3 Bft) 98,00 %
17.10.2016 14:40 11,4 C 91 % 1022,6 hPa 0,0 l/m 11,8 km/h (2 Bft) N-NO 21 0 min 0,000 mm 0,7 UV-I 183 W/m 10,0 C 8,2 C 17,7 km/h (3 Bft) 97,87 %
17.10.2016 14:42 11,4 C 90 % 1022,6 hPa 0,0 l/m 8,1 km/h (2 Bft) NO 50 0 min 0,000 mm 0,7 UV-I 174 W/m 9,8 C 10,3 C 14,5 km/h (3 Bft) 98,00 %
17.10.2016 14:44 11,4 C 90 % 1022,6 hPa 0,0 l/m 9,4 km/h (2 Bft) NO 48 0 min 0,000 mm 0,7 UV-I 166 W/m 9,8 C 9,5 C 14,5 km/h (3 Bft) 95,74 %
17.10.2016 14:46 11,4 C 89 % 1022,6 hPa 0,0 l/m 8,0 km/h (2 Bft) NO 41 0 min 0,000 mm 0,6 UV-I 156 W/m 9,7 C 10,3 C 14,5 km/h (3 Bft) 97,87 %
17.10.2016 14:48 11,3 C 89 % 1022,6 hPa 0,0 l/m 9,5 km/h (2 Bft) NO 42 0 min 0,000 mm 0,6 UV-I 156 W/m 9,6 C 9,3 C 16,1 km/h (3 Bft) 100,00 %
17.10.2016 14:50 11,3 C 89 % 1022,6 hPa 0,0 l/m 11,7 km/h (2 Bft) O-NO 60 0 min 0,000 mm 0,6 UV-I 159 W/m 9,6 C 8,2 C 17,7 km/h (3 Bft) 97,87 %
17.10.2016 14:52 11,3 C 89 % 1022,7 hPa 0,0 l/m 9,6 km/h (2 Bft) O-NO 65 0 min 0,000 mm 0,6 UV-I 153 W/m 9,6 C 9,3 C 14,5 km/h (3 Bft) 97,87 %
17.10.2016 14:54 11,3 C 89 % 1022,7 hPa 0,0 l/m 9,5 km/h (2 Bft) NO 42 0 min 0,000 mm 0,6 UV-I 149 W/m 9,6 C 9,3 C 14,5 km/h (3 Bft) 100,00 %
17.10.2016 14:56 11,3 C 90 % 1022,7 hPa 0,0 l/m 6,8 km/h (2 Bft) NO 36 0 min 0,000 mm 0,6 UV-I 142 W/m 9,7 C 11,0 C 11,3 km/h (2 Bft) 100,00 %
17.10.2016 14:58 11,3 C 90 % 1022,6 hPa 0,0 l/m 8,4 km/h (2 Bft) NO 40 0 min 0,000 mm 0,5 UV-I 137 W/m 9,7 C 10,0 C 14,5 km/h (3 Bft) 100,00 %
17.10.2016 15:00 11,3 C 89 % 1022,7 hPa 0,0 l/m 10,9 km/h (2 Bft) O-NO 58 0 min 0,077 mm 0,5 UV-I 134 W/m 9,6 C 8,6 C 14,5 km/h (3 Bft) 100,00 %
17.10.2016 15:02 11,2 C 89 % 1022,7 hPa 0,0 l/m 10,4 km/h (2 Bft) NO 50 0 min 0,000 mm 0,5 UV-I 131 W/m 9,5 C 8,7 C 14,5 km/h (3 Bft) 97,87 %
17.10.2016 15:04 11,2 C 89 % 1022,7 hPa 0,0 l/m 8,9 km/h (2 Bft) NO 35 0 min 0,000 mm 0,5 UV-I 131 W/m 9,5 C 9,6 C 14,5 km/h (3 Bft) 100,00 %
17.10.2016 15:06 11,3 C 90 % 1022,7 hPa 0,0 l/m 9,8 km/h (2 Bft) NO 44 0 min 0,000 mm 0,5 UV-I 134 W/m 9,7 C 9,1 C 16,1 km/h (3 Bft) 98,00 %
17.10.2016 15:08 11,3 C 90 % 1022,6 hPa 0,0 l/m 10,3 km/h (2 Bft) O-NO 58 0 min 0,000 mm 0,5 UV-I 137 W/m 9,7 C 8,9 C 14,5 km/h (3 Bft) 100,00 %
17.10.2016 15:10 11,2 C 89 % 1022,6 hPa 0,0 l/m 9,9 km/h (2 Bft) O-NO 68 0 min 0,000 mm 0,5 UV-I 129 W/m 9,5 C 9,0 C 14,5 km/h (3 Bft) 100,00 %
17.10.2016 15:12 11,2 C 89 % 1022,6 hPa 0,0 l/m 8,3 km/h (2 Bft) O-NO 57 0 min 0,000 mm 0,5 UV-I 121 W/m 9,5 C 9,9 C 12,9 km/h (3 Bft) 100,00 %
17.10.2016 15:14 11,2 C 89 % 1022,6 hPa 0,0 l/m 8,8 km/h (2 Bft) O-NO 65 0 min 0,000 mm 0,0 UV-I 115 W/m 9,5 C 9,6 C 14,5 km/h (3 Bft) 100,00 %
17.10.2016 15:16 11,2 C 90 % 1022,6 hPa 0,0 l/m 9,0 km/h (2 Bft) NO 36 0 min 0,000 mm 0,0 UV-I 106 W/m 9,6 C 9,5 C 14,5 km/h (3 Bft) 100,00 %
17.10.2016 15:18 11,3 C 90 % 1022,6 hPa 0,0 l/m 8,4 km/h (2 Bft) NO 44 0 min 0,000 mm 0,0 UV-I 101 W/m 9,7 C 10,0 C 14,5 km/h (3 Bft) 100,00 %
17.10.2016 15:20 11,3 C 90 % 1022,6 hPa 0,0 l/m 9,4 km/h (2 Bft) NO 42 0 min 0,000 mm 0,0 UV-I 100 W/m 9,7 C 9,4 C 14,5 km/h (3 Bft) 97,87 %
17.10.2016 15:22 11,3 C 90 % 1022,6 hPa 0,0 l/m 8,4 km/h (2 Bft) NO 42 0 min 0,000 mm 0,0 UV-I 98 W/m 9,7 C 10,0 C 14,5 km/h (3 Bft) 97,87 %
17.10.2016 15:24 11,3 C 89 % 1022,6 hPa 0,0 l/m 9,3 km/h (2 Bft) O-NO 71 0 min 0,000 mm 0,0 UV-I 99 W/m 9,6 C 9,4 C 12,9 km/h (3 Bft) 97,87 %
17.10.2016 15:26 11,2 C 89 % 1022,5 hPa 0,0 l/m 9,0 km/h (2 Bft) NO 46 0 min 0,000 mm 0,0 UV-I 102 W/m 9,5 C 9,5 C 14,5 km/h (3 Bft) 97,87 %
17.10.2016 15:28 11,2 C 90 % 1022,5 hPa 0,0 l/m 9,3 km/h (2 Bft) NO 47 0 min 0,000 mm 0,0 UV-I 99 W/m 9,6 C 9,3 C 16,1 km/h (3 Bft) 100,00 %
17.10.2016 15:30 11,3 C 90 % 1022,5 hPa 0,0 l/m 9,8 km/h (2 Bft) NO 38 0 min 0,000 mm 0,0 UV-I 100 W/m 9,7 C 9,1 C 14,5 km/h (3 Bft) 100,00 %
17.10.2016 15:32 11,3 C 90 % 1022,5 hPa 0,0 l/m 8,1 km/h (2 Bft) O-NO 63 0 min 0,000 mm 0,0 UV-I 101 W/m 9,7 C 10,2 C 11,3 km/h (2 Bft) 100,00 %
17.10.2016 15:34 11,3 C 90 % 1022,6 hPa 0,0 l/m 8,5 km/h (2 Bft) NO 44 0 min 0,000 mm 0,0 UV-I 101 W/m 9,7 C 9,9 C 14,5 km/h (3 Bft) 100,00 %
17.10.2016 15:36 11,3 C 90 % 1022,7 hPa 0,0 l/m 5,0 km/h (1 Bft) NO 53 0 min 0,000 mm 0,0 UV-I 101 W/m 9,7 C 11,3 C 8,0 km/h (2 Bft) 100,00 %
17.10.2016 15:38 11,3 C 90 % 1022,6 hPa 0,0 l/m 6,4 km/h (2 Bft) NO 46 0 min 0,000 mm 0,0 UV-I 96 W/m 9,7 C 11,3 C 11,3 km/h (2 Bft) 98,00 %
17.10.2016 15:40 11,2 C 90 % 1022,5 hPa 0,0 l/m 8,7 km/h (2 Bft) NO 44 0 min 0,000 mm 0,0 UV-I 104 W/m 9,6 C 9,7 C 14,5 km/h (3 Bft) 97,87 %
17.10.2016 15:42 11,2 C 90 % 1022,5 hPa 0,0 l/m 10,5 km/h (2 Bft) O-NO 66 0 min 0,000 mm 0,0 UV-I 110 W/m 9,6 C 8,7 C 16,1 km/h (3 Bft) 100,00 %
17.10.2016 15:44 11,2 C 90 % 1022,6 hPa 0,0 l/m 7,1 km/h (2 Bft) O-NO 74 0 min 0,000 mm 0,0 UV-I 102 W/m 9,6 C 10,7 C 11,3 km/h (2 Bft) 97,92 %
17.10.2016 15:46 11,2 C 90 % 1022,5 hPa 0,0 l/m 8,4 km/h (2 Bft) NO 44 0 min 0,000 mm 0,0 UV-I 98 W/m 9,6 C 9,9 C 11,3 km/h (2 Bft) 95,74 %
17.10.2016 15:48 11,2 C 90 % 1022,6 hPa 0,0 l/m 9,8 km/h (2 Bft) N-NO 32 0 min 0,000 mm 0,0 UV-I 98 W/m 9,6 C 9,0 C 14,5 km/h (3 Bft) 100,00 %
17.10.2016 15:50 11,2 C 90 % 1022,6 hPa 0,0 l/m 7,4 km/h (2 Bft) O-NO 66 0 min 0,000 mm 0,0 UV-I 95 W/m 9,6 C 10,5 C 12,9 km/h (3 Bft) 95,74 %
17.10.2016 15:52 11,1 C 90 % 1022,6 hPa 0,0 l/m 8,3 km/h (2 Bft) O-NO 57 0 min 0,000 mm 0,0 UV-I 90 W/m 9,5 C 9,8 C 11,3 km/h (2 Bft) 95,74 %
17.10.2016 15:54 11,1 C 89 % 1022,7 hPa 0,0 l/m 7,4 km/h (2 Bft) NO 44 0 min 0,000 mm 0,0 UV-I 87 W/m 9,4 C 10,4 C 12,9 km/h (3 Bft) 97,87 %
17.10.2016 15:56 11,1 C 90 % 1022,6 hPa 0,0 l/m 7,2 km/h (2 Bft) NO 45 0 min 0,000 mm 0,0 UV-I 88 W/m 9,5 C 10,5 C 11,3 km/h (2 Bft) 98,00 %
17.10.2016 15:58 11,2 C 90 % 1022,6 hPa 0,0 l/m 6,3 km/h (2 Bft) O-NO 69 0 min 0,000 mm 0,0 UV-I 86 W/m 9,6 C 11,2 C 9,7 km/h (2 Bft) 93,62 %
17.10.2016 16:00 11,1 C 90 % 1022,6 hPa 0,0 l/m 10,1 km/h (2 Bft) O-NO 70 0 min 0,050 mm 0,0 UV-I 85 W/m 9,5 C 8,8 C 14,5 km/h (3 Bft) 95,74 %
17.10.2016 16:02 11,1 C 90 % 1022,6 hPa 0,0 l/m 9,8 km/h (2 Bft) O-NO 59 0 min 0,000 mm 0,0 UV-I 88 W/m 9,5 C 8,9 C 14,5 km/h (3 Bft) 97,87 %
17.10.2016 16:04 11,1 C 90 % 1022,6 hPa 0,0 l/m 8,4 km/h (2 Bft) NO 44 0 min 0,000 mm 0,0 UV-I 86 W/m 9,5 C 9,8 C 14,5 km/h (3 Bft) 95,74 %
17.10.2016 16:06 11,1 C 90 % 1022,6 hPa 0,0 l/m 9,3 km/h (2 Bft) O 80 0 min 0,000 mm 0,0 UV-I 82 W/m 9,5 C 9,2 C 12,9 km/h (3 Bft) 95,92 %
17.10.2016 16:08 11,1 C 90 % 1022,5 hPa 0,0 l/m 8,4 km/h (2 Bft) NO 46 0 min 0,000 mm 0,0 UV-I 83 W/m 9,5 C 9,8 C 12,9 km/h (3 Bft) 94,00 %
17.10.2016 16:10 11,1 C 90 % 1022,5 hPa 0,0 l/m 9,8 km/h (2 Bft) O-NO 72 0 min 0,000 mm 0,0 UV-I 87 W/m 9,5 C 8,9 C 14,5 km/h (3 Bft) 97,14 %
17.10.2016 16:12 11,1 C 90 % 1022,4 hPa 0,0 l/m 6,5 km/h (2 Bft) O-NO 57 0 min 0,000 mm 0,0 UV-I 88 W/m 9,5 C 11,1 C 11,3 km/h (2 Bft) 97,87 %
17.10.2016 16:14 11,1 C 91 % 1022,4 hPa 0,0 l/m 5,8 km/h (2 Bft) O-NO 77 0 min 0,000 mm 0,0 UV-I 86 W/m 9,7 C 11,1 C 9,7 km/h (2 Bft) 100,00 %
17.10.2016 16:16 11,1 C 90 % 1022,4 hPa 0,0 l/m 8,4 km/h (2 Bft) O 80 0 min 0,000 mm 0,0 UV-I 84 W/m 9,5 C 9,8 C 14,5 km/h (3 Bft) 100,00 %
17.10.2016 16:18 11,1 C 90 % 1022,5 hPa 0,0 l/m 8,9 km/h (2 Bft) NO 46 0 min 0,000 mm 0,0 UV-I 81 W/m 9,5 C 9,4 C 12,9 km/h (3 Bft) 100,00 %
17.10.2016 16:20 11,1 C 90 % 1022,4 hPa 0,0 l/m 6,5 km/h (2 Bft) O-NO 62 0 min 0,000 mm 0,0 UV-I 82 W/m 9,5 C 11,1 C 11,3 km/h (2 Bft) 100,00 %
17.10.2016 16:22 11,1 C 90 % 1022,4 hPa 0,0 l/m 7,4 km/h (2 Bft) O-NO 60 0 min 0,000 mm 0,0 UV-I 83 W/m 9,5 C 10,4 C 12,9 km/h (3 Bft) 100,00 %
17.10.2016 16:24 11,1 C 90 % 1022,4 hPa 0,0 l/m 6,6 km/h (2 Bft) O 80 0 min 0,000 mm 0,0 UV-I 82 W/m 9,5 C 11,0 C 11,3 km/h (2 Bft) 100,00 %
17.10.2016 16:26 11,1 C 90 % 1022,4 hPa 0,0 l/m 8,4 km/h (2 Bft) O-NO 67 0 min 0,000 mm 0,0 UV-I 78 W/m 9,5 C 9,8 C 12,9 km/h (3 Bft) 97,87 %
17.10.2016 16:28 11,1 C 90 % 1022,4 hPa 0,0 l/m 10,5 km/h (2 Bft) O-NO 59 0 min 0,000 mm 0,0 UV-I 76 W/m 9,5 C 8,5 C 16,1 km/h (3 Bft) 100,00 %
17.10.2016 16:30 11,1 C 90 % 1022,4 hPa 0,0 l/m 10,5 km/h (2 Bft) NO 53 0 min 0,000 mm 0,0 UV-I 76 W/m 9,5 C 8,5 C 14,5 km/h (3 Bft) 100,00 %
17.10.2016 16:32 11,0 C 90 % 1022,4 hPa 0,0 l/m 7,0 km/h (2 Bft) NO 51 0 min 0,000 mm 0,0 UV-I 74 W/m 9,4 C 10,6 C 11,3 km/h (2 Bft) 100,00 %
17.10.2016 16:34 11,0 C 90 % 1022,4 hPa 0,0 l/m 8,8 km/h (2 Bft) NO 53 0 min 0,000 mm 0,0 UV-I 69 W/m 9,4 C 9,4 C 12,9 km/h (3 Bft) 100,00 %
17.10.2016 16:36 11,0 C 90 % 1022,4 hPa 0,0 l/m 10,2 km/h (2 Bft) O-NO 65 0 min 0,000 mm 0,0 UV-I 67 W/m 9,4 C 8,6 C 12,9 km/h (3 Bft) 100,00 %
17.10.2016 16:38 11,0 C 90 % 1022,4 hPa 0,0 l/m 10,0 km/h (2 Bft) O-NO 59 0 min 0,000 mm 0,0 UV-I 63 W/m 9,4 C 8,7 C 14,5 km/h (3 Bft) 100,00 %
17.10.2016 16:40 11,0 C 90 % 1022,5 hPa 0,0 l/m 9,7 km/h (2 Bft) O-NO 68 0 min 0,000 mm 0,0 UV-I 63 W/m 9,4 C 8,9 C 14,5 km/h (3 Bft) 100,00 %
17.10.2016 16:42 10,9 C 91 % 1022,4 hPa 0,0 l/m 7,8 km/h (2 Bft) O-NO 58 0 min 0,000 mm 0,0 UV-I 65 W/m 9,5 C 9,9 C 14,5 km/h (3 Bft) 100,00 %
17.10.2016 16:44 11,0 C 91 % 1022,5 hPa 0,0 l/m 7,4 km/h (2 Bft) O-NO 69 0 min 0,000 mm 0,0 UV-I 63 W/m 9,6 C 10,3 C 14,5 km/h (3 Bft) 93,62 %
17.10.2016 16:46 11,0 C 91 % 1022,5 hPa 0,0 l/m 6,3 km/h (2 Bft) O 86 0 min 0,000 mm 0,0 UV-I 56 W/m 9,6 C 11,0 C 11,3 km/h (2 Bft) 100,00 %
17.10.2016 16:48 11,0 C 91 % 1022,5 hPa 0,0 l/m 4,1 km/h (1 Bft) NO 53 0 min 0,000 mm 0,0 UV-I 54 W/m 9,6 C 11,0 C 6,4 km/h (2 Bft) 100,00 %
17.10.2016 16:50 11,0 C 91 % 1022,4 hPa 0,0 l/m 7,3 km/h (2 Bft) O-NO 71 0 min 0,000 mm 0,0 UV-I 55 W/m 9,6 C 10,4 C 11,3 km/h (2 Bft) 100,00 %
17.10.2016 16:52 11,0 C 91 % 1022,5 hPa 0,0 l/m 6,7 km/h (2 Bft) O-NO 74 0 min 0,000 mm 0,0 UV-I 53 W/m 9,6 C 10,8 C 11,3 km/h (2 Bft) 100,00 %
17.10.2016 16:54 11,0 C 91 % 1022,5 hPa 0,0 l/m 5,8 km/h (2 Bft) O-NO 65 0 min 0,000 mm 0,0 UV-I 45 W/m 9,6 C 11,0 C 9,7 km/h (2 Bft) 100,00 %
17.10.2016 16:56 11,0 C 91 % 1022,5 hPa 0,0 l/m 8,9 km/h (2 Bft) O-NO 68 0 min 0,000 mm 0,0 UV-I 46 W/m 9,6 C 9,3 C 12,9 km/h (3 Bft) 100,00 %
17.10.2016 16:58 10,9 C 91 % 1022,4 hPa 0,0 l/m 9,2 km/h (2 Bft) O-NO 74 0 min 0,000 mm 0,0 UV-I 47 W/m 9,5 C 9,0 C 16,1 km/h (3 Bft) 100,00 %
17.10.2016 17:00 10,9 C 90 % 1022,4 hPa 0,0 l/m 8,5 km/h (2 Bft) O-NO 61 0 min 0,051 mm 0,0 UV-I 42 W/m 9,3 C 9,5 C 14,5 km/h (3 Bft) 100,00 %
17.10.2016 17:02 10,9 C 91 % 1022,4 hPa 0,0 l/m 8,5 km/h (2 Bft) O-NO 74 0 min 0,000 mm 0,0 UV-I 40 W/m 9,5 C 9,5 C 12,9 km/h (3 Bft) 100,00 %
17.10.2016 17:04 10,9 C 91 % 1022,3 hPa 0,0 l/m 10,1 km/h (2 Bft) O-NO 74 0 min 0,000 mm 0,0 UV-I 40 W/m 9,5 C 8,5 C 14,5 km/h (3 Bft) 100,00 %
17.10.2016 17:06 10,9 C 90 % 1022,4 hPa 0,0 l/m 10,4 km/h (2 Bft) N-NO 30 0 min 0,000 mm 0,0 UV-I 38 W/m 9,3 C 8,4 C 14,5 km/h (3 Bft) 100,00 %
17.10.2016 17:08 10,9 C 90 % 1022,4 hPa 0,0 l/m 8,7 km/h (2 Bft) O-NO 66 0 min 0,000 mm 0,0 UV-I 37 W/m 9,3 C 9,4 C 14,5 km/h (3 Bft) 100,00 %
17.10.2016 17:10 10,9 C 91 % 1022,4 hPa 0,0 l/m 7,9 km/h (2 Bft) O-NO 74 0 min 0,000 mm 0,0 UV-I 34 W/m 9,5 C 9,9 C 11,3 km/h (2 Bft) 100,00 %
17.10.2016 17:12 10,8 C 91 % 1022,4 hPa 0,0 l/m 6,4 km/h (2 Bft) O-NO 74 0 min 0,000 mm 0,0 UV-I 32 W/m 9,4 C 10,8 C 11,3 km/h (2 Bft) 100,00 %
17.10.2016 17:14 10,8 C 91 % 1022,4 hPa 0,0 l/m 7,5 km/h (2 Bft) O 81 0 min 0,000 mm 0,0 UV-I 30 W/m 9,4 C 10,0 C 14,5 km/h (3 Bft) 100,00 %
17.10.2016 17:16 10,8 C 91 % 1022,3 hPa 0,0 l/m 8,3 km/h (2 Bft) O-NO 68 0 min 0,000 mm 0,0 UV-I 32 W/m 9,4 C 9,5 C 12,9 km/h (3 Bft) 100,00 %
17.10.2016 17:18 10,8 C 91 % 1022,3 hPa 0,0 l/m 8,1 km/h (2 Bft) O 80 0 min 0,000 mm 0,0 UV-I 30 W/m 9,4 C 9,6 C 12,9 km/h (3 Bft) 100,00 %
17.10.2016 17:20 10,8 C 91 % 1022,4 hPa 0,0 l/m 7,4 km/h (2 Bft) O-NO 74 0 min 0,000 mm 0,0 UV-I 29 W/m 9,4 C 10,1 C 11,3 km/h (2 Bft) 100,00 %
17.10.2016 17:22 10,8 C 91 % 1022,3 hPa 0,0 l/m 7,6 km/h (2 Bft) O-NO 59 0 min 0,000 mm 0,0 UV-I 27 W/m 9,4 C 10,0 C 12,9 km/h (3 Bft) 98,00 %
17.10.2016 17:24 10,8 C 91 % 1022,4 hPa 0,0 l/m 8,3 km/h (2 Bft) O-NO 61 0 min 0,000 mm 0,0 UV-I 26 W/m 9,4 C 9,5 C 12,9 km/h (3 Bft) 98,00 %
17.10.2016 17:26 10,8 C 91 % 1022,3 hPa 0,0 l/m 6,2 km/h (2 Bft) O-NO 59 0 min 0,000 mm 0,0 UV-I 24 W/m 9,4 C 10,8 C 9,7 km/h (2 Bft) 100,00 %
17.10.2016 17:28 10,8 C 91 % 1022,3 hPa 0,0 l/m 7,0 km/h (2 Bft) NO 53 0 min 0,000 mm 0,0 UV-I 21 W/m 9,4 C 10,4 C 12,9 km/h (3 Bft) 97,87 %
17.10.2016 17:30 10,8 C 91 % 1022,4 hPa 0,0 l/m 6,5 km/h (2 Bft) O 84 0 min 0,000 mm 0,0 UV-I 21 W/m 9,4 C 10,8 C 11,3 km/h (2 Bft) 97,87 %
17.10.2016 17:32 10,8 C 91 % 1022,3 hPa 0,0 l/m 9,0 km/h (2 Bft) O-NO 76 0 min 0,000 mm 0,0 UV-I 19 W/m 9,4 C 9,1 C 12,9 km/h (3 Bft) 95,74 %
17.10.2016 17:34 10,7 C 91 % 1022,4 hPa 0,0 l/m 8,8 km/h (2 Bft) O-NO 71 0 min 0,000 mm 0,0 UV-I 17 W/m 9,3 C 9,1 C 11,3 km/h (2 Bft) 97,87 %
17.10.2016 17:36 10,7 C 91 % 1022,5 hPa 0,0 l/m 7,0 km/h (2 Bft) NO 51 0 min 0,000 mm 0,0 UV-I 16 W/m 9,3 C 10,3 C 9,7 km/h (2 Bft) 100,00 %
17.10.2016 17:38 10,7 C 91 % 1022,5 hPa 0,0 l/m 7,1 km/h (2 Bft) O-NO 67 0 min 0,000 mm 0,0 UV-I 15 W/m 9,3 C 10,2 C 12,9 km/h (3 Bft) 100,00 %
17.10.2016 17:40 10,7 C 91 % 1022,4 hPa 0,0 l/m 8,6 km/h (2 Bft) O 79 0 min 0,000 mm 0,0 UV-I 13 W/m 9,3 C 9,2 C 12,9 km/h (3 Bft) 100,00 %
17.10.2016 17:42 10,7 C 91 % 1022,5 hPa 0,0 l/m 9,2 km/h (2 Bft) O 80 0 min 0,000 mm 0,0 UV-I 12 W/m 9,3 C 8,8 C 14,5 km/h (3 Bft) 97,92 %
17.10.2016 17:44 10,7 C 91 % 1022,4 hPa 0,0 l/m 9,3 km/h (2 Bft) O-NO 78 0 min 0,000 mm 0,0 UV-I 12 W/m 9,3 C 8,8 C 16,1 km/h (3 Bft) 97,87 %
17.10.2016 17:46 10,7 C 91 % 1022,4 hPa 0,0 l/m 7,1 km/h (2 Bft) NO 49 0 min 0,000 mm 0,0 UV-I 11 W/m 9,3 C 10,2 C 11,3 km/h (2 Bft) 97,87 %
17.10.2016 17:48 10,7 C 91 % 1022,4 hPa 0,0 l/m 6,8 km/h (2 Bft) O-NO 65 0 min 0,000 mm 0,0 UV-I 11 W/m 9,3 C 10,4 C 9,7 km/h (2 Bft) 95,74 %
17.10.2016 17:50 10,7 C 91 % 1022,4 hPa 0,0 l/m 6,0 km/h (2 Bft) O-NO 70 0 min 0,000 mm 0,0 UV-I 11 W/m 9,3 C 10,7 C 9,7 km/h (2 Bft) 97,87 %
17.10.2016 17:52 10,6 C 91 % 1022,4 hPa 0,0 l/m 7,0 km/h (2 Bft) O-NO 57 0 min 0,000 mm 0,0 UV-I 10 W/m 9,2 C 10,2 C 11,3 km/h (2 Bft) 94,74 %
17.10.2016 17:54 10,6 C 91 % 1022,4 hPa 0,0 l/m 7,7 km/h (2 Bft) O-NO 71 0 min 0,000 mm 0,0 UV-I 8 W/m 9,2 C 9,7 C 12,9 km/h (3 Bft) 95,74 %
17.10.2016 17:56 10,6 C 91 % 1022,4 hPa 0,0 l/m 6,0 km/h (2 Bft) O-NO 65 0 min 0,000 mm 0,0 UV-I 7 W/m 9,2 C 10,6 C 8,0 km/h (2 Bft) 95,74 %
17.10.2016 17:58 10,6 C 91 % 1022,3 hPa 0,0 l/m 5,7 km/h (1 Bft) NO 48 0 min 0,000 mm 0,0 UV-I 7 W/m 9,2 C 10,6 C 8,0 km/h (2 Bft) 97,87 %
17.10.2016 18:00 10,6 C 91 % 1022,3 hPa 0,0 l/m 5,5 km/h (1 Bft) O-NO 61 0 min 0,000 mm 0,0 UV-I 5 W/m 9,2 C 10,6 C 8,0 km/h (2 Bft) 93,62 %
17.10.2016 18:02 10,6 C 91 % 1022,4 hPa 0,0 l/m 4,8 km/h (1 Bft) O-NO 68 0 min 0,026 mm 0,0 UV-I 3 W/m 9,2 C 10,6 C 6,4 km/h (2 Bft) 98,11 %
17.10.2016 18:04 10,6 C 91 % 1022,4 hPa 0,0 l/m 5,9 km/h (2 Bft) O-NO 61 0 min 0,000 mm 0,0 UV-I 0 W/m 9,2 C 10,6 C 8,0 km/h (2 Bft) 97,87 %
17.10.2016 18:06 10,6 C 91 % 1022,4 hPa 0,0 l/m 6,4 km/h (2 Bft) O 97 0 min 0,000 mm 0,0 UV-I 0 W/m 9,2 C 10,6 C 12,9 km/h (3 Bft) 93,62 %
17.10.2016 18:08 10,6 C 91 % 1022,5 hPa 0,0 l/m 5,1 km/h (1 Bft) O-NO 78 0 min 0,000 mm 0,0 UV-I 0 W/m 9,2 C 10,6 C 8,0 km/h (2 Bft) 95,74 %
17.10.2016 18:10 10,6 C 91 % 1022,4 hPa 0,0 l/m 3,8 km/h (1 Bft) O-NO 66 0 min 0,000 mm 0,0 UV-I 0 W/m 9,2 C 10,6 C 8,0 km/h (2 Bft) 95,74 %
17.10.2016 18:12 10,5 C 91 % 1022,4 hPa 0,0 l/m 6,7 km/h (2 Bft) O 91 0 min 0,000 mm 0,0 UV-I 0 W/m 9,1 C 10,3 C 12,9 km/h (3 Bft) 95,74 %
17.10.2016 18:14 10,5 C 91 % 1022,5 hPa 0,0 l/m 6,2 km/h (2 Bft) O-NO 63 0 min 0,000 mm 0,0 UV-I 0 W/m 9,1 C 10,5 C 8,0 km/h (2 Bft) 97,87 %
17.10.2016 18:16 10,4 C 91 % 1022,4 hPa 0,0 l/m 6,0 km/h (2 Bft) O 81 0 min 0,000 mm 0,0 UV-I 0 W/m 9,0 C 10,4 C 9,7 km/h (2 Bft) 100,00 %
17.10.2016 18:18 10,4 C 91 % 1022,5 hPa 0,0 l/m 5,7 km/h (1 Bft) O-NO 74 0 min 0,000 mm 0,0 UV-I 0 W/m 9,0 C 10,4 C 11,3 km/h (2 Bft) 97,87 %
17.10.2016 18:20 10,4 C 91 % 1022,5 hPa 0,0 l/m 5,5 km/h (1 Bft) O-NO 76 0 min 0,000 mm 0,0 UV-I 0 W/m 9,0 C 10,4 C 6,4 km/h (2 Bft) 100,00 %
17.10.2016 18:22 10,4 C 91 % 1022,6 hPa 0,0 l/m 5,4 km/h (1 Bft) O-NO 76 0 min 0,000 mm 0,0 UV-I 0 W/m 9,0 C 10,4 C 6,4 km/h (2 Bft) 100,00 %
17.10.2016 18:24 10,4 C 91 % 1022,5 hPa 0,0 l/m 6,2 km/h (2 Bft) O 79 0 min 0,000 mm 0,0 UV-I 0 W/m 9,0 C 10,4 C 11,3 km/h (2 Bft) 97,87 %
17.10.2016 18:26 10,4 C 91 % 1022,5 hPa 0,0 l/m 5,7 km/h (1 Bft) O-NO 78 0 min 0,000 mm 0,0 UV-I 0 W/m 9,0 C 10,4 C 8,0 km/h (2 Bft) 100,00 %
17.10.2016 18:28 10,4 C 91 % 1022,5 hPa 0,0 l/m 3,5 km/h (1 Bft) O-NO 75 0 min 0,000 mm 0,0 UV-I 0 W/m 9,0 C 10,4 C 4,8 km/h (1 Bft) 100,00 %
17.10.2016 18:30 10,4 C 91 % 1022,5 hPa 0,0 l/m 5,6 km/h (1 Bft) O-NO 67 0 min 0,000 mm 0,0 UV-I 0 W/m 9,0 C 10,4 C 11,3 km/h (2 Bft) 100,00 %
17.10.2016 18:32 10,3 C 91 % 1022,5 hPa 0,0 l/m 7,9 km/h (2 Bft) O-NO 75 0 min 0,000 mm 0,0 UV-I 0 W/m 8,9 C 9,2 C 11,3 km/h (2 Bft) 97,87 %
17.10.2016 18:34 10,3 C 91 % 1022,5 hPa 0,0 l/m 8,5 km/h (2 Bft) O-NO 74 0 min 0,000 mm 0,0 UV-I 0 W/m 8,9 C 8,8 C 14,5 km/h (3 Bft) 100,00 %
17.10.2016 18:36 10,3 C 91 % 1022,5 hPa 0,0 l/m 9,5 km/h (2 Bft) O 90 0 min 0,000 mm 0,0 UV-I 0 W/m 8,9 C 8,2 C 14,5 km/h (3 Bft) 100,00 %
17.10.2016 18:38 10,3 C 91 % 1022,5 hPa 0,0 l/m 9,8 km/h (2 Bft) O-NO 73 0 min 0,000 mm 0,0 UV-I 0 W/m 8,9 C 8,0 C 12,9 km/h (3 Bft) 100,00 %
17.10.2016 18:40 10,3 C 91 % 1022,5 hPa 0,0 l/m 6,9 km/h (2 Bft) O-NO 74 0 min 0,000 mm 0,0 UV-I 0 W/m 8,9 C 9,9 C 11,3 km/h (2 Bft) 100,00 %
17.10.2016 18:42 10,3 C 91 % 1022,6 hPa 0,0 l/m 6,6 km/h (2 Bft) O-NO 67 0 min 0,000 mm 0,0 UV-I 0 W/m 8,9 C 10,2 C 11,3 km/h (2 Bft) 100,00 %
17.10.2016 18:44 10,2 C 91 % 1022,6 hPa 0,0 l/m 8,2 km/h (2 Bft) O-NO 65 0 min 0,000 mm 0,0 UV-I 0 W/m 8,8 C 8,9 C 14,5 km/h (3 Bft) 95,74 %
17.10.2016 18:46 10,2 C 91 % 1022,6 hPa 0,0 l/m 10,2 km/h (2 Bft) O-NO 60 0 min 0,000 mm 0,0 UV-I 0 W/m 8,8 C 7,7 C 14,5 km/h (3 Bft) 97,87 %
17.10.2016 18:48 10,2 C 91 % 1022,6 hPa 0,0 l/m 6,4 km/h (2 Bft) O-NO 69 0 min 0,000 mm 0,0 UV-I 0 W/m 8,8 C 10,2 C 11,3 km/h (2 Bft) 100,00 %
17.10.2016 18:50 10,2 C 91 % 1022,7 hPa 0,0 l/m 8,2 km/h (2 Bft) O 79 0 min 0,000 mm 0,0 UV-I 0 W/m 8,8 C 8,9 C 12,9 km/h (3 Bft) 100,00 %
17.10.2016 18:52 10,2 C 91 % 1022,7 hPa 0,0 l/m 5,5 km/h (1 Bft) O-NO 67 0 min 0,000 mm 0,0 UV-I 0 W/m 8,8 C 10,2 C 8,0 km/h (2 Bft) 100,00 %
17.10.2016 18:54 10,2 C 91 % 1022,7 hPa 0,0 l/m 5,5 km/h (1 Bft) O-NO 62 0 min 0,000 mm 0,0 UV-I 0 W/m 8,8 C 10,2 C 9,7 km/h (2 Bft) 100,00 %
17.10.2016 18:56 10,1 C 91 % 1022,7 hPa 0,0 l/m 9,1 km/h (2 Bft) NO 38 0 min 0,000 mm 0,0 UV-I 0 W/m 8,7 C 8,2 C 16,1 km/h (3 Bft) 100,00 %
17.10.2016 18:58 10,1 C 91 % 1022,7 hPa 0,0 l/m 9,2 km/h (2 Bft) O-NO 69 0 min 0,000 mm 0,0 UV-I 0 W/m 8,7 C 8,2 C 16,1 km/h (3 Bft) 100,00 %
17.10.2016 19:00 10,1 C 91 % 1022,7 hPa 0,0 l/m 9,2 km/h (2 Bft) O-NO 62 0 min 0,000 mm 0,0 UV-I 0 W/m 8,7 C 8,2 C 16,1 km/h (3 Bft) 100,00 %
17.10.2016 19:03 10,0 C 91 % 1022,7 hPa 0,0 l/m 8,4 km/h (2 Bft) NO 51 0 min 0,000 mm 0,0 UV-I 0 W/m 8,6 C 8,6 C 12,9 km/h (3 Bft) 97,56 %
17.10.2016 19:04 10,0 C 91 % 1022,7 hPa 0,0 l/m 10,4 km/h (2 Bft) O-NO 64 0 min 0,000 mm 0,0 UV-I 0 W/m 8,6 C 7,4 C 16,1 km/h (3 Bft) 100,00 %
17.10.2016 19:06 10,0 C 91 % 1022,7 hPa 0,0 l/m 9,0 km/h (2 Bft) NO 54 0 min 0,000 mm 0,0 UV-I 0 W/m 8,6 C 8,2 C 14,5 km/h (3 Bft) 100,00 %
17.10.2016 19:08 9,9 C 91 % 1022,7 hPa 0,0 l/m 7,0 km/h (2 Bft) NO 48 0 min 0,000 mm 0,0 UV-I 0 W/m 8,5 C 9,5 C 11,3 km/h (2 Bft) 100,00 %
17.10.2016 19:10 9,9 C 91 % 1022,7 hPa 0,0 l/m 9,1 km/h (2 Bft) O-NO 65 0 min 0,000 mm 0,0 UV-I 0 W/m 8,5 C 8,0 C 14,5 km/h (3 Bft) 97,87 %
17.10.2016 19:12 9,9 C 91 % 1022,7 hPa 0,0 l/m 11,1 km/h (2 Bft) O-NO 67 0 min 0,000 mm 0,0 UV-I 0 W/m 8,5 C 6,9 C 17,7 km/h (3 Bft) 98,00 %
17.10.2016 19:14 9,9 C 91 % 1022,7 hPa 0,0 l/m 11,2 km/h (2 Bft) NO 49 0 min 0,000 mm 0,0 UV-I 0 W/m 8,5 C 6,8 C 16,1 km/h (3 Bft) 100,00 %
17.10.2016 19:16 9,9 C 91 % 1022,8 hPa 0,0 l/m 10,1 km/h (2 Bft) NO 46 0 min 0,000 mm 0,0 UV-I 0 W/m 8,5 C 7,4 C 16,1 km/h (3 Bft) 97,87 %
17.10.2016 19:18 9,9 C 91 % 1022,8 hPa 0,0 l/m 10,1 km/h (2 Bft) NO 50 0 min 0,000 mm 0,0 UV-I 0 W/m 8,5 C 7,4 C 14,5 km/h (3 Bft) 100,00 %
17.10.2016 19:20 9,8 C 92 % 1022,8 hPa 0,0 l/m 8,0 km/h (2 Bft) O-NO 60 0 min 0,000 mm 0,0 UV-I 0 W/m 8,6 C 8,6 C 14,5 km/h (3 Bft) 100,00 %
17.10.2016 19:22 9,8 C 92 % 1022,7 hPa 0,0 l/m 9,1 km/h (2 Bft) O-NO 59 0 min 0,000 mm 0,0 UV-I 0 W/m 8,6 C 7,9 C 12,9 km/h (3 Bft) 100,00 %
17.10.2016 19:24 9,8 C 92 % 1022,7 hPa 0,0 l/m 9,5 km/h (2 Bft) NO 46 0 min 0,000 mm 0,0 UV-I 0 W/m 8,6 C 7,7 C 14,5 km/h (3 Bft) 98,00 %
17.10.2016 19:26 9,8 C 92 % 1022,7 hPa 0,0 l/m 10,1 km/h (2 Bft) O-NO 69 0 min 0,000 mm 0,0 UV-I 0 W/m 8,6 C 7,3 C 16,1 km/h (3 Bft) 100,00 %
17.10.2016 19:28 9,8 C 92 % 1022,7 hPa 0,0 l/m 11,3 km/h (2 Bft) O-NO 69 0 min 0,000 mm 0,0 UV-I 0 W/m 8,6 C 6,6 C 16,1 km/h (3 Bft) 100,00 %
17.10.2016 19:30 9,8 C 92 % 1022,7 hPa 0,0 l/m 9,7 km/h (2 Bft) O-NO 65 0 min 0,000 mm 0,0 UV-I 0 W/m 8,6 C 7,6 C 14,5 km/h (3 Bft) 100,00 %
17.10.2016 19:32 9,8 C 92 % 1022,8 hPa 0,0 l/m 9,5 km/h (2 Bft) O-NO 67 0 min 0,000 mm 0,0 UV-I 0 W/m 8,6 C 7,7 C 14,5 km/h (3 Bft) 100,00 %
17.10.2016 19:34 9,8 C 92 % 1022,7 hPa 0,0 l/m 10,0 km/h (2 Bft) O-NO 61 0 min 0,000 mm 0,0 UV-I 0 W/m 8,6 C 7,4 C 14,5 km/h (3 Bft) 100,00 %
17.10.2016 19:36 9,8 C 92 % 1022,8 hPa 0,0 l/m 7,0 km/h (2 Bft) O 86 0 min 0,000 mm 0,0 UV-I 0 W/m 8,6 C 9,4 C 11,3 km/h (2 Bft) 100,00 %
17.10.2016 19:38 9,7 C 92 % 1022,7 hPa 0,0 l/m 7,6 km/h (2 Bft) O 83 0 min 0,000 mm 0,0 UV-I 0 W/m 8,5 C 8,8 C 11,3 km/h (2 Bft) 97,87 %
17.10.2016 19:40 9,7 C 92 % 1022,8 hPa 0,0 l/m 7,8 km/h (2 Bft) O 82 0 min 0,000 mm 0,0 UV-I 0 W/m 8,5 C 8,7 C 11,3 km/h (2 Bft) 97,92 %
17.10.2016 19:42 9,7 C 92 % 1022,8 hPa 0,0 l/m 9,2 km/h (2 Bft) O-SO 111 0 min 0,000 mm 0,0 UV-I 0 W/m 8,5 C 7,7 C 12,9 km/h (3 Bft) 100,00 %
17.10.2016 19:44 9,7 C 92 % 1022,8 hPa 0,0 l/m 7,8 km/h (2 Bft) O 84 0 min 0,000 mm 0,0 UV-I 0 W/m 8,5 C 8,7 C 12,9 km/h (3 Bft) 97,14 %
17.10.2016 19:46 9,7 C 92 % 1022,9 hPa 0,0 l/m 5,6 km/h (1 Bft) O-SO 109 0 min 0,000 mm 0,0 UV-I 0 W/m 8,5 C 9,7 C 11,3 km/h (2 Bft) 97,87 %
17.10.2016 19:48 9,7 C 92 % 1022,9 hPa 0,0 l/m 8,3 km/h (2 Bft) O-NO 67 0 min 0,000 mm 0,0 UV-I 0 W/m 8,5 C 8,3 C 12,9 km/h (3 Bft) 96,00 %
17.10.2016 19:50 9,7 C 92 % 1022,9 hPa 0,0 l/m 8,4 km/h (2 Bft) O 86 0 min 0,000 mm 0,0 UV-I 0 W/m 8,5 C 8,3 C 12,9 km/h (3 Bft) 97,87 %
17.10.2016 19:52 9,7 C 92 % 1022,8 hPa 0,0 l/m 6,2 km/h (2 Bft) O-NO 61 0 min 0,000 mm 0,0 UV-I 0 W/m 8,5 C 9,7 C 11,3 km/h (2 Bft) 95,74 %
17.10.2016 19:54 9,7 C 92 % 1022,8 hPa 0,0 l/m 8,1 km/h (2 Bft) O-NO 69 0 min 0,000 mm 0,0 UV-I 0 W/m 8,5 C 8,5 C 12,9 km/h (3 Bft) 95,74 %
17.10.2016 19:56 9,7 C 93 % 1022,8 hPa 0,0 l/m 8,9 km/h (2 Bft) O-NO 75 0 min 0,000 mm 0,0 UV-I 0 W/m 8,6 C 7,9 C 12,9 km/h (3 Bft) 94,00 %
17.10.2016 19:58 9,6 C 93 % 1022,8 hPa 0,0 l/m 9,4 km/h (2 Bft) O-NO 69 0 min 0,000 mm 0,0 UV-I 0 W/m 8,5 C 7,5 C 14,5 km/h (3 Bft) 97,87 %
17.10.2016 20:00 9,7 C 93 % 1022,9 hPa 0,0 l/m 4,5 km/h (1 Bft) O-NO 67 0 min 0,000 mm 0,0 UV-I 0 W/m 8,6 C 9,7 C 8,0 km/h (2 Bft) 97,87 %
17.10.2016 20:02 9,6 C 93 % 1022,9 hPa 0,0 l/m 5,6 km/h (1 Bft) O-NO 71 0 min 0,000 mm 0,0 UV-I 0 W/m 8,5 C 9,6 C 8,0 km/h (2 Bft) 97,87 %
17.10.2016 20:04 9,6 C 93 % 1022,9 hPa 0,0 l/m 5,8 km/h (2 Bft) O-NO 67 0 min 0,000 mm 0,0 UV-I 0 W/m 8,5 C 9,6 C 9,7 km/h (2 Bft) 97,87 %
17.10.2016 20:06 9,6 C 93 % 1022,9 hPa 0,0 l/m 6,7 km/h (2 Bft) O-SO 119 0 min 0,000 mm 0,0 UV-I 0 W/m 8,5 C 9,4 C 11,3 km/h (2 Bft) 96,00 %
17.10.2016 20:08 9,6 C 93 % 1022,9 hPa 0,0 l/m 4,7 km/h (1 Bft) O-NO 66 0 min 0,000 mm 0,0 UV-I 0 W/m 8,5 C 9,6 C 6,4 km/h (2 Bft) 95,74 %
17.10.2016 20:10 9,6 C 93 % 1022,8 hPa 0,0 l/m 6,0 km/h (2 Bft) O-NO 57 0 min 0,000 mm 0,0 UV-I 0 W/m 8,5 C 9,6 C 8,0 km/h (2 Bft) 97,87 %
17.10.2016 20:12 9,6 C 93 % 1022,8 hPa 0,0 l/m 6,7 km/h (2 Bft) O-NO 74 0 min 0,000 mm 0,0 UV-I 0 W/m 8,5 C 9,4 C 9,7 km/h (2 Bft) 97,87 %
17.10.2016 20:14 9,6 C 93 % 1022,8 hPa 0,0 l/m 5,5 km/h (1 Bft) O 81 0 min 0,000 mm 0,0 UV-I 0 W/m 8,5 C 9,6 C 9,7 km/h (2 Bft) 97,22 %
17.10.2016 20:16 9,6 C 93 % 1022,8 hPa 0,0 l/m 4,5 km/h (1 Bft) O-NO 71 0 min 0,000 mm 0,0 UV-I 0 W/m 8,5 C 9,6 C 8,0 km/h (2 Bft) 100,00 %
17.10.2016 20:18 9,6 C 93 % 1022,6 hPa 0,0 l/m 7,5 km/h (2 Bft) O-NO 71 0 min 0,000 mm 0,0 UV-I 0 W/m 8,5 C 8,8 C 11,3 km/h (2 Bft) 100,00 %
17.10.2016 20:20 9,6 C 93 % 1022,6 hPa 0,0 l/m 5,9 km/h (2 Bft) NO 40 0 min 0,000 mm 0,0 UV-I 0 W/m 8,5 C 9,6 C 8,0 km/h (2 Bft) 100,00 %
17.10.2016 20:22 9,6 C 93 % 1022,6 hPa 0,0 l/m 5,3 km/h (1 Bft) O-NO 64 0 min 0,000 mm 0,0 UV-I 0 W/m 8,5 C 9,6 C 6,4 km/h (2 Bft) 100,00 %
17.10.2016 20:24 9,6 C 93 % 1022,7 hPa 0,0 l/m 6,9 km/h (2 Bft) O-NO 73 0 min 0,000 mm 0,0 UV-I 0 W/m 8,5 C 9,2 C 11,3 km/h (2 Bft) 100,00 %
17.10.2016 20:26 9,6 C 93 % 1022,7 hPa 0,0 l/m 4,5 km/h (1 Bft) NO 56 0 min 0,000 mm 0,0 UV-I 0 W/m 8,5 C 9,6 C 6,4 km/h (2 Bft) 100,00 %
17.10.2016 20:28 9,6 C 93 % 1022,5 hPa 0,0 l/m 6,3 km/h (2 Bft) NO 35 0 min 0,000 mm 0,0 UV-I 0 W/m 8,5 C 9,6 C 8,0 km/h (2 Bft) 100,00 %
17.10.2016 20:30 9,6 C 93 % 1022,5 hPa 0,0 l/m 7,3 km/h (2 Bft) NO 42 0 min 0,000 mm 0,0 UV-I 0 W/m 8,5 C 8,9 C 9,7 km/h (2 Bft) 100,00 %
17.10.2016 20:32 9,5 C 93 % 1022,6 hPa 0,0 l/m 6,5 km/h (2 Bft) NO 50 0 min 0,000 mm 0,0 UV-I 0 W/m 8,4 C 9,5 C 9,7 km/h (2 Bft) 100,00 %
17.10.2016 20:34 9,5 C 93 % 1022,7 hPa 0,0 l/m 7,3 km/h (2 Bft) NO 49 0 min 0,000 mm 0,0 UV-I 0 W/m 8,4 C 8,8 C 9,7 km/h (2 Bft) 100,00 %
17.10.2016 20:36 9,5 C 93 % 1022,7 hPa 0,0 l/m 6,9 km/h (2 Bft) NO 50 0 min 0,000 mm 0,0 UV-I 0 W/m 8,4 C 9,1 C 9,7 km/h (2 Bft) 97,87 %
17.10.2016 20:38 9,5 C 93 % 1022,7 hPa 0,0 l/m 8,1 km/h (2 Bft) NO 54 0 min 0,000 mm 0,0 UV-I 0 W/m 8,4 C 8,3 C 12,9 km/h (3 Bft) 100,00 %
17.10.2016 20:40 9,5 C 93 % 1022,7 hPa 0,0 l/m 6,7 km/h (2 Bft) O-NO 69 0 min 0,000 mm 0,0 UV-I 0 W/m 8,4 C 9,3 C 9,7 km/h (2 Bft) 100,00 %
17.10.2016 20:42 9,5 C 94 % 1022,8 hPa 0,0 l/m 5,5 km/h (1 Bft) O-NO 69 0 min 0,000 mm 0,0 UV-I 0 W/m 8,6 C 9,5 C 9,7 km/h (2 Bft) 100,00 %
17.10.2016 20:44 9,5 C 94 % 1022,8 hPa 0,0 l/m 7,6 km/h (2 Bft) O-NO 60 0 min 0,000 mm 0,0 UV-I 0 W/m 8,6 C 8,6 C 12,9 km/h (3 Bft) 100,00 %
17.10.2016 20:46 9,5 C 93 % 1022,7 hPa 0,0 l/m 7,2 km/h (2 Bft) O-NO 57 0 min 0,000 mm 0,0 UV-I 0 W/m 8,4 C 8,9 C 11,3 km/h (2 Bft) 95,74 %
17.10.2016 20:48 9,4 C 93 % 1022,7 hPa 0,0 l/m 7,7 km/h (2 Bft) O-NO 63 0 min 0,000 mm 0,0 UV-I 0 W/m 8,3 C 8,4 C 12,9 km/h (3 Bft) 97,87 %
17.10.2016 20:50 9,4 C 93 % 1022,8 hPa 0,0 l/m 9,4 km/h (2 Bft) O 88 0 min 0,000 mm 0,0 UV-I 0 W/m 8,3 C 7,3 C 12,9 km/h (3 Bft) 100,00 %
17.10.2016 20:52 9,4 C 93 % 1022,8 hPa 0,0 l/m 8,4 km/h (2 Bft) O-NO 64 0 min 0,000 mm 0,0 UV-I 0 W/m 8,3 C 7,9 C 11,3 km/h (2 Bft) 100,00 %
17.10.2016 20:54 9,4 C 93 % 1022,8 hPa 0,0 l/m 7,3 km/h (2 Bft) O-NO 61 0 min 0,000 mm 0,0 UV-I 0 W/m 8,3 C 8,7 C 12,9 km/h (3 Bft) 97,22 %
17.10.2016 20:56 9,4 C 94 % 1022,9 hPa 0,0 l/m 7,0 km/h (2 Bft) O-NO 78 0 min 0,000 mm 0,0 UV-I 0 W/m 8,5 C 9,0 C 11,3 km/h (2 Bft) 100,00 %
17.10.2016 20:58 9,3 C 94 % 1022,8 hPa 0,0 l/m 5,8 km/h (2 Bft) O-NO 62 0 min 0,000 mm 0,0 UV-I 0 W/m 8,4 C 9,3 C 9,7 km/h (2 Bft) 100,00 %
17.10.2016 21:00 9,3 C 93 % 1022,8 hPa 0,0 l/m 6,1 km/h (2 Bft) NO 36 0 min 0,000 mm 0,0 UV-I 0 W/m 8,2 C 9,3 C 9,7 km/h (2 Bft) 97,87 %
17.10.2016 21:02 9,3 C 93 % 1022,8 hPa 0,0 l/m 7,5 km/h (2 Bft) NO 56 0 min 0,000 mm 0,0 UV-I 0 W/m 8,2 C 8,5 C 9,7 km/h (2 Bft) 98,00 %
17.10.2016 21:04 9,3 C 93 % 1022,8 hPa 0,0 l/m 7,5 km/h (2 Bft) O-NO 62 0 min 0,000 mm 0,0 UV-I 0 W/m 8,2 C 8,5 C 11,3 km/h (2 Bft) 100,00 %
17.10.2016 21:06 9,3 C 93 % 1022,7 hPa 0,0 l/m 9,9 km/h (2 Bft) O-NO 73 0 min 0,000 mm 0,0 UV-I 0 W/m 8,2 C 6,9 C 14,5 km/h (3 Bft) 97,87 %
17.10.2016 21:08 9,3 C 94 % 1022,8 hPa 0,0 l/m 6,8 km/h (2 Bft) O-NO 77 0 min 0,000 mm 0,0 UV-I 0 W/m 8,4 C 9,0 C 11,3 km/h (2 Bft) 97,87 %
17.10.2016 21:10 9,3 C 94 % 1022,8 hPa 0,0 l/m 6,5 km/h (2 Bft) O-NO 59 0 min 0,000 mm 0,0 UV-I 0 W/m 8,4 C 9,3 C 9,7 km/h (2 Bft) 97,87 %
17.10.2016 21:12 9,3 C 94 % 1022,7 hPa 0,0 l/m 6,8 km/h (2 Bft) O 82 0 min 0,000 mm 0,0 UV-I 0 W/m 8,4 C 9,0 C 9,7 km/h (2 Bft) 97,87 %
17.10.2016 21:14 9,3 C 94 % 1022,7 hPa 0,0 l/m 7,5 km/h (2 Bft) O-NO 74 0 min 0,000 mm 0,0 UV-I 0 W/m 8,4 C 8,5 C 12,9 km/h (3 Bft) 97,87 %
17.10.2016 21:16 9,3 C 94 % 1022,8 hPa 0,0 l/m 7,4 km/h (2 Bft) O-NO 67 0 min 0,000 mm 0,0 UV-I 0 W/m 8,4 C 8,6 C 9,7 km/h (2 Bft) 100,00 %
17.10.2016 21:18 9,3 C 94 % 1022,8 hPa 0,0 l/m 6,5 km/h (2 Bft) O-NO 76 0 min 0,000 mm 0,0 UV-I 0 W/m 8,4 C 9,3 C 9,7 km/h (2 Bft) 100,00 %
17.10.2016 21:20 9,3 C 94 % 1022,8 hPa 0,0 l/m 5,9 km/h (2 Bft) NO 46 0 min 0,000 mm 0,0 UV-I 0 W/m 8,4 C 9,3 C 8,0 km/h (2 Bft) 100,00 %
17.10.2016 21:22 9,3 C 94 % 1022,7 hPa 0,0 l/m 6,2 km/h (2 Bft) O-NO 78 0 min 0,000 mm 0,0 UV-I 0 W/m 8,4 C 9,3 C 8,0 km/h (2 Bft) 100,00 %
17.10.2016 21:24 9,3 C 94 % 1022,7 hPa 0,0 l/m 7,4 km/h (2 Bft) O-NO 76 0 min 0,000 mm 0,0 UV-I 0 W/m 8,4 C 8,6 C 9,7 km/h (2 Bft) 100,00 %
17.10.2016 21:26 9,3 C 94 % 1022,7 hPa 0,0 l/m 8,0 km/h (2 Bft) O-NO 67 0 min 0,000 mm 0,0 UV-I 0 W/m 8,4 C 8,1 C 12,9 km/h (3 Bft) 95,74 %
17.10.2016 21:28 9,3 C 94 % 1022,7 hPa 0,0 l/m 7,9 km/h (2 Bft) O-NO 65 0 min 0,000 mm 0,0 UV-I 0 W/m 8,4 C 8,2 C 14,5 km/h (3 Bft) 97,87 %
17.10.2016 21:30 9,3 C 94 % 1022,7 hPa 0,0 l/m 7,9 km/h (2 Bft) O-NO 65 0 min 0,000 mm 0,0 UV-I 0 W/m 8,4 C 8,2 C 14,5 km/h (3 Bft) 100,00 %
17.10.2016 21:32 9,3 C 94 % 1022,7 hPa 0,0 l/m 6,2 km/h (2 Bft) O-NO 64 0 min 0,000 mm 0,0 UV-I 0 W/m 8,4 C 9,3 C 11,3 km/h (2 Bft) 100,00 %
17.10.2016 21:34 9,3 C 94 % 1022,7 hPa 0,0 l/m 7,9 km/h (2 Bft) NO 50 0 min 0,000 mm 0,0 UV-I 0 W/m 8,4 C 8,2 C 11,3 km/h (2 Bft) 95,83 %
17.10.2016 21:36 9,3 C 94 % 1022,7 hPa 0,0 l/m 7,5 km/h (2 Bft) O-NO 57 0 min 0,000 mm 0,0 UV-I 0 W/m 8,4 C 8,5 C 12,9 km/h (3 Bft) 100,00 %
17.10.2016 21:38 9,2 C 94 % 1022,7 hPa 0,0 l/m 6,4 km/h (2 Bft) O-NO 57 0 min 0,000 mm 0,0 UV-I 0 W/m 8,3 C 9,2 C 8,0 km/h (2 Bft) 100,00 %
17.10.2016 21:40 9,3 C 94 % 1022,7 hPa 0,0 l/m 5,5 km/h (1 Bft) NO 49 0 min 0,000 mm 0,0 UV-I 0 W/m 8,4 C 9,3 C 8,0 km/h (2 Bft) 95,74 %
17.10.2016 21:43 9,3 C 94 % 1022,6 hPa 0,0 l/m 6,9 km/h (2 Bft) O-NO 67 0 min 0,000 mm 0,0 UV-I 0 W/m 8,4 C 8,9 C 11,3 km/h (2 Bft) 95,89 %
17.10.2016 21:44 9,3 C 94 % 1022,6 hPa 0,0 l/m 6,5 km/h (2 Bft) O-NO 69 0 min 0,000 mm 0,0 UV-I 0 W/m 8,4 C 9,3 C 9,7 km/h (2 Bft) 100,00 %
17.10.2016 21:46 9,3 C 94 % 1022,6 hPa 0,0 l/m 6,4 km/h (2 Bft) O-NO 74 0 min 0,000 mm 0,0 UV-I 0 W/m 8,4 C 9,3 C 8,0 km/h (2 Bft) 97,37 %
17.10.2016 21:48 9,2 C 94 % 1022,6 hPa 0,0 l/m 6,5 km/h (2 Bft) NO 54 0 min 0,000 mm 0,0 UV-I 0 W/m 8,3 C 9,2 C 8,0 km/h (2 Bft) 98,00 %
17.10.2016 21:50 9,3 C 94 % 1022,6 hPa 0,0 l/m 5,1 km/h (1 Bft) NO 44 0 min 0,000 mm 0,0 UV-I 0 W/m 8,4 C 9,3 C 8,0 km/h (2 Bft) 93,62 %
17.10.2016 21:52 9,2 C 94 % 1022,5 hPa 0,0 l/m 6,6 km/h (2 Bft) O-NO 62 0 min 0,000 mm 0,0 UV-I 0 W/m 8,3 C 9,1 C 9,7 km/h (2 Bft) 95,74 %
17.10.2016 21:54 9,2 C 94 % 1022,5 hPa 0,0 l/m 6,9 km/h (2 Bft) NO 55 0 min 0,000 mm 0,0 UV-I 0 W/m 8,3 C 8,8 C 9,7 km/h (2 Bft) 95,74 %
17.10.2016 21:56 9,2 C 94 % 1022,5 hPa 0,0 l/m 7,0 km/h (2 Bft) N-NO 29 0 min 0,000 mm 0,0 UV-I 0 W/m 8,3 C 8,8 C 12,9 km/h (3 Bft) 97,87 %
17.10.2016 21:58 9,2 C 94 % 1022,5 hPa 0,0 l/m 6,9 km/h (2 Bft) O-NO 65 0 min 0,000 mm 0,0 UV-I 0 W/m 8,3 C 8,8 C 11,3 km/h (2 Bft) 93,62 %
17.10.2016 22:00 9,2 C 94 % 1022,6 hPa 0,0 l/m 6,0 km/h (2 Bft) NO 53 0 min 0,000 mm 0,0 UV-I 0 W/m 8,3 C 9,2 C 8,0 km/h (2 Bft) 98,00 %
17.10.2016 22:03 9,2 C 94 % 1022,5 hPa 0,0 l/m 5,9 km/h (2 Bft) O-NO 59 0 min 0,000 mm 0,0 UV-I 0 W/m 8,3 C 9,2 C 8,0 km/h (2 Bft) 94,37 %
17.10.2016 22:04 9,2 C 94 % 1022,5 hPa 0,0 l/m 9,7 km/h (2 Bft) O-NO 75 0 min 0,000 mm 0,0 UV-I 0 W/m 8,3 C 6,9 C 12,9 km/h (3 Bft) 100,00 %
17.10.2016 22:06 9,2 C 94 % 1022,5 hPa 0,0 l/m 5,7 km/h (1 Bft) NO 37 0 min 0,000 mm 0,0 UV-I 0 W/m 8,3 C 9,2 C 8,0 km/h (2 Bft) 95,74 %
17.10.2016 22:08 9,2 C 94 % 1022,5 hPa 0,0 l/m 4,8 km/h (1 Bft) O-NO 67 0 min 0,000 mm 0,0 UV-I 0 W/m 8,3 C 9,2 C 6,4 km/h (2 Bft) 94,74 %
17.10.2016 22:10 9,2 C 94 % 1022,5 hPa 0,0 l/m 7,6 km/h (2 Bft) NO 46 0 min 0,000 mm 0,0 UV-I 0 W/m 8,3 C 8,3 C 12,9 km/h (3 Bft) 97,92 %
17.10.2016 22:12 9,2 C 94 % 1022,6 hPa 0,0 l/m 4,1 km/h (1 Bft) NO 49 0 min 0,000 mm 0,0 UV-I 0 W/m 8,3 C 9,2 C 6,4 km/h (2 Bft) 95,74 %
17.10.2016 22:14 9,2 C 94 % 1022,6 hPa 0,0 l/m 4,4 km/h (1 Bft) NO 38 0 min 0,000 mm 0,0 UV-I 0 W/m 8,3 C 9,2 C 8,0 km/h (2 Bft) 96,00 %
17.10.2016 22:16 9,2 C 94 % 1022,6 hPa 0,0 l/m 5,6 km/h (1 Bft) O-NO 72 0 min 0,000 mm 0,0 UV-I 0 W/m 8,3 C 9,2 C 6,4 km/h (2 Bft) 91,49 %
17.10.2016 22:18 9,2 C 94 % 1022,5 hPa 0,0 l/m 5,1 km/h (1 Bft) NO 39 0 min 0,000 mm 0,0 UV-I 0 W/m 8,3 C 9,2 C 8,0 km/h (2 Bft) 100,00 %
17.10.2016 22:20 9,2 C 94 % 1022,5 hPa 0,0 l/m 6,1 km/h (2 Bft) NO 47 0 min 0,000 mm 0,0 UV-I 0 W/m 8,3 C 9,2 C 9,7 km/h (2 Bft) 100,00 %
17.10.2016 22:22 9,2 C 94 % 1022,5 hPa 0,0 l/m 6,3 km/h (2 Bft) NO 44 0 min 0,000 mm 0,0 UV-I 0 W/m 8,3 C 9,2 C 8,0 km/h (2 Bft) 97,87 %
17.10.2016 22:24 9,2 C 94 % 1022,5 hPa 0,0 l/m 6,3 km/h (2 Bft) NO 50 0 min 0,000 mm 0,0 UV-I 0 W/m 8,3 C 9,2 C 9,7 km/h (2 Bft) 97,87 %
17.10.2016 22:26 9,2 C 94 % 1022,6 hPa 0,0 l/m 3,8 km/h (1 Bft) NO 55 0 min 0,000 mm 0,0 UV-I 0 W/m 8,3 C 9,2 C 6,4 km/h (2 Bft) 97,87 %
17.10.2016 22:28 9,2 C 94 % 1022,6 hPa 0,0 l/m 4,7 km/h (1 Bft) NO 52 0 min 0,000 mm 0,0 UV-I 0 W/m 8,3 C 9,2 C 8,0 km/h (2 Bft) 100,00 %
17.10.2016 22:30 9,2 C 94 % 1022,7 hPa 0,0 l/m 5,0 km/h (1 Bft) O-NO 74 0 min 0,000 mm 0,0 UV-I 0 W/m 8,3 C 9,2 C 8,0 km/h (2 Bft) 97,14 %
17.10.2016 22:32 9,2 C 94 % 1022,6 hPa 0,0 l/m 5,6 km/h (1 Bft) O-NO 71 0 min 0,000 mm 0,0 UV-I 0 W/m 8,3 C 9,2 C 8,0 km/h (2 Bft) 100,00 %
17.10.2016 22:34 9,2 C 94 % 1022,6 hPa 0,0 l/m 5,2 km/h (1 Bft) O-NO 61 0 min 0,000 mm 0,0 UV-I 0 W/m 8,3 C 9,2 C 8,0 km/h (2 Bft) 97,87 %
17.10.2016 22:36 9,2 C 94 % 1022,6 hPa 0,0 l/m 6,8 km/h (2 Bft) NO 41 0 min 0,000 mm 0,0 UV-I 0 W/m 8,3 C 8,9 C 8,0 km/h (2 Bft) 97,87 %
17.10.2016 22:38 9,2 C 94 % 1022,6 hPa 0,0 l/m 6,1 km/h (2 Bft) NO 49 0 min 0,000 mm 0,0 UV-I 0 W/m 8,3 C 9,2 C 9,7 km/h (2 Bft) 100,00 %
17.10.2016 22:40 9,2 C 94 % 1022,6 hPa 0,0 l/m 5,7 km/h (1 Bft) NO 51 0 min 0,000 mm 0,0 UV-I 0 W/m 8,3 C 9,2 C 8,0 km/h (2 Bft) 97,87 %
17.10.2016 22:42 9,2 C 94 % 1022,6 hPa 0,0 l/m 5,5 km/h (1 Bft) O-NO 59 0 min 0,000 mm 0,0 UV-I 0 W/m 8,3 C 9,2 C 8,0 km/h (2 Bft) 100,00 %
17.10.2016 22:44 9,2 C 94 % 1022,5 hPa 0,0 l/m 5,6 km/h (1 Bft) O-NO 66 0 min 0,000 mm 0,0 UV-I 0 W/m 8,3 C 9,2 C 9,7 km/h (2 Bft) 100,00 %
17.10.2016 22:46 9,2 C 94 % 1022,5 hPa 0,0 l/m 3,8 km/h (1 Bft) O-NO 66 0 min 0,000 mm 0,0 UV-I 0 W/m 8,3 C 9,2 C 4,8 km/h (1 Bft) 100,00 %
17.10.2016 22:48 9,2 C 94 % 1022,5 hPa 0,0 l/m 3,6 km/h (1 Bft) O-NO 66 0 min 0,000 mm 0,0 UV-I 0 W/m 8,3 C 9,2 C 6,4 km/h (2 Bft) 100,00 %
17.10.2016 22:50 9,2 C 94 % 1022,5 hPa 0,0 l/m 3,8 km/h (1 Bft) O-NO 74 0 min 0,000 mm 0,0 UV-I 0 W/m 8,3 C 9,2 C 6,4 km/h (2 Bft) 100,00 %
17.10.2016 22:52 9,2 C 95 % 1022,6 hPa 0,0 l/m 6,1 km/h (2 Bft) O-NO 72 0 min 0,000 mm 0,0 UV-I 0 W/m 8,4 C 9,2 C 8,0 km/h (2 Bft) 100,00 %
17.10.2016 22:54 9,2 C 94 % 1022,5 hPa 0,0 l/m 3,9 km/h (1 Bft) O-NO 70 0 min 0,000 mm 0,0 UV-I 0 W/m 8,3 C 9,2 C 6,4 km/h (2 Bft) 100,00 %
17.10.2016 22:56 9,2 C 95 % 1022,5 hPa 0,0 l/m 3,9 km/h (1 Bft) NO 55 0 min 0,000 mm 0,0 UV-I 0 W/m 8,4 C 9,2 C 6,4 km/h (2 Bft) 97,87 %
17.10.2016 22:58 9,2 C 95 % 1022,5 hPa 0,0 l/m 4,5 km/h (1 Bft) NO 54 0 min 0,000 mm 0,0 UV-I 0 W/m 8,4 C 9,2 C 6,4 km/h (2 Bft) 100,00 %
17.10.2016 23:00 9,2 C 95 % 1022,5 hPa 0,0 l/m 3,9 km/h (1 Bft) O-NO 61 0 min 0,000 mm 0,0 UV-I 0 W/m 8,4 C 9,2 C 6,4 km/h (2 Bft) 97,37 %
17.10.2016 23:02 9,2 C 95 % 1022,5 hPa 0,0 l/m 4,5 km/h (1 Bft) NO 44 0 min 0,000 mm 0,0 UV-I 0 W/m 8,4 C 9,2 C 6,4 km/h (2 Bft) 100,00 %
17.10.2016 23:04 9,2 C 95 % 1022,4 hPa 0,0 l/m 6,0 km/h (2 Bft) NO 40 0 min 0,000 mm 0,0 UV-I 0 W/m 8,4 C 9,2 C 8,0 km/h (2 Bft) 97,87 %
17.10.2016 23:06 9,2 C 95 % 1022,4 hPa 0,0 l/m 6,5 km/h (2 Bft) NO 38 0 min 0,000 mm 0,0 UV-I 0 W/m 8,4 C 9,2 C 9,7 km/h (2 Bft) 100,00 %
17.10.2016 23:08 9,1 C 95 % 1022,4 hPa 0,0 l/m 6,4 km/h (2 Bft) NO 36 0 min 0,000 mm 0,0 UV-I 0 W/m 8,3 C 9,1 C 8,0 km/h (2 Bft) 97,87 %
17.10.2016 23:10 9,2 C 95 % 1022,4 hPa 0,0 l/m 5,9 km/h (2 Bft) NO 50 0 min 0,000 mm 0,0 UV-I 0 W/m 8,4 C 9,2 C 9,7 km/h (2 Bft) 100,00 %
17.10.2016 23:12 9,1 C 95 % 1022,3 hPa 0,0 l/m 4,1 km/h (1 Bft) NO 40 0 min 0,000 mm 0,0 UV-I 0 W/m 8,3 C 9,1 C 6,4 km/h (2 Bft) 98,00 %
17.10.2016 23:14 9,1 C 95 % 1022,3 hPa 0,0 l/m 6,1 km/h (2 Bft) O-NO 78 0 min 0,000 mm 0,0 UV-I 0 W/m 8,3 C 9,1 C 8,0 km/h (2 Bft) 98,00 %
17.10.2016 23:16 9,1 C 95 % 1022,3 hPa 0,0 l/m 6,9 km/h (2 Bft) O-NO 73 0 min 0,000 mm 0,0 UV-I 0 W/m 8,3 C 8,7 C 11,3 km/h (2 Bft) 100,00 %
17.10.2016 23:18 9,1 C 95 % 1022,3 hPa 0,0 l/m 7,7 km/h (2 Bft) O-NO 58 0 min 0,000 mm 0,0 UV-I 0 W/m 8,3 C 8,1 C 12,9 km/h (3 Bft) 100,00 %
17.10.2016 23:20 9,1 C 95 % 1022,4 hPa 0,0 l/m 7,4 km/h (2 Bft) O-NO 64 0 min 0,000 mm 0,0 UV-I 0 W/m 8,3 C 8,3 C 9,7 km/h (2 Bft) 100,00 %
17.10.2016 23:22 9,1 C 95 % 1022,4 hPa 0,0 l/m 5,7 km/h (1 Bft) O-NO 59 0 min 0,000 mm 0,0 UV-I 0 W/m 8,3 C 9,1 C 8,0 km/h (2 Bft) 100,00 %
17.10.2016 23:24 9,1 C 95 % 1022,4 hPa 0,0 l/m 6,3 km/h (2 Bft) O-NO 77 0 min 0,000 mm 0,0 UV-I 0 W/m 8,3 C 9,1 C 11,3 km/h (2 Bft) 97,87 %
17.10.2016 23:26 9,1 C 95 % 1022,4 hPa 0,0 l/m 3,5 km/h (1 Bft) O-NO 77 0 min 0,000 mm 0,0 UV-I 0 W/m 8,3 C 9,1 C 4,8 km/h (1 Bft) 97,87 %
17.10.2016 23:28 9,1 C 95 % 1022,4 hPa 0,0 l/m 5,6 km/h (1 Bft) O-NO 61 0 min 0,000 mm 0,0 UV-I 0 W/m 8,3 C 9,1 C 6,4 km/h (2 Bft) 97,87 %
17.10.2016 23:30 9,1 C 95 % 1022,4 hPa 0,0 l/m 5,1 km/h (1 Bft) NO 49 0 min 0,000 mm 0,0 UV-I 0 W/m 8,3 C 9,1 C 6,4 km/h (2 Bft) 97,87 %
17.10.2016 23:32 9,1 C 95 % 1022,4 hPa 0,0 l/m 4,7 km/h (1 Bft) O-NO 66 0 min 0,000 mm 0,0 UV-I 0 W/m 8,3 C 9,1 C 8,0 km/h (2 Bft) 97,87 %
17.10.2016 23:34 9,1 C 95 % 1022,4 hPa 0,0 l/m 3,8 km/h (1 Bft) O-NO 64 0 min 0,000 mm 0,0 UV-I 0 W/m 8,3 C 9,1 C 6,4 km/h (2 Bft) 100,00 %
17.10.2016 23:36 9,1 C 95 % 1022,4 hPa 0,0 l/m 4,4 km/h (1 Bft) O-NO 66 0 min 0,000 mm 0,0 UV-I 0 W/m 8,3 C 9,1 C 6,4 km/h (2 Bft) 100,00 %
17.10.2016 23:38 9,1 C 95 % 1022,4 hPa 0,0 l/m 4,1 km/h (1 Bft) O-NO 63 0 min 0,000 mm 0,0 UV-I 0 W/m 8,3 C 9,1 C 6,4 km/h (2 Bft) 97,87 %
17.10.2016 23:40 9,1 C 95 % 1022,3 hPa 0,0 l/m 4,5 km/h (1 Bft) N-NO 31 0 min 0,000 mm 0,0 UV-I 0 W/m 8,3 C 9,1 C 6,4 km/h (2 Bft) 97,87 %
17.10.2016 23:42 9,1 C 95 % 1022,2 hPa 0,0 l/m 2,7 km/h (1 Bft) N-NO 31 0 min 0,000 mm 0,0 UV-I 0 W/m 8,3 C 9,1 C 4,8 km/h (1 Bft) 100,00 %
17.10.2016 23:44 9,1 C 95 % 1022,2 hPa 0,0 l/m 3,7 km/h (1 Bft) O-NO 64 0 min 0,000 mm 0,0 UV-I 0 W/m 8,3 C 9,1 C 6,4 km/h (2 Bft) 97,87 %
17.10.2016 23:46 9,1 C 95 % 1022,2 hPa 0,0 l/m 2,8 km/h (1 Bft) O-NO 61 0 min 0,000 mm 0,0 UV-I 0 W/m 8,3 C 9,1 C 4,8 km/h (1 Bft) 95,74 %
17.10.2016 23:48 9,1 C 95 % 1022,2 hPa 0,0 l/m 3,6 km/h (1 Bft) O-NO 60 0 min 0,000 mm 0,0 UV-I 0 W/m 8,3 C 9,1 C 6,4 km/h (2 Bft) 97,87 %
17.10.2016 23:50 9,1 C 95 % 1022,2 hPa 0,0 l/m 5,2 km/h (1 Bft) O-NO 70 0 min 0,000 mm 0,0 UV-I 0 W/m 8,3 C 9,1 C 8,0 km/h (2 Bft) 95,74 %
17.10.2016 23:52 9,0 C 95 % 1022,2 hPa 0,0 l/m 4,2 km/h (1 Bft) O-NO 70 0 min 0,000 mm 0,0 UV-I 0 W/m 8,2 C 9,0 C 6,4 km/h (2 Bft) 91,49 %
17.10.2016 23:54 9,1 C 95 % 1022,2 hPa 0,0 l/m 3,8 km/h (1 Bft) O-NO 70 0 min 0,000 mm 0,0 UV-I 0 W/m 8,3 C 9,1 C 4,8 km/h (1 Bft) 95,74 %
17.10.2016 23:56 9,0 C 95 % 1022,2 hPa 0,0 l/m 4,5 km/h (1 Bft) O-NO 66 0 min 0,000 mm 0,0 UV-I 0 W/m 8,2 C 9,0 C 6,4 km/h (2 Bft) 94,29 %
17.10.2016 23:58 9,1 C 95 % 1022,2 hPa 0,0 l/m 3,8 km/h (1 Bft) O-NO 66 0 min 0,000 mm 0,0 UV-I 0 W/m 8,3 C 9,1 C 4,8 km/h (1 Bft) 98,00 %
_ Min-Zeit 07:52 14:46 01:44 - 10:32 - - - - - - 21:00 05:42 09:54 02:04
Minimum _ 9,0 C 89 % 1022,0 hPa - 1,7 km/h (1 Bft) - - - - - - 8,2 C 1,8 C 4,8 km/h (1 Bft) 91,49 %
_ Max-Zeit 14:38 07:02 10:14 00:00 04:18 - - 00:00 15:00 13:42 13:42 14:40 15:38 04:18 00:18
Maximum _ 11,4 C 97 % 1024,4 hPa 0,0 l/m 22,8 km/h
NO (4 Bft)
- - 0 min 0,077 mm 1,0 UV-I 227 W/m 10,0 C 11,3 C 33,8 km/h
O-NO (5 Bft)
100,00 %
Durchschnitt _ 10,0 C 93 % 1022,9 hPa #0,0 l/m 8,9 km/h (2 Bft) O-NO - #0 min. #0,483 mm 0,6 UV-I 84 W/m 8,9 C 8,2 C 13,5 km/h (3 Bft) 98,51 %